[[{"header":{"parameterUnit":"m.s-1","parameterCategory":1,"la1":31.0,"la2":29.5877,"lo1":-88.7671,"lo2":-86.6584,"dy":0.0162,"dx":0.0185,"nx":115,"ny":88,"refTime":"2024-03-29T12:00:00:Z","depth":0,"parameterNumber":2,"parameterNumberName":"U-component_of_WINDS"},"data":[0.0,0.0,0.0,0.0,0.0,0.0,0.0,0.0,0.0,0.0,0.0,0.0,0.0,0.0,0.0,0.0,0.0,0.0,0.0,0.0,0.0,0.0,0.0,0.0,0.0,0.0,0.0,0.0,0.0,0.0,0.0,0.0,0.0,0.0,0.0,0.0,0.0,0.0,0.0,0.0,0.0,0.0,0.0,0.0,0.0,0.0,0.0,0.0,0.0,0.0,0.0,0.0,0.0,0.0,0.0,0.0,0.0,0.0,0.0,0.0,0.0,0.0,0.0,0.0,0.0,0.0,0.0,0.0,0.0,0.0,0.0,0.0,0.0,0.0,0.0,0.0,0.0,0.0,0.0,0.0,0.0,0.0,0.0,0.0,0.0,0.0,0.0,0.0,0.0,0.0,0.0,0.0,0.0,0.0,0.0,0.0,0.0,0.0,0.0,0.0,0.0,0.0,0.0,0.0,0.0,0.0,0.0,0.0,0.0,0.0,0.0,0.0,0.0,0.0,0.0,0.0,0.0,0.0,0.0,0.0,0.0,0.0,0.0,0.0,0.0,0.0,0.0,0.0,0.0,0.0,0.0,0.0,0.0,0.0,0.0,0.0,0.0,0.0,0.0,0.0,0.0,0.0,0.0,0.0,0.0,0.0,0.0,0.0,0.0,0.0,0.0,0.0,0.0,0.0,0.0,0.0,0.0,0.0,0.0,0.0,0.0,0.0,0.0,0.0,0.0,0.0,0.0,0.0,0.0,0.0,0.0,0.0,0.0,0.0,0.0,0.0,0.0,0.0,0.0,0.0,0.0,0.0,0.0,0.0,0.0,0.0,0.0,0.0,0.0,0.0,0.0,0.0,0.0,0.0,0.0,0.0,0.0,0.0,0.0,0.0,0.0,0.0,0.0,0.0,0.0,0.0,0.0,0.0,0.0,0.0,0.0,0.0,0.0,0.0,0.0,0.0,0.0,0.0,0.0,0.0,0.0,0.0,0.0,0.0,0.0,0.0,0.0,0.0,0.0,0.0,0.0,0.0,0.0,0.0,0.0,0.0,0.0,0.0,0.0,0.0,0.0,0.0,0.0,0.0,0.0,0.0,0.0,0.0,0.0,0.0,0.0,0.0,0.0,0.0,0.0,0.0,0.0,0.0,0.0,0.0,0.0,0.0,0.0,0.0,0.0,0.0,0.0,0.0,0.0,0.0,0.0,0.0,0.0,0.0,0.0,0.0,0.0,0.0,0.0,0.0,0.0,0.0,0.0,0.0,0.0,0.0,0.0,0.0,0.0,0.0,0.0,0.0,0.0,0.0,0.0,0.0,0.0,0.0,0.0,0.0,0.0,0.0,0.0,0.0,0.0,0.0,0.0,0.0,0.0,0.0,0.0,0.0,0.0,0.0,0.0,0.0,0.0,0.0,0.0,0.0,0.0,0.0,0.0,0.0,0.0,0.0,0.0,0.0,0.0,0.0,0.0,0.0,0.0,0.0,0.0,0.0,0.0,0.0,0.0,0.0,0.0,0.0,0.0,0.0,0.0,0.0,0.0,0.0,0.0,0.0,0.0,0.0,0.0,0.0,0.0,0.0,0.0,0.0,0.0,0.0,0.0,0.0,0.0,0.0,0.0,0.0,0.0,0.0,0.0,0.0,0.0,0.0,0.0,0.0,0.0,0.0,0.0,0.0,0.0,0.0,0.0,0.0,0.0,0.0,0.0,0.0,0.0,0.0,0.0,0.0,0.0,0.0,0.0,0.0,0.0,0.0,0.0,0.0,0.0,0.0,0.0,0.0,0.0,0.0,0.0,0.0,0.0,0.0,0.0,0.0,0.0,0.0,0.0,0.0,0.0,0.0,0.0,0.0,0.0,0.0,0.0,0.0,0.0,0.0,0.0,0.0,0.0,0.0,0.0,0.0,0.0,0.0,0.0,0.0,0.0,0.0,0.0,0.0,0.0,0.0,0.0,0.0,0.0,0.0,0.0,0.0,0.0,0.0,0.0,0.0,0.0,0.0,0.0,0.0,0.0,0.0,0.0,0.0,0.0,0.0,0.0,0.0,0.0,0.0,0.0,0.0,0.0,0.0,0.0,0.0,0.0,0.0,0.0,0.0,0.0,0.0,0.0,0.0,0.0,0.0,0.0,0.0,0.0,0.0,0.0,0.0,0.0,0.0,0.0,0.0,0.0,0.0,0.0,0.0,0.0,0.0,0.0,0.0,0.0,0.0,0.0,0.0,0.0,0.0,0.0,0.0,0.0,0.0,0.0,0.0,0.0,0.0,0.0,0.0,0.0,0.0,0.0,0.0,0.0,0.0,0.0,0.0,0.0,0.0,0.0,0.0,0.0,0.0,0.0,0.0,0.0,0.0,0.0,0.0,0.0,0.0,0.0,0.0,0.0,0.0,0.0,0.0,0.0,0.0,0.0,0.0,0.0,0.0,0.0,0.0,0.0,0.0,0.0,0.0,0.0,0.0,0.0,0.0,0.0,0.0,0.0,0.0,0.0,0.0,0.0,0.0,0.0,0.0,0.0,0.0,0.0,0.0,0.0,0.0,0.0,0.0,0.0,0.0,0.0,0.0,0.0,0.0,0.0,0.0,0.0,0.0,0.0,0.0,0.0,0.0,0.0,0.0,0.0,0.0,0.0,0.0,0.0,0.0,0.0,0.0,0.0,0.0,0.0,0.0,0.0,0.0,0.0,0.0,0.0,0.0,0.0,0.0,0.0,0.0,0.0,0.0,0.0,0.0,0.0,0.0,0.0,0.0,0.0,0.0,0.0,0.0,0.0,0.0,0.0,0.0,0.0,0.0,0.0,0.0,0.0,0.0,0.0,0.0,0.0,0.0,0.0,0.0,0.0,0.0,0.0,0.0,0.0,0.0,0.0,0.0,0.0,0.0,0.0,0.0,0.0,0.0,0.0,0.0,0.0,0.0,0.0,0.0,0.0,0.0,0.0,0.0,0.0,0.0,0.0,0.0,0.0,0.0,0.0,0.0,0.0,0.0,0.0,0.0,0.0,0.0,0.0,0.0,0.0,0.0,0.0,0.0,0.0,0.0,0.0,0.0,0.0,0.0,0.0,0.0,0.0,0.0,0.0,0.0,0.0,0.0,0.0,0.0,0.0,0.0,0.0,0.0,0.0,0.0,0.0,0.0,0.0,0.0,0.0,0.0,0.0,0.0,0.0,0.0,0.0,0.0,0.0,0.0,0.0,0.0,0.0,0.0,0.0,0.0,0.0,0.0,0.0,0.0,0.0,0.0,0.0,0.0,0.0,0.0,0.0,0.0,0.0,0.0,0.0,0.0,0.0,0.0,0.0,0.0,0.0,0.0,0.0,0.0,0.0,0.0,0.0,0.0,0.0,0.0,0.0,0.0,0.0,0.0,0.0,0.0,0.0,0.0,0.0,0.0,0.0,0.0,0.0,0.0,0.0,0.0,0.0,0.0,0.0,0.0,0.0,0.0,0.0,0.0,0.0,0.0,0.0,0.0,0.0,0.0,0.0,0.0,0.0,0.0,0.0,0.0,0.0,0.0,0.0,0.0,0.0,0.0,0.0,0.0,0.0,0.0,0.0,0.0,0.0,0.0,0.0,0.0,0.0,0.0,0.0,0.0,0.0,0.0,0.0,0.0,0.0,0.0,0.0,0.0,0.0,0.0,0.0,0.0,0.0,0.0,0.0,0.0,0.0,0.0,0.0,0.0,0.0,0.0,0.0,0.0,0.0,0.0,0.0,0.0,0.0,0.0,0.0,0.0,0.0,0.0,0.0,0.0,0.0,0.0,0.0,0.0,0.0,0.0,0.0,0.0,0.0,0.0,0.0,0.0,0.0,0.0,0.0,0.0,0.0,0.0,0.0,0.0,0.0,0.0,0.0,0.0,0.0,0.0,0.0,0.0,0.0,0.0,0.0,0.0,0.0,0.0,0.0,0.0,0.0,0.0,0.0,0.0,0.0,0.0,0.0,0.0,0.0,0.0,0.0,0.0,0.0,0.0,0.0,0.0,0.0,0.0,0.0,0.0,0.0,0.0,0.0,0.0,0.0,0.0,0.0,0.0,0.0,0.0,0.0,0.0,0.0,0.0,0.0,0.0,0.0,0.0,0.0,0.0,0.0,0.0,0.0,0.0,0.0,0.0,0.0,0.0,0.0,0.0,0.0,0.0,0.0,0.0,0.0,0.0,0.0,0.0,0.0,0.0,0.0,0.0,0.0,0.0,0.0,0.0,0.0,0.0,0.0,0.0,0.0,0.0,0.0,0.0,0.0,0.0,0.0,0.0,0.0,0.0,-4.9736,0.0,0.0,0.0,0.0,0.0,0.0,0.0,0.0,0.0,0.0,0.0,0.0,0.0,0.0,0.0,0.0,0.0,0.0,0.0,0.0,0.0,0.0,0.0,0.0,0.0,0.0,0.0,0.0,0.0,0.0,0.0,0.0,0.0,0.0,0.0,0.0,0.0,0.0,0.0,0.0,0.0,0.0,0.0,0.0,0.0,0.0,0.0,0.0,0.0,0.0,0.0,0.0,0.0,0.0,0.0,0.0,0.0,0.0,0.0,0.0,0.0,0.0,0.0,0.0,0.0,0.0,0.0,0.0,0.0,0.0,0.0,0.0,0.0,0.0,0.0,0.0,0.0,0.0,0.0,0.0,0.0,0.0,0.0,0.0,0.0,0.0,0.0,0.0,0.0,0.0,0.0,0.0,0.0,0.0,0.0,0.0,0.0,0.0,0.0,0.0,0.0,0.0,0.0,0.0,0.0,0.0,0.0,0.0,0.0,0.0,-5.5111,-5.4246,-5.5281,-5.3881,-4.9774,0.0,0.0,0.0,0.0,0.0,0.0,0.0,0.0,0.0,0.0,0.0,0.0,0.0,0.0,0.0,0.0,0.0,0.0,0.0,0.0,0.0,0.0,0.0,0.0,0.0,0.0,0.0,0.0,0.0,0.0,0.0,0.0,0.0,0.0,0.0,0.0,0.0,0.0,0.0,0.0,0.0,0.0,0.0,0.0,0.0,0.0,0.0,0.0,0.0,0.0,0.0,0.0,0.0,0.0,0.0,0.0,0.0,0.0,0.0,0.0,0.0,0.0,0.0,0.0,0.0,0.0,0.0,0.0,0.0,0.0,0.0,0.0,0.0,0.0,0.0,0.0,0.0,0.0,0.0,0.0,0.0,0.0,0.0,0.0,0.0,0.0,0.0,0.0,0.0,0.0,0.0,0.0,0.0,0.0,0.0,0.0,0.0,0.0,0.0,0.0,0.0,0.0,0.0,0.0,0.0,0.0,0.0,0.0,0.0,0.0,0.0,0.0,-5.5919,-5.4582,-5.0076,0.0,0.0,0.0,0.0,0.0,0.0,0.0,0.0,0.0,0.0,0.0,0.0,0.0,0.0,0.0,0.0,0.0,0.0,0.0,0.0,0.0,0.0,0.0,0.0,0.0,0.0,0.0,0.0,0.0,0.0,0.0,0.0,0.0,0.0,0.0,0.0,0.0,0.0,0.0,0.0,0.0,0.0,0.0,0.0,0.0,0.0,0.0,0.0,0.0,0.0,0.0,0.0,0.0,0.0,0.0,0.0,0.0,0.0,0.0,0.0,0.0,0.0,0.0,0.0,0.0,0.0,0.0,0.0,0.0,0.0,0.0,0.0,0.0,0.0,0.0,0.0,0.0,0.0,0.0,0.0,0.0,0.0,0.0,0.0,0.0,0.0,0.0,0.0,0.0,0.0,0.0,0.0,0.0,0.0,0.0,0.0,0.0,0.0,0.0,0.0,0.0,0.0,0.0,0.0,0.0,0.0,0.0,0.0,0.0,0.0,-5.4071,-5.703,-5.6265,0.0,-5.0918,0.0,0.0,0.0,0.0,0.0,0.0,0.0,0.0,0.0,0.0,0.0,0.0,0.0,0.0,0.0,0.0,0.0,0.0,0.0,0.0,0.0,0.0,0.0,0.0,0.0,0.0,0.0,0.0,0.0,0.0,0.0,0.0,0.0,0.0,0.0,0.0,0.0,0.0,0.0,0.0,0.0,0.0,0.0,0.0,0.0,0.0,0.0,0.0,0.0,0.0,0.0,0.0,0.0,0.0,0.0,0.0,0.0,0.0,0.0,0.0,0.0,0.0,0.0,0.0,0.0,0.0,0.0,0.0,0.0,0.0,0.0,0.0,0.0,0.0,0.0,0.0,0.0,0.0,0.0,0.0,0.0,0.0,0.0,0.0,0.0,0.0,0.0,0.0,0.0,0.0,0.0,0.0,0.0,0.0,0.0,0.0,0.0,0.0,0.0,0.0,0.0,0.0,0.0,0.0,0.0,0.0,0.0,0.0,0.0,0.0,-5.4312,-5.6628,-5.5156,-5.2542,0.0,0.0,0.0,0.0,0.0,0.0,0.0,0.0,0.0,0.0,0.0,0.0,0.0,0.0,0.0,0.0,0.0,0.0,0.0,0.0,0.0,0.0,0.0,0.0,0.0,0.0,0.0,0.0,0.0,0.0,0.0,0.0,0.0,0.0,0.0,0.0,0.0,0.0,0.0,0.0,0.0,0.0,0.0,0.0,0.0,0.0,0.0,0.0,0.0,0.0,0.0,0.0,0.0,0.0,0.0,0.0,0.0,0.0,0.0,0.0,0.0,0.0,0.0,0.0,0.0,0.0,0.0,0.0,0.0,0.0,0.0,0.0,0.0,0.0,0.0,0.0,0.0,0.0,0.0,0.0,0.0,0.0,0.0,0.0,0.0,0.0,0.0,0.0,0.0,0.0,0.0,0.0,0.0,0.0,0.0,0.0,0.0,0.0,0.0,0.0,0.0,0.0,0.0,0.0,0.0,0.0,0.0,0.0,0.0,0.0,-5.3727,-5.4535,-5.5858,-5.364,-5.0889,-4.7875,0.0,0.0,0.0,0.0,0.0,0.0,0.0,0.0,0.0,0.0,0.0,0.0,0.0,0.0,0.0,0.0,0.0,0.0,0.0,0.0,0.0,0.0,0.0,0.0,0.0,0.0,0.0,0.0,0.0,0.0,0.0,0.0,0.0,0.0,0.0,0.0,0.0,0.0,0.0,0.0,0.0,0.0,0.0,0.0,0.0,0.0,0.0,0.0,0.0,0.0,0.0,0.0,0.0,0.0,0.0,0.0,0.0,0.0,0.0,0.0,0.0,0.0,0.0,0.0,0.0,0.0,0.0,0.0,0.0,0.0,0.0,0.0,0.0,0.0,0.0,0.0,0.0,0.0,0.0,0.0,0.0,0.0,0.0,0.0,0.0,0.0,0.0,0.0,0.0,0.0,0.0,0.0,0.0,0.0,0.0,0.0,0.0,0.0,0.0,0.0,0.0,0.0,0.0,0.0,0.0,0.0,0.0,0.0,-5.8359,-5.5489,-5.4519,-5.5862,-5.1914,-4.9608,0.0,0.0,0.0,0.0,0.0,0.0,0.0,0.0,0.0,0.0,0.0,0.0,0.0,0.0,0.0,0.0,0.0,0.0,0.0,0.0,0.0,0.0,0.0,0.0,0.0,0.0,0.0,0.0,0.0,0.0,0.0,0.0,0.0,0.0,0.0,0.0,0.0,0.0,0.0,0.0,0.0,0.0,0.0,0.0,0.0,0.0,0.0,0.0,0.0,0.0,0.0,0.0,0.0,0.0,0.0,0.0,0.0,0.0,0.0,0.0,0.0,0.0,0.0,0.0,0.0,0.0,0.0,0.0,0.0,0.0,0.0,0.0,0.0,0.0,0.0,0.0,0.0,0.0,0.0,0.0,0.0,0.0,0.0,0.0,0.0,0.0,0.0,0.0,0.0,0.0,0.0,0.0,0.0,0.0,0.0,0.0,0.0,0.0,0.0,0.0,0.0,0.0,0.0,0.0,0.0,0.0,0.0,0.0,0.0,-5.319,-5.4057,-5.4753,-5.5165,-5.2108,-4.9906,0.0,0.0,0.0,0.0,0.0,0.0,0.0,0.0,0.0,0.0,0.0,0.0,0.0,0.0,0.0,0.0,0.0,0.0,0.0,0.0,0.0,0.0,0.0,0.0,0.0,0.0,0.0,0.0,0.0,0.0,0.0,0.0,0.0,0.0,0.0,0.0,0.0,0.0,0.0,0.0,0.0,0.0,0.0,0.0,0.0,0.0,0.0,0.0,0.0,0.0,0.0,0.0,0.0,0.0,0.0,0.0,0.0,0.0,0.0,0.0,0.0,0.0,0.0,0.0,0.0,0.0,0.0,0.0,0.0,0.0,0.0,0.0,0.0,0.0,0.0,0.0,0.0,0.0,0.0,0.0,0.0,0.0,0.0,0.0,0.0,0.0,0.0,0.0,0.0,0.0,0.0,0.0,0.0,0.0,0.0,0.0,0.0,0.0,0.0,0.0,0.0,0.0,0.0,0.0,0.0,0.0,0.0,0.0,0.0,-5.1642,0.0,-5.5911,-5.4504,-5.2309,-4.9759,0.0,0.0,0.0,0.0,0.0,0.0,0.0,0.0,0.0,0.0,0.0,0.0,0.0,0.0,0.0,0.0,0.0,0.0,0.0,0.0,0.0,0.0,0.0,0.0,0.0,0.0,0.0,0.0,0.0,0.0,0.0,0.0,0.0,0.0,0.0,0.0,0.0,0.0,0.0,0.0,0.0,0.0,0.0,0.0,0.0,0.0,0.0,0.0,0.0,0.0,0.0,0.0,0.0,0.0,0.0,0.0,0.0,0.0,0.0,0.0,0.0,0.0,0.0,0.0,0.0,0.0,0.0,0.0,0.0,0.0,0.0,0.0,0.0,0.0,0.0,0.0,0.0,0.0,0.0,0.0,0.0,0.0,0.0,0.0,0.0,0.0,0.0,0.0,0.0,0.0,0.0,0.0,0.0,0.0,0.0,0.0,0.0,0.0,0.0,0.0,0.0,0.0,0.0,0.0,0.0,0.0,0.0,0.0,-5.0607,-5.4804,-5.802,-5.7663,-5.3899,-5.2291,-4.9013,0.0,0.0,0.0,0.0,0.0,0.0,0.0,0.0,0.0,0.0,0.0,0.0,0.0,0.0,0.0,0.0,0.0,0.0,0.0,0.0,0.0,0.0,0.0,0.0,0.0,0.0,0.0,0.0,0.0,0.0,0.0,0.0,0.0,0.0,0.0,0.0,0.0,0.0,0.0,0.0,0.0,0.0,0.0,0.0,0.0,0.0,0.0,0.0,0.0,0.0,0.0,0.0,0.0,0.0,0.0,0.0,0.0,0.0,0.0,0.0,0.0,0.0,0.0,0.0,0.0,0.0,0.0,0.0,0.0,0.0,0.0,0.0,0.0,0.0,0.0,0.0,0.0,0.0,0.0,0.0,0.0,0.0,0.0,0.0,0.0,0.0,0.0,0.0,0.0,0.0,0.0,0.0,0.0,0.0,0.0,0.0,0.0,0.0,0.0,0.0,0.0,0.0,0.0,0.0,0.0,0.0,0.0,0.0,0.0,-5.0607,-5.385,-5.551,-5.5238,-5.1792,-4.9465,0.0,0.0,0.0,0.0,0.0,0.0,0.0,0.0,0.0,0.0,0.0,0.0,0.0,0.0,0.0,0.0,0.0,0.0,0.0,0.0,0.0,0.0,0.0,0.0,0.0,0.0,0.0,0.0,0.0,0.0,0.0,0.0,0.0,0.0,0.0,0.0,0.0,0.0,0.0,0.0,0.0,0.0,0.0,0.0,0.0,0.0,0.0,0.0,0.0,0.0,0.0,0.0,0.0,0.0,0.0,0.0,0.0,0.0,0.0,0.0,0.0,0.0,0.0,0.0,0.0,0.0,0.0,0.0,0.0,0.0,0.0,0.0,0.0,0.0,0.0,0.0,0.0,0.0,0.0,0.0,0.0,0.0,0.0,0.0,0.0,0.0,0.0,0.0,0.0,0.0,0.0,0.0,0.0,0.0,0.0,0.0,0.0,0.0,0.0,0.0,0.0,0.0,0.0,0.0,0.0,0.0,0.0,0.0,0.0,-5.0174,-5.3894,-5.6015,-5.6128,-5.268,-5.023,-4.8994,0.0,0.0,0.0,0.0,0.0,0.0,0.0,0.0,0.0,0.0,0.0,0.0,0.0,0.0,0.0,0.0,0.0,0.0,0.0,0.0,0.0,0.0,0.0,0.0,0.0,0.0,0.0,0.0,0.0,0.0,0.0,0.0,0.0,0.0,0.0,0.0,0.0,0.0,0.0,0.0,0.0,0.0,0.0,0.0,0.0,0.0,0.0,0.0,0.0,0.0,0.0,0.0,0.0,0.0,0.0,0.0,0.0,0.0,0.0,0.0,0.0,0.0,0.0,0.0,0.0,0.0,0.0,0.0,0.0,0.0,0.0,0.0,0.0,0.0,0.0,0.0,0.0,0.0,0.0,0.0,0.0,0.0,0.0,0.0,0.0,0.0,0.0,0.0,0.0,0.0,0.0,0.0,0.0,0.0,0.0,0.0,0.0,0.0,0.0,0.0,0.0,0.0,0.0,0.0,0.0,0.0,0.0,0.0,-5.2451,-5.7394,-5.8812,-5.6446,-5.4547,-5.1293,0.0,0.0,0.0,0.0,0.0,0.0,0.0,0.0,0.0,0.0,0.0,0.0,0.0,0.0,0.0,0.0,0.0,0.0,0.0,0.0,0.0,0.0,0.0,0.0,0.0,0.0,0.0,0.0,0.0,0.0,0.0,0.0,0.0,0.0,0.0,0.0,0.0,0.0,0.0,0.0,0.0,0.0,0.0,0.0,0.0,0.0,0.0,0.0,0.0,0.0,0.0,0.0,0.0,0.0,0.0,0.0,0.0,0.0,0.0,0.0,0.0,0.0,0.0,0.0,0.0,0.0,0.0,0.0,0.0,0.0,0.0,0.0,0.0,0.0,0.0,0.0,0.0,0.0,0.0,0.0,0.0,0.0,0.0,0.0,0.0,0.0,0.0,0.0,0.0,0.0,0.0,0.0,0.0,0.0,0.0,0.0,0.0,0.0,0.0,0.0,0.0,0.0,0.0,0.0,0.0,0.0,0.0,0.0,0.0,-5.3262,-5.7636,-5.9421,-5.8149,-5.466,-5.2117,0.0,0.0,0.0,0.0,0.0,0.0,0.0,0.0,0.0,0.0,0.0,0.0,0.0,0.0,0.0,0.0,0.0,0.0,0.0,0.0,0.0,0.0,0.0,0.0,0.0,0.0,0.0,0.0,0.0,0.0,0.0,0.0,0.0,0.0,0.0,0.0,0.0,0.0,0.0,0.0,0.0,0.0,0.0,0.0,0.0,0.0,0.0,0.0,0.0,0.0,0.0,0.0,0.0,0.0,0.0,0.0,0.0,0.0,0.0,0.0,0.0,0.0,0.0,0.0,0.0,0.0,0.0,0.0,0.0,0.0,0.0,0.0,0.0,0.0,0.0,0.0,0.0,0.0,0.0,0.0,0.0,0.0,0.0,0.0,0.0,0.0,0.0,0.0,0.0,0.0,0.0,0.0,0.0,0.0,0.0,0.0,0.0,0.0,0.0,0.0,0.0,0.0,0.0,0.0,0.0,0.0,0.0,0.0,-5.2568,-5.3967,-5.7553,-5.9459,-5.9432,-5.627,-5.3682,0.0,0.0,0.0,0.0,0.0,0.0,0.0,0.0,0.0,0.0,0.0,0.0,0.0,0.0,0.0,0.0,0.0,0.0,0.0,0.0,0.0,0.0,0.0,0.0,0.0,0.0,0.0,0.0,0.0,0.0,0.0,0.0,0.0,0.0,0.0,0.0,0.0,0.0,0.0,0.0,0.0,0.0,0.0,0.0,0.0,0.0,0.0,0.0,0.0,0.0,0.0,0.0,0.0,0.0,0.0,0.0,0.0,0.0,0.0,0.0,0.0,0.0,0.0,0.0,0.0,0.0,0.0,0.0,0.0,0.0,0.0,0.0,0.0,0.0,0.0,0.0,0.0,0.0,0.0,0.0,0.0,0.0,0.0,0.0,0.0,0.0,0.0,0.0,0.0,0.0,0.0,0.0,0.0,0.0,0.0,0.0,0.0,0.0,0.0,0.0,0.0,0.0,0.0,0.0,0.0,0.0,0.0,0.0,-5.2724,-5.4529,-5.7243,-5.9066,-5.9803,-5.8087,-5.526,0.0,0.0,0.0,0.0,0.0,0.0,0.0,0.0,0.0,0.0,0.0,0.0,0.0,0.0,0.0,0.0,0.0,0.0,0.0,0.0,0.0,0.0,0.0,0.0,0.0,0.0,0.0,0.0,0.0,0.0,0.0,0.0,0.0,0.0,0.0,0.0,0.0,0.0,0.0,0.0,0.0,0.0,0.0,0.0,0.0,0.0,0.0,0.0,0.0,0.0,0.0,0.0,0.0,0.0,0.0,0.0,0.0,0.0,0.0,0.0,0.0,0.0,0.0,0.0,0.0,0.0,0.0,0.0,0.0,0.0,0.0,0.0,0.0,0.0,0.0,0.0,0.0,0.0,0.0,0.0,0.0,0.0,0.0,0.0,0.0,0.0,0.0,0.0,0.0,0.0,0.0,0.0,0.0,0.0,0.0,0.0,0.0,0.0,0.0,0.0,0.0,0.0,0.0,0.0,0.0,0.0,0.0,0.0,-5.2168,-5.3543,-5.679,-5.8363,-5.7999,-5.5688,-5.3772,0.0,0.0,0.0,0.0,0.0,0.0,0.0,0.0,0.0,0.0,0.0,0.0,0.0,0.0,0.0,0.0,0.0,0.0,0.0,0.0,0.0,0.0,0.0,0.0,0.0,0.0,0.0,0.0,0.0,0.0,0.0,0.0,0.0,0.0,0.0,0.0,0.0,0.0,0.0,0.0,0.0,0.0,0.0,0.0,0.0,0.0,0.0,0.0,-5.428,0.0,0.0,0.0,0.0,0.0,0.0,0.0,0.0,0.0,0.0,0.0,0.0,0.0,0.0,0.0,0.0,0.0,0.0,0.0,0.0,0.0,0.0,0.0,0.0,0.0,0.0,0.0,0.0,0.0,0.0,0.0,0.0,0.0,0.0,0.0,0.0,0.0,0.0,0.0,0.0,0.0,0.0,0.0,0.0,0.0,0.0,0.0,0.0,0.0,0.0,0.0,0.0,0.0,0.0,0.0,0.0,0.0,0.0,0.0,-5.1479,-5.292,-5.4987,-5.6153,-5.6149,-5.414,-5.2777,0.0,0.0,0.0,0.0,0.0,0.0,0.0,0.0,0.0,0.0,0.0,0.0,0.0,0.0,0.0,0.0,0.0,0.0,0.0,0.0,0.0,0.0,0.0,0.0,0.0,0.0,0.0,0.0,0.0,0.0,0.0,0.0,0.0,0.0,0.0,0.0,0.0,0.0,0.0,0.0,0.0,0.0,0.0,0.0,0.0,0.0,0.0,0.0,0.0,0.0,0.0,0.0,0.0,0.0,0.0,0.0,0.0,0.0,0.0,0.0,0.0,0.0,0.0,0.0,0.0,0.0,0.0,0.0,0.0,0.0,0.0,0.0,0.0,0.0,0.0,0.0,0.0,0.0,0.0,0.0,0.0,0.0,0.0,0.0,0.0,0.0,0.0,0.0,0.0,0.0,0.0,0.0,0.0,0.0,0.0,0.0,0.0,0.0,0.0,0.0,0.0,0.0,0.0,0.0,0.0,0.0,0.0,-4.9461,-5.0621,-5.2342,-5.2964,-5.3734,-5.4614,-5.2989,-5.1914,-5.153,0.0,0.0,0.0,0.0,0.0,0.0,0.0,0.0,0.0,0.0,0.0,0.0,0.0,0.0,0.0,0.0,0.0,0.0,0.0,0.0,0.0,0.0,0.0,0.0,0.0,0.0,0.0,0.0,0.0,0.0,0.0,0.0,0.0,0.0,0.0,0.0,0.0,0.0,-5.3224,-5.5551,0.0,0.0,0.0,0.0,0.0,0.0,0.0,0.0,-5.5775,0.0,0.0,0.0,0.0,0.0,0.0,0.0,0.0,0.0,0.0,0.0,0.0,0.0,0.0,0.0,0.0,0.0,0.0,0.0,0.0,0.0,0.0,0.0,0.0,0.0,0.0,0.0,0.0,0.0,0.0,0.0,0.0,0.0,0.0,0.0,0.0,0.0,0.0,0.0,0.0,0.0,0.0,0.0,0.0,0.0,0.0,0.0,0.0,0.0,0.0,0.0,0.0,0.0,0.0,0.0,0.0,-4.9386,-4.8626,-4.9282,-5.1465,-5.2313,-5.3019,-5.3562,-5.1963,-5.0718,-4.9979,0.0,0.0,0.0,0.0,0.0,0.0,0.0,0.0,0.0,0.0,0.0,0.0,0.0,0.0,0.0,0.0,0.0,0.0,0.0,0.0,0.0,0.0,0.0,0.0,0.0,0.0,0.0,0.0,0.0,0.0,0.0,0.0,0.0,0.0,0.0,0.0,0.0,0.0,0.0,-5.7979,-5.9368,0.0,0.0,0.0,0.0,0.0,0.0,0.0,0.0,-5.5903,0.0,0.0,0.0,0.0,0.0,0.0,0.0,0.0,0.0,0.0,0.0,0.0,0.0,0.0,0.0,0.0,0.0,0.0,0.0,0.0,0.0,0.0,0.0,0.0,0.0,0.0,0.0,0.0,0.0,0.0,0.0,0.0,0.0,0.0,0.0,0.0,0.0,0.0,0.0,0.0,0.0,0.0,0.0,0.0,0.0,0.0,0.0,0.0,0.0,0.0,0.0,0.0,0.0,0.0,0.0,-4.7419,-4.7285,-4.7885,-4.9372,-4.981,-5.0153,-5.0466,-4.9473,-4.8747,0.0,0.0,0.0,0.0,0.0,0.0,0.0,0.0,0.0,0.0,0.0,0.0,0.0,0.0,0.0,0.0,0.0,0.0,0.0,0.0,0.0,0.0,0.0,0.0,0.0,0.0,0.0,0.0,0.0,0.0,0.0,0.0,0.0,0.0,0.0,0.0,0.0,0.0,0.0,0.0,-5.8615,-5.974,-6.1015,0.0,0.0,0.0,0.0,0.0,0.0,-5.5527,-5.5382,0.0,0.0,0.0,0.0,0.0,0.0,0.0,0.0,0.0,0.0,0.0,0.0,0.0,0.0,0.0,0.0,0.0,0.0,0.0,0.0,0.0,0.0,0.0,0.0,0.0,0.0,0.0,0.0,0.0,0.0,0.0,0.0,0.0,0.0,0.0,0.0,0.0,0.0,0.0,0.0,0.0,0.0,0.0,0.0,0.0,0.0,0.0,0.0,0.0,0.0,0.0,0.0,0.0,0.0,0.0,-4.5336,-4.5882,-4.6559,-4.7402,-4.7413,-4.7503,-4.7732,-4.7319,-4.7011,0.0,0.0,0.0,0.0,0.0,0.0,0.0,0.0,0.0,0.0,0.0,0.0,0.0,0.0,0.0,0.0,0.0,0.0,0.0,0.0,0.0,0.0,0.0,0.0,0.0,0.0,0.0,0.0,0.0,0.0,0.0,0.0,0.0,0.0,0.0,0.0,0.0,0.0,0.0,0.0,0.0,-5.9747,-6.108,-5.9803,0.0,0.0,0.0,0.0,-5.5751,-5.6177,0.0,0.0,0.0,0.0,0.0,0.0,0.0,0.0,0.0,0.0,0.0,0.0,0.0,0.0,0.0,0.0,0.0,0.0,0.0,0.0,0.0,0.0,0.0,0.0,0.0,0.0,0.0,0.0,0.0,0.0,0.0,0.0,0.0,0.0,0.0,0.0,0.0,0.0,0.0,0.0,0.0,0.0,0.0,0.0,0.0,0.0,0.0,0.0,0.0,0.0,0.0,0.0,0.0,0.0,0.0,0.0,-4.4147,-4.467,-4.5483,-4.6568,-4.6642,-4.6944,-4.7586,-4.6954,-4.6384,0.0,0.0,0.0,0.0,0.0,0.0,0.0,0.0,0.0,0.0,0.0,0.0,0.0,0.0,0.0,0.0,0.0,0.0,0.0,0.0,0.0,0.0,0.0,0.0,0.0,0.0,0.0,0.0,0.0,0.0,0.0,0.0,0.0,0.0,0.0,0.0,0.0,0.0,0.0,0.0,0.0,-5.9887,-5.8041,-5.8713,-5.8536,0.0,0.0,-5.8091,-5.8117,-6.0224,0.0,0.0,0.0,0.0,0.0,0.0,0.0,0.0,0.0,0.0,0.0,0.0,0.0,0.0,0.0,0.0,0.0,0.0,0.0,0.0,0.0,0.0,0.0,0.0,0.0,0.0,0.0,0.0,0.0,0.0,0.0,0.0,0.0,0.0,0.0,0.0,0.0,0.0,0.0,0.0,0.0,0.0,0.0,0.0,0.0,0.0,0.0,0.0,0.0,0.0,0.0,0.0,0.0,0.0,0.0,-4.2289,-4.288,-4.3613,-4.4262,-4.4779,-4.4987,-4.5241,-4.5545,-4.5239,-4.4997,0.0,0.0,0.0,0.0,0.0,0.0,0.0,0.0,0.0,0.0,0.0,0.0,0.0,0.0,0.0,0.0,0.0,0.0,0.0,0.0,0.0,0.0,0.0,0.0,0.0,0.0,0.0,0.0,0.0,0.0,0.0,0.0,0.0,0.0,0.0,0.0,0.0,0.0,0.0,0.0,0.0,0.0,-5.8576,-5.9513,0.0,0.0,0.0,-5.823,-5.7832,0.0,0.0,0.0,0.0,0.0,0.0,0.0,0.0,0.0,0.0,0.0,0.0,0.0,0.0,0.0,0.0,0.0,0.0,0.0,0.0,0.0,0.0,0.0,0.0,0.0,0.0,0.0,0.0,0.0,0.0,0.0,0.0,0.0,0.0,0.0,0.0,0.0,0.0,0.0,0.0,0.0,0.0,0.0,0.0,0.0,0.0,0.0,0.0,0.0,0.0,0.0,0.0,0.0,0.0,0.0,0.0,0.0,-4.2015,-4.2986,-4.3479,-4.3496,-4.3724,-4.3909,-4.3998,-4.3885,0.0,0.0,0.0,0.0,0.0,0.0,0.0,0.0,0.0,0.0,0.0,0.0,0.0,0.0,0.0,0.0,0.0,0.0,0.0,0.0,0.0,0.0,0.0,0.0,0.0,0.0,0.0,-4.4902,0.0,0.0,0.0,0.0,0.0,0.0,0.0,0.0,0.0,0.0,0.0,0.0,0.0,0.0,-5.7857,-5.8473,-5.9838,-6.0262,0.0,0.0,-5.8655,-5.7911,-5.9086,-5.861,0.0,0.0,0.0,0.0,0.0,0.0,0.0,0.0,0.0,0.0,0.0,0.0,0.0,0.0,0.0,0.0,0.0,0.0,0.0,0.0,0.0,0.0,0.0,0.0,0.0,0.0,0.0,0.0,0.0,0.0,0.0,0.0,0.0,0.0,0.0,0.0,0.0,0.0,0.0,0.0,0.0,0.0,0.0,0.0,0.0,0.0,0.0,0.0,0.0,0.0,0.0,0.0,0.0,0.0,-4.199,-4.204,-4.2986,-4.3479,-4.3479,-4.3513,-4.3695,-4.3964,-4.3592,-4.3171,0.0,0.0,0.0,0.0,0.0,0.0,0.0,0.0,0.0,0.0,0.0,0.0,0.0,0.0,0.0,0.0,0.0,0.0,0.0,0.0,0.0,0.0,0.0,0.0,0.0,0.0,0.0,0.0,0.0,0.0,0.0,0.0,0.0,0.0,0.0,0.0,0.0,0.0,0.0,0.0,0.0,-5.5915,-5.5934,-5.8723,-6.0473,0.0,-6.0108,-6.035,-5.9457,-6.22,-6.1963,-5.461,0.0,0.0,0.0,0.0,0.0,0.0,0.0,0.0,0.0,0.0,0.0,0.0,0.0,0.0,0.0,0.0,0.0,0.0,0.0,0.0,0.0,0.0,0.0,0.0,0.0,0.0,0.0,0.0,0.0,0.0,0.0,0.0,0.0,0.0,0.0,0.0,0.0,0.0,0.0,0.0,0.0,0.0,0.0,0.0,0.0,0.0,0.0,0.0,0.0,0.0,0.0,0.0,0.0,-4.1412,-4.1725,-4.1918,-4.2506,-4.3423,-4.302,-4.3068,-4.3677,-4.3733,-4.298,0.0,0.0,0.0,0.0,0.0,0.0,0.0,0.0,0.0,0.0,0.0,0.0,0.0,0.0,0.0,0.0,0.0,0.0,0.0,0.0,0.0,0.0,0.0,0.0,0.0,0.0,0.0,0.0,-4.3864,-4.4081,-4.434,0.0,0.0,0.0,0.0,0.0,0.0,0.0,0.0,0.0,0.0,-5.4989,-5.6274,-5.8029,0.0,0.0,-5.8776,-5.8713,-5.8374,-5.9281,-5.8307,-5.3272,-5.2666,0.0,0.0,0.0,0.0,0.0,0.0,0.0,0.0,0.0,0.0,0.0,0.0,0.0,0.0,0.0,0.0,0.0,0.0,0.0,0.0,0.0,0.0,0.0,0.0,0.0,0.0,0.0,0.0,0.0,0.0,0.0,0.0,0.0,0.0,0.0,0.0,0.0,0.0,0.0,0.0,0.0,0.0,0.0,0.0,0.0,0.0,0.0,0.0,0.0,0.0,0.0,0.0,-4.1218,-4.1599,-4.1744,-4.2249,-4.3129,-4.2818,-4.2818,-4.3129,-4.3468,-4.2758,0.0,0.0,0.0,0.0,0.0,0.0,0.0,0.0,0.0,0.0,0.0,0.0,0.0,0.0,0.0,0.0,0.0,0.0,0.0,0.0,0.0,0.0,0.0,0.0,0.0,0.0,0.0,0.0,-4.4653,-4.4752,-4.4368,0.0,0.0,0.0,0.0,0.0,0.0,0.0,0.0,0.0,0.0,-5.4054,-5.6234,-5.7274,-5.7763,-5.7498,-5.7244,-5.6963,-5.6735,-5.6675,-5.549,-5.2097,0.0,0.0,0.0,0.0,0.0,0.0,0.0,0.0,0.0,0.0,0.0,0.0,0.0,0.0,0.0,0.0,0.0,0.0,0.0,0.0,0.0,0.0,0.0,0.0,0.0,0.0,0.0,-4.4064,0.0,0.0,-4.4011,0.0,0.0,0.0,0.0,0.0,0.0,0.0,0.0,0.0,0.0,0.0,0.0,0.0,0.0,0.0,0.0,0.0,0.0,0.0,0.0,0.0,0.0,-4.1543,-4.1622,-4.2687,-4.3002,-4.2378,-4.3074,-4.3057,-4.2341,-4.264,-4.2426,-4.1557,0.0,0.0,0.0,0.0,0.0,0.0,0.0,0.0,0.0,0.0,0.0,0.0,0.0,0.0,0.0,0.0,0.0,0.0,0.0,0.0,0.0,0.0,0.0,0.0,0.0,0.0,-4.5771,-4.5164,-4.4331,0.0,0.0,0.0,0.0,0.0,0.0,0.0,0.0,0.0,-4.9183,-5.0971,-5.2915,-5.533,-5.6441,-5.6649,-5.5929,-5.581,-5.5542,-5.4764,-5.529,-5.4692,0.0,0.0,0.0,0.0,0.0,0.0,0.0,0.0,0.0,0.0,0.0,0.0,0.0,0.0,0.0,0.0,0.0,0.0,0.0,0.0,0.0,0.0,0.0,0.0,0.0,0.0,0.0,-4.5166,-4.438,0.0,0.0,0.0,0.0,0.0,0.0,0.0,0.0,0.0,0.0,0.0,-4.2294,-4.2361,0.0,0.0,0.0,0.0,0.0,0.0,0.0,0.0,0.0,0.0,0.0,0.0,-4.0372,-4.1209,-4.1174,-4.1497,-4.2268,-4.2047,-4.1601,-4.1015,-4.1939,-4.1912,-4.076,0.0,0.0,0.0,0.0,0.0,0.0,0.0,0.0,0.0,0.0,0.0,0.0,0.0,0.0,0.0,0.0,0.0,0.0,0.0,0.0,0.0,0.0,0.0,0.0,0.0,-4.5631,0.0,0.0,0.0,0.0,0.0,0.0,0.0,0.0,0.0,0.0,0.0,-4.6624,-4.8811,-5.005,-5.135,-5.3032,-5.3495,-5.3589,0.0,0.0,0.0,0.0,0.0,0.0,0.0,0.0,0.0,0.0,0.0,0.0,0.0,0.0,-5.5261,-5.2198,-5.0957,-5.0455,-5.0753,0.0,0.0,0.0,0.0,0.0,0.0,0.0,0.0,0.0,0.0,0.0,0.0,0.0,0.0,-4.4268,0.0,-4.3208,0.0,0.0,0.0,0.0,0.0,0.0,0.0,0.0,-4.2049,-4.2166,-4.1928,-4.1882,-4.2372,0.0,-4.2821,-4.2386,0.0,0.0,0.0,0.0,0.0,0.0,0.0,0.0,-4.0189,-4.0804,-4.086,-4.133,-4.2214,-4.1792,-4.1114,-4.0348,-4.1141,-4.0939,-3.951,-3.8994,-3.794,0.0,0.0,0.0,0.0,0.0,0.0,0.0,0.0,0.0,0.0,0.0,0.0,0.0,0.0,0.0,0.0,0.0,0.0,0.0,0.0,0.0,0.0,0.0,-4.4861,0.0,0.0,0.0,0.0,0.0,0.0,0.0,0.0,0.0,-4.5462,-4.5731,-4.6653,-4.8841,-4.9602,-5.0416,-5.1797,0.0,0.0,0.0,0.0,0.0,0.0,0.0,-5.1712,-5.0892,-5.0727,-5.0781,-5.0874,-5.266,-5.3968,-5.3666,0.0,0.0,-5.3514,-5.2525,-5.202,-5.2039,-5.1327,-5.0683,-5.0683,-5.0914,-5.1125,0.0,0.0,0.0,0.0,0.0,0.0,0.0,0.0,-4.2227,-4.2329,0.0,-4.2345,0.0,0.0,0.0,0.0,-4.1785,-4.198,0.0,0.0,-4.1128,-4.0857,-4.018,-4.0222,-4.0495,-4.1029,-4.2575,-4.276,-4.1874,-4.2184,0.0,0.0,0.0,0.0,0.0,0.0,-4.0979,-4.0347,-4.1772,-4.2485,-4.2235,-4.2197,-4.1589,-4.0294,-4.0221,-3.95,-3.8091,-3.9399,-3.8803,-3.582,-3.8452,0.0,0.0,0.0,0.0,0.0,0.0,0.0,0.0,0.0,0.0,0.0,0.0,0.0,0.0,0.0,0.0,0.0,0.0,0.0,0.0,-4.3156,0.0,0.0,0.0,0.0,0.0,0.0,0.0,0.0,0.0,0.0,-4.5084,-4.5595,-4.6783,-4.9225,0.0,0.0,0.0,0.0,-5.0729,-5.0692,-5.0747,-5.0765,-5.0747,-5.141,-5.163,-5.0914,0.0,0.0,-5.1491,-5.2316,-5.2834,-5.2059,-5.3289,-5.5044,-5.6821,-5.5545,-5.4472,-5.4337,-5.251,-5.0962,-5.0846,-5.1491,-5.1942,-4.421,0.0,0.0,0.0,0.0,-4.181,-4.2133,-4.2668,-4.275,-4.2451,-4.1914,-4.195,0.0,0.0,0.0,0.0,0.0,0.0,-4.0927,-4.037,-4.0909,-4.1085,-4.0899,-4.1407,-4.1748,-4.1895,-4.1861,-4.1896,-4.1986,-4.1551,-4.1199,-4.0998,0.0,0.0,0.0,0.0,-3.9352,-3.9765,-4.0686,-4.1067,-4.0799,-4.0817,-4.0365,-3.9463,-3.8741,-3.8311,-3.8251,-3.9027,-3.8894,-3.7661,-3.8191,0.0,0.0,0.0,0.0,0.0,0.0,0.0,0.0,0.0,0.0,0.0,0.0,0.0,0.0,0.0,0.0,0.0,0.0,0.0,-4.2881,-4.2229,-4.2159,0.0,0.0,0.0,0.0,0.0,0.0,0.0,0.0,0.0,-4.4735,-4.5477,-4.6581,0.0,0.0,-4.8838,-4.9315,-4.915,-4.9022,-4.9022,-4.9536,0.0,-4.9959,-5.0086,-5.0343,-5.0729,-5.1206,-5.1357,-5.1018,-5.125,-5.1397,-5.1156,-5.1747,-5.251,-5.3088,-5.4432,-5.5036,-5.4587,-5.3876,-5.3183,-5.2645,-5.2683,-5.2799,-4.4663,-4.3075,-4.2786,-4.223,-4.1569,-4.1574,-4.1667,-4.187,-4.1853,-4.1568,-4.1142,-4.1368,-4.0726,-3.9549,-4.0023,0.0,0.0,0.0,-4.04,-4.0113,-4.057,-4.0764,-4.0798,-4.1204,-4.1433,-4.1407,-4.0967,-4.0951,-4.1297,-4.0817,-4.0543,-4.0403,0.0,0.0,-3.8912,-3.9193,-3.9403,-3.9638,-4.0056,-4.0329,-4.0389,-3.9608,-3.8817,-3.8052,-3.7729,-3.7596,-3.7622,-3.8394,-3.8384,-3.7469,-3.7849,-3.754,0.0,0.0,0.0,0.0,0.0,0.0,0.0,0.0,0.0,0.0,0.0,-4.0458,-4.0443,0.0,0.0,0.0,-3.9777,-4.0787,-4.198,-4.1537,0.0,0.0,0.0,0.0,0.0,0.0,0.0,-4.3804,-4.3612,-4.3791,-4.4599,-4.5112,-4.603,-4.7609,-4.7553,-4.7572,-4.8214,0.0,-4.8048,-4.871,-4.928,-4.9721,-5.0013,-5.0031,-5.0196,-5.071,-5.082,-5.082,-5.082,-5.082,-5.082,-5.0844,-5.112,-5.1297,-5.098,-5.2494,-5.3673,-5.3299,-5.3121,-5.2722,-5.1856,-5.1683,-5.1779,-4.4733,-4.3242,-4.2632,-4.1957,-4.1221,-4.1153,-4.0739,-4.0113,-4.0113,-4.0065,-4.0045,-4.0523,-4.0287,-3.9556,-3.9539,0.0,-3.9944,-3.9995,-3.9995,-4.0003,-4.0087,-4.0113,-4.0113,-4.0113,-4.0113,-4.0113,-4.0113,-4.0113,-4.0113,-4.0113,-4.0113,-4.0121,-4.1075,-4.0946,-3.9754,-4.0314,-4.0297,-3.9553,-3.9605,-3.9918,-4.0391,-3.8524,-3.7168,-3.6468,-3.7074,-3.7105,-3.6423,-3.7567,-3.7522,-3.6089,-3.7327,-3.7046,-3.4804,0.0,0.0,0.0,0.0,0.0,0.0,0.0,0.0,0.0,0.0,0.0,0.0,0.0,0.0,0.0,-3.764,0.0,-4.0193,-4.1026,0.0,0.0,0.0,-4.3661,-4.2924,-4.3238,-4.3479,-4.3479,0.0,0.0,-4.4507,-4.4599,-4.5149,-4.6617,-4.6305,-4.6434,-4.7902,-4.7443,-4.7572,-4.8913,-4.9262,-4.9574,-5.0031,-5.0215,-5.016,-5.0105,-5.0398,-5.0233,-5.0215,-5.0233,-5.0343,-5.0196,-5.0676,-5.0668,-4.9978,-5.015,-5.0558,-5.0818,-5.0768,-5.0356,-4.9615,-4.9433,-4.9663,-4.4431,-4.2522,-4.2953,-4.2361,-4.117,-4.0578,-4.0265,-4.0113,-4.0113,-3.9737,-3.9182,-3.9305,-3.8956,-3.827,-3.8258,-3.829,-3.839,-3.8924,-3.9166,-3.9236,-3.9808,-4.0113,-4.0113,-4.0113,-4.0113,-4.0113,-4.0113,-4.0113,-4.0113,-4.0113,-4.0113,-4.0087,-3.9822,-3.9221,-3.8397,-3.8527,-3.8261,-3.7535,-3.8074,-3.8317,-3.8254,-3.7224,-3.6606,-3.6412,-3.6182,-3.5975,-3.5805,-3.6485,-3.6687,-3.6304,-3.5881,-3.5112,-3.3937,-3.404,0.0,0.0,0.0,0.0,0.0,0.0,0.0,0.0,0.0,-3.9908,-3.8245,0.0,-4.0151,0.0,-3.7533,-3.8422,-4.0688,-4.0554,0.0,0.0,-4.3441,-4.354,-4.3356,-4.3437,-4.3479,-4.3479,-4.3479,-4.3588,-4.3754,-4.3773,-4.3901,-4.4305,-4.5259,-4.603,-4.6416,-4.6324,-4.6305,-4.6728,-4.6856,-4.7058,-4.7846,-4.7975,-4.781,-4.715,-4.7095,-4.7058,-4.7076,-4.7076,-4.7076,-4.7058,-4.7132,-4.7131,-4.7002,-4.7252,-4.7554,-4.7706,-4.851,-4.9152,-4.8539,-4.8385,-4.8471,-4.2686,-4.1249,-4.1346,-4.1134,-4.0699,-4.0644,-4.0205,-3.9568,-3.9568,-3.8951,-3.7873,-3.7889,-3.7831,-3.7822,-3.7822,-3.7822,-3.7835,-3.8218,-3.843,-3.8442,-3.887,-3.9092,-3.9076,-3.9411,-3.9568,-3.9584,-3.9927,-3.9926,-3.9639,-3.958,-3.9428,-3.9106,-3.8717,-3.8142,-3.7466,-3.7736,-3.7855,-3.7777,-3.7516,-3.7154,-3.6644,-3.6255,-3.6049,-3.6032,-3.5761,-3.5447,-3.5131,-3.5386,-3.5557,-3.5561,-3.5223,-3.4668,-3.3878,-3.37,-3.3051,0.0,0.0,0.0,0.0,0.0,0.0,0.0,0.0,0.0,0.0,0.0,-3.9129,-3.8448,-3.7746,-3.8554,-4.154,-4.1066,-4.1352,-4.3278,-4.3479,-4.3479,-4.3479,-4.3479,-4.3479,-4.3479,-4.3479,-4.3479,-4.3479,-4.3479,-4.3479,-4.3479,-4.4268,-4.4947,-4.5296,-4.5351,-4.548,-4.5828,-4.5902,-4.6049,-4.6507,-4.6562,-4.6434,-4.6012,-4.5902,-4.5902,-4.5902,-4.5902,-4.5902,-4.5902,-4.5902,-4.5773,-4.5479,-4.5545,-4.5651,-4.5538,-4.6083,-4.6727,-4.7022,-4.6803,-4.6634,-4.0492,-3.9647,-3.9115,-3.9237,-3.9869,-4.0475,-4.0037,-3.8924,-3.8924,-3.8044,-3.66,-3.6492,-3.6874,-3.7501,-3.7501,-3.7501,-3.7517,-3.7602,-3.7632,-3.7661,-3.7764,-3.7822,-3.7835,-3.8469,-3.8706,-3.8668,-3.9339,-3.9303,-3.8597,-3.8597,-3.8302,-3.7769,-3.7684,-3.7395,-3.6981,-3.7398,-3.7939,-3.8531,-3.7405,-3.6451,-3.5769,-3.5752,-3.5735,-3.5735,-3.5566,-3.5143,-3.4523,-3.4489,-3.4489,-3.451,-3.4943,-3.4844,-3.4061,-3.3701,-3.3177,0.0,-3.2417,0.0,0.0,0.0,0.0,0.0,0.0,0.0,0.0,-3.7101,-3.7488,-3.9213,-3.809,-3.8602,-4.1855,-4.1519,-4.1633,-4.2918,-4.3168,-4.3203,-4.3185,-4.3185,-4.3185,-4.3185,-4.3203,-4.3185,-4.313,-4.3277,-4.3349,-4.3331,-4.3496,-4.3864,-4.4397,-4.4562,-4.4782,-4.5516,-4.559,-4.5424,-4.5498,-4.5553,-4.5535,-4.5535,-4.5461,-4.559,-4.548,-4.5516,-4.5553,-4.5553,-4.548,-4.5296,-4.4672,-4.4544,-4.4426,-4.409,-4.4141,-4.4509,-4.5356,-4.5262,-4.496,-3.9865,-3.8122,-3.8685,-3.8643,-3.8228,-3.8387,-3.8628,-3.8924,-3.8924,-3.8044,-3.6569,-3.5975,-3.5797,-3.5926,-3.5941,-3.5926,-3.5973,-3.6538,-3.6828,-3.6843,-3.7515,-3.7822,-3.7806,-3.795,-3.7729,-3.7222,-3.7344,-3.707,-3.6399,-3.6399,-3.6623,-3.6978,-3.6415,-3.6643,-3.7577,0.0,0.0,0.0,-3.6603,-3.6728,-3.6586,-3.6569,-3.6575,-3.6535,-3.5368,0.0,-3.4489,-3.4489,-3.4489,-3.451,-3.458,0.0,0.0,0.0,0.0,0.0,0.0,0.0,0.0,0.0,0.0,0.0,-3.6631,-3.6273,-3.6291,-3.6773,-3.7516,-3.8468,-3.8325,-3.8435,-3.9119,-3.9408,-3.9914,-4.0781,-4.1279,-4.1535,-4.1535,-4.1572,-4.157,-4.157,-4.157,-4.1572,-4.1662,-4.2121,-4.2525,-4.2598,-4.3075,-4.3534,-4.3681,-4.3736,-4.3809,-4.3955,-4.4084,-4.3993,-4.3956,-4.4011,-4.4085,-4.3955,-4.3956,-4.3975,-4.403,-4.4011,-4.3975,-4.4011,-4.3956,-4.3956,-4.379,-4.3718,-4.3752,-4.3599,-4.3597,-4.3844,-4.4635,-4.4725,-4.4656,-3.7926,-3.6636,-3.7048,-3.7217,0.0,-3.7219,-3.744,-3.7758,-3.7758,-3.7144,-3.6023,-3.5668,-3.5489,-3.5489,-3.5489,-3.5489,-3.5504,-3.5894,-3.6054,-3.6086,-3.6477,-3.6662,-3.6646,-3.6711,-3.654,-3.6235,-3.6282,-3.5936,-3.5278,-3.5246,-3.5255,-3.521,-3.4852,-3.521,-3.62,-3.5482,-3.4937,-3.4609,-3.5345,-3.5404,-3.4771,-3.5364,-3.5713,-3.5696,-3.5279,0.0,0.0,0.0,0.0,0.0,0.0,0.0,0.0,-3.2738,0.0,-3.1612,-3.2094,-3.2588,-3.3006,-3.3717,-3.4287,-3.4725,-3.4703,-3.4918,-3.55,-3.6328,-3.7018,-3.7554,-3.7619,-3.7885,-3.847,-3.879,-3.9285,-4.0185,-4.0544,-4.0788,-4.1044,-4.1113,-4.1113,-4.1113,-4.1113,-4.1113,-4.1113,-4.1407,-4.1882,-4.2249,-4.2635,-4.291,-4.2947,-4.3276,-4.3479,-4.3479,-4.3479,-4.3479,-4.3479,-4.3479,-4.3479,-4.3479,-4.3479,-4.3479,-4.3479,-4.3479,-4.3479,-4.3479,-4.3479,-4.3479,-4.3479,-4.3479,-4.3479,-4.3479,-4.3479,-4.358,-4.4008,-4.405,-4.4125,-3.6103,-3.5504,-3.5489,-3.5863,-3.6415,-3.6384,-3.6415,-3.6415,0.0,0.0,0.0,-3.5489,-3.5489,-3.5489,-3.5489,-3.5489,-3.5489,-3.5489,-3.5489,-3.5489,-3.5489,-3.5444,-3.5327,-3.537,-3.5275,-3.5043,-3.5162,-3.4852,-3.4175,-3.4116,-3.3911,-3.3465,-3.3417,-3.3811,-3.4552,-3.4616,-3.4206,-3.3501,-3.4321,-3.4194,-3.3039,-3.4023,-3.4552,-3.4455,-3.4715,-3.4583,-3.4002,-3.408,-3.3829,-3.3125,-3.3192,-3.2899,-3.2201,-3.2133,-3.1854,-3.1292,-3.1769,-3.1904,-3.1464,-3.2527,-3.3,-3.253,-3.3051,-3.3811,-3.4826,-3.5487,-3.5955,-3.6175,-3.6203,-3.6633,-3.7672,-3.7975,-3.8397,-3.9173,-3.9409,-3.9715,-4.0235,-4.0337,-4.028,-4.0602,-4.06,-4.0673,-4.0618,-4.0783,-4.113,-4.1699,-4.1956,-4.2103,-4.2194,-4.2727,-4.3294,-4.3442,-4.3479,-4.3479,-4.3479,-4.3479,-4.3479,-4.3479,-4.3479,-4.3479,-4.3479,-4.3479,-4.3479,-4.3479,-4.3479,-4.3479,-4.3479,-4.3479,-4.3479,-4.3479,-4.3479,-4.3479,-4.3479,-4.3496,-4.3595,-3.6103,-3.5489,-3.5489,-3.5554,-3.5636,-3.5636,-3.5651,-3.5636,-3.5636,-3.5587,-3.5489,-3.5489,-3.5489,-3.5489,-3.5489,-3.5489,-3.5489,-3.5489,-3.5489,-3.5489,-3.5489,-3.519,-3.4668,-3.4628,-3.4044,-3.3006,-3.2974,-3.2595,-3.2021,-3.196,-3.2196,-3.2668,-3.2749,-3.3365,-3.4503,-3.4616,-3.3973,-3.2812,-3.4595,-3.5144,-3.4348,-3.4567,-3.4423,-3.3822,-3.2708,-3.2054,-3.1933,-3.249,-3.2466,-3.1837,-3.2377,-3.2338,-3.1576,-3.1504,-3.1429,-3.1235,-3.1292,-3.1582,-3.2073,-3.2344,-3.2679,-3.3203,-3.3355,-3.3478,-3.3626,-3.3748,-3.3846,-3.3897,-3.3981,-3.3918,-3.4202,-3.5198,-3.5702,-3.5343,-3.6036,-3.6827,-3.7418,-3.7557,-3.7944,-3.8923,-3.904,-3.9077,-3.9224,-3.968,-4.012,-4.0341,-4.0928,-4.1279,-4.1444,-4.1939,-4.2727,-4.3296,-4.3479,-4.3479,-4.3406,-4.3479,-4.3479,-4.3479,-4.3479,-4.3479,-4.3479,-4.3479,-4.3479,-4.3479,-4.3479,-4.3479,-4.3479,-4.3479,-4.3479,-4.3479,-4.3479,-4.3479,-4.3479,-4.3479,-4.3513,-3.5774,-3.5504,-3.5489,-3.5489,-3.5489,-3.5489,-3.5489,-3.5489,-3.5489,-3.5489,-3.5489,-3.5489,-3.5489,-3.5489,-3.5489,-3.5489,-3.5489,-3.5489,-3.5489,-3.5474,-3.5115,-3.4786,-3.4459,-3.3754,-3.311,-3.2482,-3.2123,-3.1795,-3.1525,-3.1496,-3.1668,-3.2007,-3.241,-3.2922,-3.3463,-3.3138,-3.2645,-3.2063,-3.367,-3.3838,-3.2416,-3.3159,-3.3242,-3.2562,-3.2217,-3.1919,-3.1574,-3.1855,-3.1694,-3.0973,-3.1262,-3.1075,-3.0272,-3.0594,-3.0742,-3.0627,-3.0598,-3.0751,-3.1072,-3.1106,-3.1258,-3.1596,-3.1985,-3.2205,-3.2205,-3.2966,-3.3389,-3.3389,-3.3389,-3.3389,-3.3406,-3.3945,-3.4263,-3.4218,-3.4728,-3.5222,-3.5703,-3.6164,-3.673,-3.7546,-3.8029,-3.8382,-3.8658,-3.9019,-3.946,-3.9808,-4.0267,-4.0598,-4.0967,-4.102,-4.1295,-4.2084,-4.291,-4.324,-4.2983,-4.324,-4.3442,-4.3479,-4.3479,-4.3479,-4.3479,-4.3479,-4.3479,-4.3479,-4.3479,-4.3479,-4.3479,-4.3479,-4.3479,-4.3479,-4.3479,-4.3479,-4.3479,-4.3479,-4.3479,-3.5489,-3.5489,-3.5489,-3.5489,-3.5489,-3.5489,-3.5489,-3.5489,-3.5489,-3.5489,-3.5489,-3.5489,-3.5489,-3.5489,-3.5489,-3.5489,-3.5489,-3.5489,-3.5415,-3.522,-3.4758,-3.4354,-3.3963,-3.2961,-3.2452,-3.2228,-3.1735,-3.1496,-3.1496,-3.1496,-3.1496,-3.1553,-3.2064,-3.2437,-3.2586,-3.2086,-3.1742,-3.1609,-3.2596,-3.2222,-3.0389,-3.1374,-3.1604,-3.1019,-3.1377,-3.1469,-3.0972,-3.1067,-3.0805,-3.0141,-2.9935,-2.9523,-2.889,-2.9197,-2.951,-2.964,-2.9669,-2.9724,-2.9835,-2.9854,-2.9922,-3.0108,-3.0463,-3.0818,-3.1224,-3.207,-3.2747,-3.2882,-3.2831,-3.2848,-3.2865,-3.3068,-3.3271,-3.352,-3.3682,-3.3965,-3.4464,-3.5153,-3.5847,-3.6457,-3.717,-3.7827,-3.8272,-3.8432,-3.8744,-3.9386,-3.9625,-3.99,-4.0359,-4.0102,-4.0194,-4.0708,-4.2066,-4.291,-4.2451,-4.2983,-4.3424,-4.3479,-4.3479,-4.3479,-4.3479,-4.3479,-4.3479,-4.3479,-4.3479,-4.3479,-4.3479,-4.3479,-4.3479,-4.3479,-4.3479,-4.3479,-4.3479,-4.3277,-4.3314,-3.5489,-3.5489,-3.5489,-3.5489,-3.5489,-3.5489,-3.5489,-3.5489,-3.5489,-3.5489,-3.5489,-3.5489,-3.5489,-3.5489,-3.5489,-3.5489,-3.5489,-3.5489,-3.5175,-3.4668,-3.4548,-3.3844,-3.2811,-3.2557,-3.2168,-3.1675,-3.1525,-3.1496,-3.1496,-3.1496,-3.1496,-3.1496,-3.1553,-3.1936,-3.2473,-3.2466,-3.2175,-3.1591,-3.1726,-3.1089,-2.9697,-2.9776,-2.9556,-2.8903,-2.8955,-2.8936,-2.8968,-2.9448,-2.9475,-2.8815,-2.8188,-2.7817,-2.761,-2.7177,-2.7328,-2.8292,-2.839,-2.8579,-2.9022,-2.9094,-2.9416,-2.9954,-2.9583,-2.989,-3.1021,-3.0734,-3.0734,-3.1309,-3.1444,-3.1512,-3.1444,-3.2022,-3.2178,-3.182,-3.2196,-3.2679,-3.3231,-3.3916,-3.4707,-3.5624,-3.626,-3.7015,-3.7384,-3.7583,-3.7958,-3.8817,-3.8946,-3.9001,-3.915,-3.9551,-3.957,-3.9551,-4.0873,-4.2158,-4.2231,-4.2947,-4.324,-4.3369,-4.3424,-4.3351,-4.3296,-4.3332,-4.3461,-4.324,-4.3387,-4.3369,-4.3479,-4.3479,-4.3479,-4.3479,-4.3479,-4.3479,-4.3423,-4.302,-4.2855,-3.5489,-3.5489,-3.5489,-3.5489,-3.5489,-3.5489,-3.5489,-3.5489,-3.5489,-3.5489,-3.5489,-3.5489,-3.5489,-3.5489,-3.5489,-3.5489,-3.5489,-3.5489,-3.513,-3.4503,-3.4083,-3.3395,-3.2527,-3.2064,-3.175,-3.1525,-3.1496,-3.1496,-3.1496,-3.1496,-3.1496,-3.1496,-3.1496,-3.1473,-3.1359,-3.1007,-3.049,-2.9863,-2.9438,-2.8951,-2.8561,-2.9194,-2.9267,-2.8689,-2.8592,-2.8397,-2.8023,-2.7929,-2.7679,-2.7395,-2.6767,-2.6363,-2.6267,-2.6417,-2.6666,-2.7077,-2.7377,-2.759,-2.7655,-2.8468,-2.9128,-2.945,-2.9583,-3.0091,-3.1021,-3.0514,-3.0412,-3.1038,-3.119,-3.119,-3.1224,-3.1498,-3.1512,-3.1275,-3.1498,-3.1749,-3.1927,-3.2633,-3.3375,-3.4058,-3.4783,-3.5403,-3.5939,-3.663,-3.7489,-3.841,-3.8689,-3.8652,-3.8744,-3.9001,-3.9019,-3.8964,-3.9992,-4.0744,-4.1001,-4.1552,-4.2213,-4.258,-4.2378,-4.2158,-4.2653,-4.2304,-4.2194,-4.269,-4.2818,-4.3057,-4.346,-4.3479,-4.3479,-4.3424,-4.3424,-4.3369,-4.2892,-4.291,-4.3019,-3.5489,-3.5489,-3.5489,-3.5489,-3.5489,-3.5489,-3.5489,-3.5489,-3.5489,-3.5489,-3.5489,-3.5489,-3.5489,-3.5489,-3.5489,-3.5489,-3.5489,-3.5489,-3.5138,-3.4514,-3.397,-3.3351,-3.2536,-3.2053,-3.1682,-3.1524,-3.1496,-3.1496,-3.1496,-3.1496,-3.1406,-3.1256,-3.1227,-3.1001,-3.0492,-2.9894,-2.9382,-2.8876,-2.8203,-2.772,-2.7525,-2.8289,-2.8622,-2.8338,-2.8143,-2.7889,-2.76,-2.6791,-2.6408,-2.6581,-2.5794,-2.5266,-2.5218,-2.552,-2.5773,-2.603,-2.6491,-2.6774,-2.6691,-2.774,-2.8468,-2.8653,-2.9025,-2.9583,-3.0243,-2.9905,-2.9854,-3.0463,-3.0768,-3.092,-3.1173,-3.119,-3.119,-3.119,-3.119,-3.119,-3.1261,-3.187,-3.2449,-3.2758,-3.3481,-3.4119,-3.4781,-3.5774,-3.6896,-3.8025,-3.834,-3.8505,-3.8652,-3.8692,-3.8676,-3.853,-3.9127,-3.9753,-4.0139,-4.0818,-4.1425,-4.1827,-4.1754,-4.1444,-4.1864,-4.137,-4.115,-4.1956,-4.2084,-4.2378,-4.2837,-4.3057,-4.2965,-4.291,-4.2928,-4.2818,-4.2139,-4.2635,-4.2671,-3.5489,-3.5489,-3.5489,-3.5489,-3.5489,-3.5489,-3.5489,-3.5489,-3.5489,-3.5489,-3.5489,-3.5489,-3.5489,-3.5489,-3.5489,-3.5489,-3.5489,-3.5489,-3.515,-3.4537,-3.4397,-3.3774,-3.264,-3.2547,-3.2176,-3.1524,-3.1496,-3.1496,-3.1496,-3.1496,-3.1167,-3.0612,-3.0612,-3.0552,-3.0328,-2.9789,-2.9577,-2.9265,-2.8712,-2.7904,-2.6866,-2.6752,-2.7136,-2.7495,-2.7021,-2.6986,-2.7315,-2.6318,-2.5914,-2.6542,-2.5322,-2.4642,-2.4575,-2.4124,-2.4275,-2.5182,-2.5752,-2.6241,-2.6607,-2.6877,-2.7232,-2.7689,-2.7503,-2.7605,-2.9077,-2.8584,-2.85,-2.9094,-2.9871,-3.048,-3.1021,-3.1157,-3.119,-3.119,-3.119,-3.119,-3.1207,-3.1765,-3.2088,-3.2057,-3.253,-3.3368,-3.4275,-3.5112,-3.615,-3.7138,-3.7547,-3.7786,-3.8414,-3.8634,-3.8423,-3.8216,-3.8514,-3.9279,-4.0618,-4.0636,-4.1132,-4.1515,-4.1185,-4.1003,-4.1095,-4.1113,-4.1095,-4.1224,-4.1589,-4.1901,-4.2213,-4.2194,-4.1937,-4.1919,-4.2121,-4.1919,-4.1313,-4.1882,-4.1919,-3.5489,-3.5489,-3.5489,-3.5489,-3.5489,-3.5489,-3.5489,-3.5489,-3.5489,-3.5489,-3.5489,-3.5489,-3.5489,-3.5489,-3.5489,-3.5489,-3.5489,-3.5489,-3.5136,-3.4503,-3.4058,-3.343,-3.2612,-3.2148,-3.1768,-3.1553,-3.1496,-3.1496,-3.1496,-3.1496,-3.1152,-3.0612,-3.0492,-3.0133,-2.9385,-2.9071,-2.8768,-2.8349,-2.8064,-2.7525,-2.6686,-2.6602,-2.6527,-2.6303,-2.6093,-2.6063,-2.6303,-2.5412,-2.5083,-2.5307,-2.4448,-2.3947,-2.3954,-2.3744,-2.3906,-2.4617,-2.5202,-2.5707,-2.6259,-2.6993,-2.7503,-2.7739,-2.757,-2.7774,-2.862,-2.8315,-2.8128,-2.8873,-2.9651,-3.0224,-3.0497,-3.0903,-3.119,-3.119,-3.1173,-3.1157,-3.1224,-3.1447,-3.156,-3.1475,-3.172,-3.2376,-3.3562,-3.4203,-3.4999,-3.6406,-3.6743,-3.711,-3.7713,-3.7918,-3.7927,-3.7937,-3.8101,-3.8563,-3.958,-3.9609,-3.9719,-4.0139,-4.0175,-4.0065,-4.0084,-3.9866,-3.9756,-4.0286,-4.0781,-4.1148,-4.135,-4.1644,-4.1295,-4.0744,-4.0983,-4.1295,-4.0506,-4.1167,-4.1075,-3.5489,-3.5489,-3.5489,-3.5489,-3.5489,-3.5489,-3.5489,-3.5489,-3.5489,-3.5489,-3.5489,-3.5489,-3.5489,-3.5489,-3.5489,-3.5489,-3.5489,-3.5474,-3.5136,-3.4502,-3.4028,-3.3386,-3.2607,-3.2092,-3.1726,-3.1524,-3.1496,-3.1496,-3.1496,-3.1496,-3.1047,-3.0253,-3.0208,-2.9684,-2.8742,-2.8397,-2.8109,-2.7884,-2.7525,-2.6956,-2.6348,-2.6063,-2.5644,-2.5076,-2.4971,-2.5196,-2.5555,-2.4754,-2.441,-2.4485,-2.3969,-2.3595,-2.3595,-2.3595,-2.3837,-2.4348,-2.4752,-2.5259,-2.5956,-2.6764,-2.7279,-2.7435,-2.7452,-2.7723,-2.8163,-2.7757,-2.7774,-2.8298,-2.9194,-2.9736,-2.9888,-3.0395,-3.0835,-3.0835,-3.0835,-3.0852,-3.0852,-3.1055,-3.119,-3.121,-3.1247,-3.1838,-3.2792,-3.3158,-3.4053,-3.5487,-3.5795,-3.6266,-3.7217,-3.7514,-3.7598,-3.7851,-3.7911,-3.8058,-3.8438,-3.8417,-3.9071,-3.9536,-3.9404,-3.9253,-3.9143,-3.8829,-3.886,-3.9352,-3.979,-4.0157,-4.0524,-4.0873,-4.0524,-3.9827,-4.0359,-4.0967,-4.0616,-4.049,-4.0341,-3.5489,-3.5489,-3.5489,-3.5489,-3.5489,-3.5489,-3.5489,-3.5489,-3.5489,-3.5489,-3.5489,-3.5489,-3.5489,-3.5489,-3.5489,-3.5489,-3.5489,-3.5489,-3.5136,-3.4531,-3.4395,-3.3702,-3.2633,-3.2437,-3.2035,-3.1496,-3.1496,-3.1496,-3.1496,-3.1466,-3.0898,-2.9906,-2.9699,-2.9325,-2.8592,-2.8064,-2.7959,-2.8053,-2.7275,-2.6348,-2.563,-2.5083,-2.447,-2.3819,-2.3744,-2.4283,-2.542,-2.4313,-2.3954,-2.4395,-2.3954,-2.361,-2.3595,-2.3595,-2.3837,-2.4241,-2.441,-2.495,-2.5781,-2.6063,-2.6396,-2.6725,-2.6759,-2.686,-2.6945,-2.6877,-2.6843,-2.7131,-2.8231,-2.9061,-2.9196,-2.9685,-3.0176,-3.014,-3.0294,-3.026,-3.0378,-3.0784,-3.119,-3.119,-3.119,-3.137,-3.1805,-3.2284,-3.311,-3.4158,-3.4761,-3.5457,-3.678,-3.718,-3.7549,-3.7739,-3.7754,-3.7757,-3.7504,-3.7338,-3.8365,-3.9137,-3.8787,-3.8547,-3.8569,-3.837,-3.8451,-3.8883,-3.93,-3.9664,-3.9772,-4.0047,-3.9918,-3.9551,-4.0249,-4.0416,-4.0031,-3.9701,-3.9701,-3.5489,-3.5489,-3.5489,-3.5489,-3.5489,-3.5489,-3.5489,-3.5489,-3.5489,-3.5489,-3.5489,-3.5489,-3.5489,-3.5489,-3.5489,-3.5489,-3.5489,-3.5492,-3.5136,-3.4507,-3.4028,-3.3386,-3.2653,-3.2076,-3.171,-3.1524,-3.1496,-3.1496,-3.1496,-3.1496,-3.1032,-3.0298,-2.9774,-2.925,-2.8607,-2.7974,-2.775,-2.7779,-2.7036,-2.6273,-2.5615,-2.4933,-2.4276,-2.3699,-2.3595,-2.3834,-2.4163,-2.3819,-2.3714,-2.3939,-2.3714,-2.3595,-2.3595,-2.3595,-2.3681,-2.3858,-2.4204,-2.4677,-2.537,-2.5797,-2.6175,-2.6573,-2.6691,-2.6708,-2.6708,-2.6708,-2.6708,-2.6843,-2.8079,-2.8993,-2.9044,-2.9179,-2.977,-3.0734,-3.0429,-3.0243,-3.0649,-3.1004,-3.1157,-3.119,-3.119,-3.1372,-3.1696,-3.1986,-3.2438,-3.3322,-3.3719,-3.439,-3.5502,-3.6435,-3.6745,-3.702,-3.7163,-3.7433,-3.7267,-3.6962,-3.7269,-3.8025,-3.7971,-3.7965,-3.7982,-3.8033,-3.8117,-3.8407,-3.8841,-3.9116,-3.9205,-3.9221,-3.9166,-3.9074,-3.9331,-3.9221,-3.8891,-3.8875,-3.9059,-3.5489,-3.5489,-3.5489,-3.5489,-3.5489,-3.5489,-3.5489,-3.5489,-3.5489,-3.5489,-3.5489,-3.5489,-3.5489,-3.5489,-3.5489,-3.5489,-3.5489,-3.5489,-3.5009,-3.4181,-3.3728,-3.3049,-3.2257,-3.1739,-3.1496,-3.1496,-3.1496,-3.1496,-3.1496,-3.1481,-3.118,-3.0507,-2.9879,-2.9277,-2.8592,-2.7959,-2.7585,-2.748,-2.6701,-2.6019,-2.551,-2.4694,-2.4022,-2.367,-2.3595,-2.3595,-2.3595,-2.3595,-2.3595,-2.3595,-2.3595,-2.3595,-2.3595,-2.3595,-2.3595,-2.3659,-2.3906,-2.4313,-2.4871,-2.5373,-2.5908,-2.6315,-2.6607,-2.6708,-2.6708,-2.6708,-2.6708,-2.6894,-2.8079,-2.8891,-2.8653,-2.9161,-2.982,-3.0632,-2.9803,-2.9803,-3.0497,-3.0784,-3.0954,-3.1072,-3.119,-3.1332,-3.1507,-3.1771,-3.1986,-3.2582,-3.2999,-3.3533,-3.4666,-3.5703,-3.6267,-3.6779,-3.713,-3.7254,-3.7155,-3.6766,-3.6312,-3.6696,-3.7073,-3.7285,-3.7469,-3.7578,-3.7667,-3.81,-3.853,-3.8826,-3.8946,-3.8891,-3.8836,-3.8707,-3.8707,-3.8707,-3.8726,-3.8726,-3.8854,-3.5489,-3.5489,-3.5489,-3.5489,-3.5489,-3.5489,-3.5489,-3.5489,-3.5489,-3.5489,-3.5489,-3.5489,-3.5489,-3.5489,-3.5489,-3.5489,-3.5489,-3.5489,-3.4893,-3.3996,-3.3559,-3.2976,-3.1747,-3.1524,-3.1496,-3.1496,-3.1496,-3.1496,-3.1496,-3.1496,-3.1182,-3.0642,-3.0043,-2.9352,-2.8742,-2.8034,-2.769,-2.745,-2.6378,-2.5779,-2.5546,-2.4433,-2.3684,-2.361,-2.3595,-2.3595,-2.3595,-2.3595,-2.3595,-2.3595,-2.3595,-2.3595,-2.3595,-2.3595,-2.3595,-2.3595,-2.3616,-2.3927,-2.4389,-2.4875,-2.5446,-2.6015,-2.6401,-2.6691,-2.6674,-2.6826,-2.6911,-2.6979,-2.8282,-2.8856,-2.8568,-2.9193,-3.0006,-2.9871,-2.9142,-2.9092,-2.9954,-3.0224,-3.0514,-3.1021,-3.119,-3.121,-3.1252,-3.1528,-3.1752,-3.2109,-3.2681,-3.3404,-3.4334,-3.5374,-3.6476,-3.6916,-3.7125,-3.7399,-3.7415,-3.6962,-3.6522,-3.6395,-3.6626,-3.6746,-3.7018,-3.7135,-3.747,-3.7877,-3.8318,-3.8562,-3.8707,-3.8707,-3.8707,-3.8707,-3.8707,-3.8707,-3.8707,-3.8707,-3.8707,-3.5489,-3.5489,-3.5489,-3.5489,-3.5489,-3.5489,-3.5489,-3.5489,-3.5489,-3.5489,-3.5489,-3.5489,-3.5474,-3.5489,-3.5459,-3.5489,-3.5459,-3.5459,-3.5085,-3.4337,-3.4249,-3.317,-3.1809,-3.1496,-3.1496,-3.1496,-3.154,-3.1496,-3.1496,-3.154,-3.1421,-3.1227,-3.0537,-2.9924,-2.9325,-2.8637,-2.8094,-2.757,-2.6806,-2.6063,-2.557,-2.4784,-2.4081,-2.3625,-2.361,-2.3595,-2.3595,-2.3595,-2.3595,-2.3595,-2.3595,-2.3595,-2.3595,-2.3595,-2.3595,-2.3595,-2.3616,-2.3815,-2.4287,-2.4552,-2.5031,-2.587,-2.612,-2.6332,-2.6691,-2.7215,-2.7435,-2.7773,-2.889,-2.9668,-2.9531,-2.9802,-2.9871,-2.9414,-2.9228,-2.9702,-3.0463,-3.0446,-3.0378,-3.1038,-3.1173,-3.119,-3.1213,-3.1312,-3.1601,-3.2092,-3.2534,-3.3028,-3.403,-3.5334,-3.6541,-3.679,-3.7043,-3.7498,-3.7614,-3.7192,-3.6766,-3.6419,-3.6378,-3.6316,-3.6563,-3.6764,-3.7285,-3.7825,-3.835,-3.8658,-3.8707,-3.8707,-3.8707,-3.8707,-3.8707,-3.8707,-3.8707,-3.8707,-3.8707,-3.5489,-3.5489,-3.5489,-3.5489,-3.5489,-3.5489,-3.5489,-3.5489,-3.5489,-3.5325,-3.519,-3.54,-3.519,-3.4726,-3.4936,-3.5102,-3.507,-3.5085,-3.4831,-3.4533,-3.4174,-3.323,-3.2123,-3.169,-3.1496,-3.154,-3.1795,-3.1735,-3.1615,-3.1765,-3.1765,-3.1391,-3.0836,-3.0208,-2.9577,-2.8936,-2.8263,-2.7615,-2.6956,-2.6378,-2.6004,-2.5068,-2.4485,-2.3992,-2.3804,-2.3595,-2.3595,-2.3595,-2.3595,-2.3595,-2.3595,-2.3595,-2.3595,-2.3595,-2.3595,-2.3595,-2.3595,-2.373,-2.4032,-2.4246,-2.4657,-2.5278,-2.5652,-2.6103,-2.6451,-2.6993,-2.7334,-2.7418,-2.8789,-2.9313,-2.9311,-2.9666,-2.9685,-2.9211,-2.9381,-2.9956,-3.0666,-3.0023,-3.0209,-3.0818,-3.119,-3.119,-3.119,-3.119,-3.1447,-3.186,-3.2282,-3.2912,-3.3754,-3.5235,-3.6435,-3.675,-3.713,-3.7597,-3.77,-3.7326,-3.712,-3.679,-3.6583,-3.6419,-3.6522,-3.6744,-3.7211,-3.786,-3.835,-3.8707,-3.8707,-3.8707,-3.8707,-3.8707,-3.8707,-3.8707,-3.8707,-3.8707,-3.8707,-3.5489,-3.5489,-3.5489,-3.5489,-3.5489,-3.5489,-3.5489,-3.5489,-3.5489,-3.513,-3.4788,-3.5145,-3.4756,-3.3634,-3.4412,-3.4578,-3.4683,-3.4816,-3.4711,-3.4535,-3.4223,-3.3563,-3.3095,-3.2077,-3.197,-3.2103,-3.2436,-3.2123,-3.1929,-3.2213,-3.2064,-3.154,-3.0898,-3.0328,-2.9774,-2.9086,-2.8382,-2.7794,-2.7165,-2.6731,-2.6378,-2.5531,-2.4903,-2.4425,-2.3879,-2.3625,-2.3595,-2.3595,-2.3595,-2.3595,-2.3595,-2.3595,-2.3595,-2.3595,-2.3595,-2.3595,-2.3595,-2.3616,-2.3666,-2.4053,-2.441,-2.4736,-2.5468,-2.6079,-2.6391,-2.6874,-2.7148,-2.7368,-2.8298,-2.8975,-2.8956,-2.9531,-2.9837,-2.9501,-2.9314,-2.9382,-2.9837,-2.9482,-2.9568,-3.092,-3.1173,-3.119,-3.119,-3.119,-3.1249,-3.1732,-3.2214,-3.2952,-3.3921,-3.5329,-3.6322,-3.6912,-3.7304,-3.7738,-3.7678,-3.7469,-3.7381,-3.7214,-3.706,-3.6923,-3.6943,-3.7154,-3.7433,-3.7877,-3.8366,-3.8627,-3.8707,-3.8707,-3.8707,-3.8707,-3.8707,-3.8707,-3.8707,-3.8707,-3.8707,-3.5489,-3.5489,-3.5489,-3.5489,-3.5489,-3.5489,-3.5489,-3.5489,-3.5489,-3.5115,-3.4668,-3.4666,-3.4578,-3.4249,-3.4429,-3.4788,-3.5145,-3.519,-3.528,-3.5272,-3.5248,-3.5107,-3.4557,-3.3303,-3.3016,-3.3447,-3.2884,-3.2467,-3.2407,-3.2422,-3.2153,-3.157,-3.1402,-3.0971,-3.0268,-2.9654,-2.9041,-2.8393,-2.772,-2.7121,-2.6692,-2.6288,-2.5546,-2.4694,-2.3954,-2.364,-2.3595,-2.3595,-2.3595,-2.3595,-2.3595,-2.3595,-2.3595,-2.3595,-2.3595,-2.3595,-2.3595,-2.3595,-2.3616,-2.3752,-2.4158,-2.4891,-2.5317,-2.5954,-2.7326,-2.7466,-2.7875,-2.8433,-2.933,-2.9753,-3.0006,-3.0072,-3.0142,-3.004,-2.9619,-2.9534,-3.0378,-2.9788,-2.9754,-3.0734,-3.119,-3.119,-3.119,-3.119,-3.1332,-3.1658,-3.2266,-3.3025,-3.4177,-3.5433,-3.6211,-3.6934,-3.7091,-3.7387,-3.7376,-3.7392,-3.7619,-3.7664,-3.7596,-3.7524,-3.7524,-3.7578,-3.786,-3.8082,-3.835,-3.8546,-3.8692,-3.8707,-3.8707,-3.8707,-3.8707,-3.8707,-3.8707,-3.8707,-3.8707,-3.5489,-3.5489,-3.5489,-3.5489,-3.5489,-3.5489,-3.5489,-3.5489,-3.5489,-3.5115,-3.4683,-3.4771,-3.4607,-3.4114,-3.4369,-3.4743,-3.5026,-3.537,-3.5686,-3.5915,-3.6091,-3.6446,-3.6794,-3.5444,-3.4747,-3.4752,-3.4296,-3.3682,-3.3216,-3.317,-3.2987,-3.2032,-3.1976,-3.1416,-3.0625,-3.0176,-2.949,-2.8712,-2.8248,-2.775,-2.718,-2.6731,-2.5959,-2.4754,-2.3984,-2.3595,-2.3595,-2.3595,-2.3595,-2.3595,-2.3595,-2.3595,-2.3595,-2.3595,-2.3595,-2.3595,-2.3595,-2.3595,-2.3595,-2.3638,-2.3964,-2.4808,-2.5353,-2.63,-2.7359,-2.7952,-2.8298,-2.8586,-2.9059,-2.9771,-3.0127,-3.0294,-3.0159,-2.9599,-2.9634,-2.9736,-2.9958,-2.9467,-2.9568,-3.0751,-3.119,-3.119,-3.119,-3.119,-3.123,-3.1449,-3.241,-3.3178,-3.426,-3.5441,-3.6216,-3.6768,-3.6806,-3.6916,-3.6989,-3.7259,-3.7804,-3.7988,-3.8183,-3.8168,-3.8185,-3.8218,-3.8302,-3.8433,-3.853,-3.8578,-3.8707,-3.8707,-3.8707,-3.8707,-3.8707,-3.8707,-3.8707,-3.8707,-3.8707,-3.5489,-3.5489,-3.5489,-3.5489,-3.5489,-3.5489,-3.5489,-3.5489,-3.5489,-3.5115,-3.4683,-3.5115,-3.4622,-3.4024,-3.4279,-3.4533,-3.488,-3.5433,-3.607,-3.6446,-3.6946,-3.7617,-3.8121,-3.7583,-3.6534,-3.5339,-3.5236,-3.4727,-3.4105,-3.4071,-3.358,-3.2728,-3.2702,-3.2257,-3.1275,-3.0672,-3.0286,-2.9452,-2.876,-2.8293,-2.775,-2.7151,-2.6213,-2.5255,-2.4477,-2.4014,-2.3924,-2.3834,-2.3759,-2.361,-2.3595,-2.3595,-2.3616,-2.3702,-2.3724,-2.3745,-2.3794,-2.3794,-2.38,-2.38,-2.4012,-2.4522,-2.5704,-2.6701,-2.7514,-2.8301,-2.8651,-2.8636,-2.8907,-2.9213,-2.9213,-2.9516,-2.933,-2.8855,-2.9396,-2.96,-2.9484,-2.9281,-2.9905,-3.0818,-3.119,-3.119,-3.119,-3.119,-3.119,-3.1387,-3.2393,-3.3343,-3.4376,-3.5362,-3.6123,-3.6664,-3.6747,-3.6996,-3.7096,-3.7162,-3.7704,-3.8242,-3.8562,-3.8562,-3.8611,-3.8562,-3.8515,-3.8596,-3.8658,-3.8707,-3.8707,-3.8707,-3.8707,-3.8707,-3.8707,-3.8707,-3.8707,-3.8707,-3.8707,-3.5489,-3.5489,-3.5489,-3.5489,-3.5489,-3.5489,-3.5489,-3.5489,-3.5489,-3.5115,-3.4608,-3.4638,-3.4622,-3.4414,-3.4429,-3.4786,-3.5319,-3.5961,-3.6461,-3.6934,-3.77,-3.8674,-3.8869,-3.9116,-3.8454,-3.7313,-3.6364,-3.5315,-3.4569,-3.4436,-3.3825,-3.2965,-3.3118,-3.305,-3.2636,-3.2059,-3.1267,-3.0551,-2.9512,-2.8693,-2.8248,-2.76,-2.6941,-2.6063,-2.539,-2.4919,-2.456,-2.4418,-2.4171,-2.367,-2.361,-2.3625,-2.3762,-2.4088,-2.4302,-2.4199,-2.4199,-2.4178,-2.4246,-2.4297,-2.4552,-2.519,-2.6335,-2.7522,-2.8365,-2.8903,-2.9262,-2.9381,-2.9178,-2.9213,-2.9854,-2.9634,-2.9516,-2.9448,-2.9499,-2.9719,-3.0294,-3.0328,-3.0209,-3.1038,-3.1173,-3.119,-3.119,-3.119,-3.119,-3.154,-3.241,-3.3168,-3.3979,-3.4995,-3.5936,-3.6391,-3.6716,-3.7025,-3.7326,-3.7353,-3.7643,-3.8325,-3.8643,-3.8643,-3.8658,-3.8673,-3.8707,-3.8707,-3.8707,-3.8707,-3.8707,-3.8707,-3.8707,-3.8707,-3.8707,-3.8707,-3.8707,-3.8707,-3.8707,-3.5489,-3.5489,-3.5489,-3.5489,-3.5489,-3.5489,-3.5489,-3.5489,-3.5489,-3.5325,-3.5085,-3.5011,-3.5011,-3.5011,-3.5011,-3.522,-3.561,-3.6259,-3.6798,-3.7381,-3.8358,-3.9166,-3.9437,-3.9952,-3.9358,-3.836,-3.7218,-3.5851,-3.4698,-3.4536,-3.3939,-3.3391,-3.3467,-3.3598,-3.3395,-3.2609,-3.1995,-3.1411,-3.0296,-2.9205,-2.8562,-2.769,-2.6941,-2.6566,-2.6066,-2.5612,-2.5621,-2.5213,-2.5153,-2.5067,-2.4806,-2.4492,-2.445,-2.4754,-2.5049,-2.4616,-2.4482,-2.4588,-2.4866,-2.5088,-2.5484,-2.577,-2.7153,-2.8306,-2.9065,-2.9617,-3.0057,-2.9905,-2.9482,-2.9279,-2.9989,-2.9719,-2.9803,-3.0006,-3.0023,-3.0243,-3.0531,-3.0632,-3.0886,-3.114,-3.1173,-3.119,-3.119,-3.119,-3.119,-3.1695,-3.25,-3.3112,-3.3694,-3.4619,-3.5622,-3.5454,-3.5723,-3.6253,-3.6695,-3.7077,-3.7456,-3.8175,-3.8707,-3.8707,-3.8707,-3.8707,-3.8707,-3.8707,-3.8707,-3.8707,-3.8707,-3.8707,-3.8707,-3.8707,-3.8707,-3.8707,-3.8707,-3.8707,-3.8707,-3.5489,-3.5489,-3.5489,-3.5489,-3.5489,-3.5489,-3.5489,-3.5489,-3.5489,-3.5489,-3.5489,-3.5459,-3.5385,-3.5295,-3.5265,-3.5357,-3.5542,-3.6415,-3.7219,-3.7835,-3.8761,-3.9558,-3.9927,-4.002,-3.9636,-3.8767,-3.7709,-3.655,-3.4926,-3.4524,-3.4136,-3.3724,-3.3639,-3.3811,-3.3662,-3.3171,-3.2488,-3.1747,-3.0907,-2.9876,-2.8748,-2.7545,-2.6962,-2.7091,-2.6544,-2.6497,-2.6785,-2.654,-2.6401,-2.6379,-2.6132,-2.5681,-2.5245,-2.589,-2.5946,-2.5154,-2.4936,-2.5195,-2.5573,-2.6018,-2.624,-2.6036,-2.8006,-2.8841,-2.9385,-3.0059,-3.0886,-3.0345,-2.9939,-2.96,-3.0074,-3.0074,-3.0074,-3.0176,-3.0531,-3.0869,-3.0717,-3.0768,-3.1021,-3.1173,-3.119,-3.119,-3.119,-3.1258,-3.1275,-3.1901,-3.2669,-3.3036,-3.3636,-3.4363,-3.4948,-3.4447,-3.453,-3.5139,-3.574,-3.649,-3.7074,-3.7951,-3.8469,-3.8707,-3.8707,-3.8707,-3.8707,-3.8707,-3.8707,-3.8707,-3.8707,-3.8707,-3.8707,-3.8707,-3.8707,-3.8707,-3.8707,-3.8707,-3.8707,-3.5489,-3.5489,-3.5489,-3.5489,-3.5489,-3.5489,-3.5489,-3.5489,-3.5489,-3.5489,-3.5489,-3.5429,-3.513,-3.4818,-3.4746,-3.503,-3.5806,-3.6995,-3.7655,-3.8008,-3.911,-3.9733,-3.9969,-4.0113,-3.9469,-3.8704,-3.7582,-3.6156,-3.4971,-3.4575,-3.4182,-3.3773,-3.4106,-3.4471,-3.426,-3.3659,-3.3151,-3.2354,-3.1152,-3.012,-2.9312,-2.8167,-2.8124,-2.8475,-2.8389,-2.8069,-2.8118,-2.7936,-2.7826,-2.7407,-2.7295,-2.6834,-2.6377,-2.6842,-2.7061,-2.6879,-2.6784,-2.6803,-2.6893,-2.7059,-2.6928,-2.6853,-2.8139,-2.8832,-2.9567,-3.033,-3.114,-3.1123,-3.0852,-3.0565,-3.0275,-3.0156,-3.0106,-3.0192,-3.0429,-3.0784,-3.0869,-3.0886,-3.1157,-3.119,-3.119,-3.119,-3.119,-3.1275,-3.1444,-3.2138,-3.275,-3.3066,-3.3281,-3.3737,-3.438,-3.3966,-3.4047,-3.4627,-3.5593,-3.6234,-3.7008,-3.7863,-3.8251,-3.8692,-3.8707,-3.8707,-3.8707,-3.8707,-3.8707,-3.8707,-3.8707,-3.8707,-3.8707,-3.8707,-3.8707,-3.8707,-3.8707,-3.8707,-3.8707,-3.5489,-3.5489,-3.5489,-3.5489,-3.5489,-3.5489,-3.5489,-3.5489,-3.5489,-3.5489,-3.54,-3.5055,-3.4741,-3.4581,-3.4895,-3.5507,-3.6338,-3.7671,-3.8142,-3.8068,-3.8913,-3.9309,-3.8886,-3.8845,-3.8547,-3.8355,-3.7606,-3.6733,-3.5473,-3.4419,-3.3761,-3.3786,-3.4226,-3.4586,-3.4504,-3.3937,-3.3261,-3.2288,-3.1019,-3.0118,-2.9736,-2.8965,-2.8535,-2.9339,-2.915,-2.9198,-2.9335,-2.9086,-2.9076,-2.8843,-2.8779,-2.8223,-2.7825,-2.8045,-2.8371,-2.8385,-2.8229,-2.8174,-2.8176,-2.8159,-2.789,-2.8161,-2.9136,-3.0241,-3.0415,-3.0734,-3.119,-3.1173,-3.119,-3.1004,-3.0784,-3.0734,-3.0717,-3.07,-3.0598,-3.0768,-3.1055,-3.1106,-3.119,-3.119,-3.119,-3.119,-3.119,-3.1241,-3.136,-3.1802,-3.2242,-3.2449,-3.23,-3.215,-3.2882,-3.3569,-3.3881,-3.437,-3.5507,-3.6456,-3.7314,-3.8025,-3.8315,-3.8643,-3.8692,-3.8707,-3.8643,-3.8658,-3.8707,-3.8707,-3.8707,-3.8707,-3.8707,-3.8707,-3.8707,-3.8707,-3.8707,-3.8707,-3.8707,-3.5489,-3.5489,-3.5489,-3.5489,-3.5489,-3.5489,-3.5489,-3.5489,-3.5489,-3.5415,-3.504,-3.4412,-3.4128,-3.4465,-3.4896,-3.5426,-3.6645,-3.8007,-3.8318,-3.8427,-3.874,-3.9031,-3.8853,-3.8516,-3.8303,-3.8063,-3.759,-3.6914,-3.6,-3.5059,-3.4391,-3.371,-3.4274,-3.4426,-3.4274,-3.4037,-3.3531,-3.252,-3.1094,-3.0527,-3.045,-2.9632,-2.952,-2.9687,-2.9783,-2.993,-3.0351,-3.0154,-3.0143,-3.0215,-3.0061,-2.952,-2.9022,-2.9349,-2.953,-2.9468,-2.9244,-2.934,-2.9291,-2.9207,-2.9061,-2.9399,-3.0059,-3.07,-3.1055,-3.119,-3.119,-3.119,-3.119,-3.119,-3.1173,-3.1157,-3.1089,-3.1072,-3.1089,-3.1157,-3.119,-3.119,-3.119,-3.119,-3.119,-3.119,-3.119,-3.119,-3.1309,-3.1549,-3.1735,-3.1955,-3.1819,-3.1562,-3.2203,-3.3246,-3.3839,-3.4305,-3.5142,-3.6295,-3.7287,-3.7981,-3.8271,-3.8433,-3.8382,-3.8449,-3.8465,-3.853,-3.8611,-3.8707,-3.8707,-3.8707,-3.8707,-3.8707,-3.8707,-3.8707,-3.8707,-3.8707,-3.8707,-3.5489,-3.5489,-3.5489,-3.5489,-3.5489,-3.5489,-3.5489,-3.5489,-3.5489,-3.516,-3.4548,-3.3395,-3.3455,-3.4135,-3.4281,-3.4983,-3.6644,-3.7494,-3.8202,-3.8913,-3.9545,-3.9538,-3.9182,-3.8768,-3.8584,-3.8496,-3.7686,-3.6943,-3.6718,-3.649,-3.5224,-3.404,-3.4844,-3.4358,-3.4198,-3.436,-3.3682,-3.2715,-3.1569,-3.1254,-3.1158,-3.0735,-3.0579,-3.078,-3.0626,-3.0535,-3.1092,-3.0955,-3.0878,-3.0998,-3.0878,-3.06,-3.0112,-3.0294,-3.0323,-3.0176,-2.9743,-2.9989,-3.0294,-2.9754,-2.9162,-2.9281,-2.9837,-3.07,-3.114,-3.119,-3.119,-3.119,-3.119,-3.119,-3.119,-3.119,-3.119,-3.119,-3.119,-3.119,-3.119,-3.119,-3.119,-3.119,-3.119,-3.119,-3.1343,-3.1376,-3.163,-3.1887,-3.2242,-3.2462,-3.231,-3.2144,-3.2468,-3.3156,-3.3829,-3.4327,-3.4746,-3.5758,-3.6896,-3.7343,-3.7523,-3.7753,-3.7894,-3.8015,-3.81,-3.8302,-3.8368,-3.853,-3.8692,-3.8658,-3.8658,-3.8692,-3.8707,-3.8707,-3.8707,-3.8707,-3.8707,-3.5489,-3.5489,-3.5489,-3.5489,-3.5489,-3.5489,-3.5489,-3.5489,-3.5489,-3.5115,-3.4414,-3.32,-3.3006,-3.3713,-3.4369,-3.5106,-3.6743,-3.8018,-3.8603,-3.8723,-3.8923,-3.8802,-3.8379,-3.7956,-3.7256,-3.7925,-3.7321,-3.7131,-3.7452,-3.7429,-3.681,-3.6095,-3.6232,-3.6095,-3.5827,-3.4864,-3.387,-3.2841,-3.2043,-3.1697,-3.1935,-3.1486,-3.1371,-3.1793,-3.1749,-3.1362,-3.1272,-3.1207,-3.119,-3.119,-3.119,-3.097,-3.07,-3.0734,-3.0683,-3.0581,-3.0091,-3.0209,-3.0869,-3.0347,-2.9907,-3.0347,-3.0649,-3.0886,-3.119,-3.119,-3.119,-3.119,-3.119,-3.119,-3.119,-3.119,-3.119,-3.119,-3.119,-3.119,-3.119,-3.119,-3.119,-3.119,-3.119,-3.119,-3.141,-3.165,-3.1938,-3.2259,-3.2611,-3.2865,-3.2733,-3.2784,-3.3087,-3.3488,-3.4163,-3.4611,-3.5035,-3.5811,-3.6603,-3.6707,-3.6829,-3.7105,-3.736,-3.7451,-3.7596,-3.7844,-3.8083,-3.8218,-3.8366,-3.8546,-3.8627,-3.8692,-3.8707,-3.8707,-3.8707,-3.8707,-3.8707,-3.5489,-3.5489,-3.5489,-3.5489,-3.5489,-3.5489,-3.5489,-3.5489,-3.5489,-3.4966,-3.4098,-3.2871,-3.2557,-3.3272,-3.3999,-3.5294,-3.6718,-3.7965,-3.8798,-3.8988,-3.8777,-3.8413,-3.7889,-3.7313,-3.6941,-3.7499,-3.728,-3.7138,-3.781,-3.8062,-3.8001,-3.7992,-3.8133,-3.7816,-3.6561,-3.5626,-3.4438,-3.356,-3.2869,-3.2444,-3.2789,-3.2639,-3.2334,-3.2688,-3.257,-3.2202,-3.1799,-3.1633,-3.141,-3.1292,-3.119,-3.119,-3.1004,-3.0852,-3.0784,-3.0649,-3.0463,-3.0211,-3.07,-3.0869,-3.0666,-3.0937,-3.1055,-3.114,-3.119,-3.119,-3.119,-3.119,-3.119,-3.119,-3.119,-3.119,-3.119,-3.119,-3.119,-3.119,-3.119,-3.119,-3.119,-3.119,-3.1207,-3.1309,-3.2056,-3.2395,-3.273,-3.278,-3.2513,-3.2848,-3.3085,-3.3254,-3.3719,-3.4138,-3.4673,-3.5039,-3.5428,-3.5849,-3.6159,-3.617,-3.6315,-3.6614,-3.6823,-3.6921,-3.7133,-3.7469,-3.7685,-3.7825,-3.8082,-3.8382,-3.8562,-3.8692,-3.8673,-3.8643,-3.8707,-3.8707,-3.8707,-3.5489,-3.5489,-3.5489,-3.5489,-3.5489,-3.5489,-3.5489,-3.5459,-3.5325,-3.4726,-3.3604,-3.2273,-3.1974,-3.267,-3.3473,-3.4878,-3.6508,-3.7627,-3.8667,-3.9503,-3.8971,-3.9242,-3.8792,-3.7889,-3.6806,-3.7466,-3.728,-3.7218,-3.8024,-3.8503,-3.9033,-3.9505,-3.9446,-3.8781,-3.6934,-3.6091,-3.5671,-3.5456,-3.4684,-3.4023,-3.3798,-3.3931,-3.3706,-3.3478,-3.3372,-3.3,-3.2442,-3.2107,-3.1853,-3.1495,-3.1241,-3.1207,-3.114,-3.1004,-3.0987,-3.1072,-3.1021,-3.1004,-3.1173,-3.1157,-3.1224,-3.119,-3.119,-3.119,-3.119,-3.119,-3.119,-3.119,-3.119,-3.119,-3.119,-3.119,-3.119,-3.119,-3.119,-3.119,-3.119,-3.119,-3.119,-3.1292,-3.1326,-3.1529,-3.2513,-3.3241,-3.3592,-3.3457,-3.2747,-3.2797,-3.3355,-3.3897,-3.4404,-3.4651,-3.512,-3.5261,-3.5518,-3.5552,-3.5705,-3.5694,-3.5832,-3.6139,-3.6329,-3.6395,-3.6684,-3.7057,-3.7267,-3.7379,-3.779,-3.8267,-3.8251,-3.8236,-3.8515,-3.8562,-3.8643,-3.8643,-3.8578,-3.5489,-3.5489,-3.5489,-3.5489,-3.5489,-3.5489,-3.5489,-3.5325,-3.4637,-3.4143,-3.3784,-3.2347,-3.1869,-3.2558,-3.3353,-3.4563,-3.6109,-3.7511,-3.87,-3.9825,-3.892,-3.8853,-3.8539,-3.7567,-3.6772,-3.7381,-3.728,-3.7472,-3.865,-3.8819,-3.9385,-3.9926,-3.9978,-3.9143,-3.7888,-3.7051,-3.6741,-3.5752,-3.5017,-3.4646,-3.4881,-3.4745,-3.4471,-3.4163,-3.4117,-3.3761,-3.3068,-3.2733,-3.2276,-3.1853,-3.1565,-3.1258,-3.1106,-3.0937,-3.0784,-3.092,-3.0903,-3.0734,-3.1173,-3.1495,-3.1667,-3.1427,-3.1326,-3.1343,-3.1224,-3.119,-3.119,-3.1207,-3.1207,-3.1207,-3.119,-3.1207,-3.1207,-3.119,-3.119,-3.119,-3.119,-3.119,-3.1224,-3.1413,-3.1515,-3.2513,-3.3478,-3.3829,-3.4201,-3.4624,-3.41,-3.3829,-3.4201,-3.4742,-3.5211,-3.525,-3.5464,-3.5543,-3.5616,-3.5616,-3.5616,-3.5644,-3.5667,-3.5761,-3.5871,-3.5963,-3.6028,-3.6312,-3.6606,-3.6925,-3.7341,-3.7649,-3.7632,-3.7721,-3.7912,-3.8167,-3.8267,-3.83,-3.83,-3.5489,-3.5489,-3.5489,-3.5489,-3.5489,-3.5489,-3.5489,-3.525,-3.4128,-3.3754,-3.3709,-3.2482,-3.2064,-3.2635,-3.3349,-3.4643,-3.6158,-3.7353,-3.87,-3.974,-3.8599,-3.8582,-3.8176,-3.7127,-3.6823,-3.7212,-3.7235,-3.7371,-3.8007,-3.8447,-3.9165,-3.9859,-4.0079,-3.9379,-3.8529,-3.8042,-3.7658,-3.6774,-3.6223,-3.5968,-3.5939,-3.5649,-3.5247,-3.497,-3.4793,-3.4539,-3.388,-3.3305,-3.2784,-3.2344,-3.1887,-3.1447,-3.114,-3.0903,-3.0734,-3.0869,-3.0886,-3.0784,-3.1224,-3.187,-3.1938,-3.1735,-3.1782,-3.1952,-3.1867,-3.1833,-3.1681,-3.1562,-3.136,-3.1275,-3.1275,-3.1292,-3.1549,-3.1546,-3.1579,-3.1613,-3.1562,-3.1596,-3.136,-3.1549,-3.2056,-3.3173,-3.424,-3.4472,-3.4704,-3.5143,-3.5498,-3.5233,-3.4928,-3.5301,-3.5616,-3.56,-3.5583,-3.56,-3.5616,-3.5616,-3.5616,-3.5616,-3.5616,-3.5616,-3.5622,-3.5778,-3.5667,-3.5667,-3.6186,-3.6623,-3.6805,-3.6999,-3.7133,-3.7135,-3.7154,-3.7451,-3.779,-3.7946,-3.8013,-3.5489,-3.5489,-3.5489,-3.5489,-3.5489,-3.5355,-3.537,-3.537,-3.4068,-3.3529,-3.3514,-3.2856,-3.2542,-3.2687,-3.3316,-3.4776,-3.6513,-3.7528,-3.8679,-3.9266,-3.8481,-3.8599,-3.8176,-3.7313,-3.6907,-3.6846,-3.6981,-3.7185,-3.7083,-3.7973,-3.8988,-3.974,-4.0028,-3.9522,-3.9084,-3.8865,-3.8454,-3.7861,-3.7384,-3.7088,-3.6838,-3.6612,-3.6038,-3.5656,-3.5346,-3.5098,-3.459,-3.4134,-3.3406,-3.2814,-3.2276,-3.1853,-3.1495,-3.1295,-3.1275,-3.1241,-3.1258,-3.1427,-3.1498,-3.2124,-3.2581,-3.2682,-3.3136,-3.3355,-3.3034,-3.2493,-3.2226,-3.1972,-3.1732,-3.1546,-3.1427,-3.1816,-3.2209,-3.2259,-3.2327,-3.2293,-3.2242,-3.2036,-3.1681,-3.1833,-3.2361,-3.3309,-3.4472,-3.4923,-3.5076,-3.5329,-3.5616,-3.5549,-3.5312,-3.5346,-3.5616,-3.5616,-3.56,-3.56,-3.5616,-3.5616,-3.5616,-3.5616,-3.5616,-3.5616,-3.5616,-3.5616,-3.5616,-3.5734,-3.6071,-3.6312,-3.6416,-3.6563,-3.6724,-3.6704,-3.6542,-3.7001,-3.7415,-3.7685,-3.7825,-3.5489,-3.5489,-3.5489,-3.5489,-3.5355,-3.4487,-3.4592,-3.525,-3.4098,-3.3709,-3.4159,-3.3006,-3.2841,-3.3216,-3.3509,-3.4973,-3.6381,-3.7575,-3.8369,-3.8582,-3.8345,-3.8176,-3.7669,-3.6958,-3.6806,-3.7212,-3.7483,-3.7415,-3.7669,-3.8244,-3.8633,-3.9283,-3.9876,-3.9588,-3.9469,-3.9503,-3.914,-3.8734,-3.8278,-3.7821,-3.7415,-3.7049,-3.6417,-3.5842,-3.5616,-3.5385,-3.5199,-3.4336,-3.3609,-3.3237,-3.2581,-3.2141,-3.2073,-3.2408,-3.2679,-3.2104,-3.2324,-3.2628,-3.2327,-3.3156,-3.3766,-3.3812,-3.4421,-3.4134,-3.3626,-3.2966,-3.2682,-3.2442,-3.1901,-3.1529,-3.1867,-3.2341,-3.2784,-3.3004,-3.3034,-3.3051,-3.2966,-3.2747,-3.2442,-3.2696,-3.3207,-3.3816,-3.4945,-3.5245,-3.5397,-3.5532,-3.5616,-3.5616,-3.5616,-3.5616,-3.5616,-3.5616,-3.5616,-3.5616,-3.5616,-3.5616,-3.5616,-3.5616,-3.5616,-3.5667,-3.5718,-3.5718,-3.565,-3.5711,-3.5898,-3.592,-3.592,-3.6075,-3.627,-3.6075,-3.5963,-3.6522,-3.702,-3.7249,-3.7685,-3.5489,-3.5489,-3.5489,-3.5489,-3.531,-3.4367,-3.4397,-3.4831,-3.3948,-3.3754,-3.4008,-3.3544,-3.3365,-3.3487,-3.394,-3.5027,-3.6748,-3.7211,-3.8091,-3.9131,-3.8058,-3.7872,-3.7297,-3.6755,-3.6535,-3.707,-3.7459,-3.7449,-3.7601,-3.8125,-3.8616,-3.9114,-3.974,-3.9757,-3.969,-3.9808,-3.9808,-3.9309,-3.8802,-3.8261,-3.7719,-3.7161,-3.64,-3.5791,-3.5616,-3.5616,-3.5532,-3.4489,-3.4201,-3.3897,-3.3309,-3.3021,-3.2903,-3.3152,-3.3305,-3.2814,-3.2983,-3.3068,-3.2966,-3.3766,-3.4286,-3.4675,-3.5182,-3.5042,-3.4315,-3.3592,-3.3322,-3.3017,-3.2104,-3.1546,-3.2239,-3.2899,-3.3322,-3.3744,-3.3778,-3.3829,-3.3694,-3.3541,-3.3626,-3.3829,-3.4235,-3.4726,-3.5216,-3.5464,-3.5616,-3.5616,-3.5616,-3.5616,-3.5616,-3.5616,-3.5616,-3.5616,-3.5616,-3.5616,-3.5616,-3.565,-3.5752,-3.5769,-3.5701,-3.5752,-3.5859,-3.5791,-3.5633,-3.5616,-3.5644,-3.5689,-3.5717,-3.5689,-3.5739,-3.5616,-3.5667,-3.6122,-3.6563,-3.6766,-3.7323,-3.5489,-3.5489,-3.5489,-3.5444,-3.5325,-3.4607,-3.4339,-3.4309,-3.3694,-3.3544,-3.377,-3.4219,-3.4206,-3.4273,-3.46,-3.5631,-3.6809,-3.7353,-3.799,-3.9774,-3.7862,-3.7229,-3.7364,-3.7127,-3.6603,-3.6518,-3.6834,-3.7516,-3.6715,-3.7324,-3.8447,-3.9005,-3.974,-3.9977,-3.9994,-4.0028,-3.9994,-3.9791,-3.9039,-3.8345,-3.7804,-3.7161,-3.6417,-3.5774,-3.5616,-3.56,-3.5566,-3.538,-3.5216,-3.4726,-3.4353,-3.3998,-3.3914,-3.3744,-3.3711,-3.3643,-3.3778,-3.3694,-3.3761,-3.432,-3.4573,-3.4878,-3.5199,-3.5363,-3.4856,-3.3863,-3.3457,-3.3355,-3.2577,-3.2374,-3.2899,-3.344,-3.388,-3.4336,-3.4573,-3.459,-3.4523,-3.4366,-3.437,-3.4556,-3.4742,-3.5216,-3.5385,-3.5616,-3.5616,-3.5616,-3.5616,-3.5616,-3.5633,-3.5633,-3.5616,-3.5616,-3.5616,-3.5616,-3.5616,-3.5701,-3.596,-3.5977,-3.5819,-3.5819,-3.591,-3.5769,-3.5616,-3.5616,-3.5616,-3.5616,-3.5622,-3.5616,-3.5616,-3.5616,-3.5711,-3.5876,-3.6122,-3.6374,-3.6865,-3.5489,-3.5489,-3.5489,-3.522,-3.4666,-3.4023,-3.3469,-3.3036,-3.338,-3.38,-3.4234,-3.446,-3.4984,-3.5552,-3.5401,-3.6377,-3.7814,-3.7669,-3.7961,-3.8244,-3.7313,-3.7015,-3.71,-3.6998,-3.6626,-3.6897,-3.7263,-3.7628,-3.7493,-3.7797,-3.8294,-3.9005,-3.9723,-4.0096,-4.0113,-4.0113,-4.0079,-4.0028,-3.9022,-3.8379,-3.799,-3.7212,-3.6457,-3.5893,-3.5616,-3.5616,-3.5464,-3.5081,-3.4827,-3.4527,-3.4489,-3.4658,-3.5025,-3.5025,-3.4759,-3.4455,-3.4636,-3.4573,-3.4539,-3.481,-3.5131,-3.5267,-3.5481,-3.5549,-3.5126,-3.4044,-3.3491,-3.3491,-3.3322,-3.3241,-3.3457,-3.3931,-3.4404,-3.4839,-3.5261,-3.5261,-3.5261,-3.5177,-3.5076,-3.5143,-3.5284,-3.5419,-3.5549,-3.5616,-3.5616,-3.5616,-3.5616,-3.5616,-3.5667,-3.5667,-3.5616,-3.5616,-3.5616,-3.5616,-3.5616,-3.5684,-3.5926,-3.5943,-3.5769,-3.5819,-3.5921,-3.5769,-3.5616,-3.5616,-3.5616,-3.5616,-3.5616,-3.5616,-3.5616,-3.5616,-3.5644,-3.5788,-3.592,-3.6118,-3.6563,-3.5325,-3.51,-3.5385,-3.51,-3.4563,-3.4382,-3.3709,-3.2826,-3.3514,-3.3994,-3.4173,-3.4685,-3.5426,-3.6258,-3.6096,-3.6897,-3.8345,-3.8044,-3.8526,-3.8447,-3.7533,-3.7218,-3.7066,-3.7015,-3.6457,-3.6603,-3.7127,-3.755,-3.8193,-3.843,-3.8734,-3.9131,-3.9723,-4.0113,-4.0113,-4.0113,-4.0113,-4.0045,-3.887,-3.843,-3.8125,-3.7144,-3.6231,-3.565,-3.5616,-3.5616,-3.5498,-3.5182,-3.5115,-3.5013,-3.5047,-3.5131,-3.5414,-3.5464,-3.5329,-3.5177,-3.5245,-3.5436,-3.5233,-3.5318,-3.5616,-3.5616,-3.5616,-3.5616,-3.5464,-3.4501,-3.41,-3.3914,-3.2425,-3.2138,-3.344,-3.4134,-3.4624,-3.5076,-3.5346,-3.5464,-3.5464,-3.543,-3.538,-3.5414,-3.5464,-3.5498,-3.5616,-3.5616,-3.5684,-3.6113,-3.6045,-3.5926,-3.5904,-3.5684,-3.5633,-3.5616,-3.5616,-3.5616,-3.5616,-3.5701,-3.5876,-3.5825,-3.5735,-3.5735,-3.5752,-3.5684,-3.5616,-3.5616,-3.5616,-3.5616,-3.5616,-3.5616,-3.5616,-3.5616,-3.5644,-3.5694,-3.5783,-3.5871,-3.6139,-3.507,-3.4711,-3.5145,-3.504,-3.4607,-3.5085,-3.4322,-3.3051,-3.3918,-3.4236,-3.415,-3.5189,-3.5629,-3.6097,-3.6508,-3.7411,-3.7971,-3.8017,-3.8777,-3.8903,-3.7811,-3.7533,-3.7466,-3.7422,-3.7077,-3.684,-3.7077,-3.7956,-3.8819,-3.887,-3.8937,-3.9233,-3.9639,-4.0113,-4.0113,-4.0113,-4.0096,-3.9926,-3.9326,-3.8988,-3.8091,-3.6975,-3.6214,-3.5802,-3.565,-3.5616,-3.56,-3.5583,-3.5583,-3.5549,-3.5481,-3.5515,-3.5549,-3.5616,-3.56,-3.5498,-3.5498,-3.5566,-3.5532,-3.5515,-3.5616,-3.5616,-3.5616,-3.5549,-3.5414,-3.5059,-3.4658,-3.3981,-3.251,-3.229,-3.3592,-3.4421,-3.489,-3.5228,-3.5447,-3.5616,-3.5616,-3.5616,-3.5616,-3.5616,-3.5616,-3.5616,-3.565,-3.5633,-3.596,-3.6366,-3.6524,-3.6417,-3.6265,-3.5853,-3.5616,-3.5616,-3.5616,-3.5616,-3.5616,-3.5667,-3.5808,-3.5825,-3.5752,-3.5667,-3.5616,-3.5616,-3.5616,-3.5616,-3.5616,-3.5616,-3.5616,-3.5616,-3.5616,-3.5616,-3.5622,-3.5644,-3.5667,-3.5711,-3.5667,-3.4921,-3.528,-3.4876,-3.4623,-3.4533,-3.4683,-3.4128,-3.3529,-3.4129,-3.4711,-3.5201,-3.5952,-3.6704,-3.7377,-3.7486,-3.8124,-3.8899,-3.8524,-3.849,-3.8768,-3.8176,-3.7956,-3.7922,-3.8007,-3.8379,-3.8227,-3.7939,-3.8227,-3.9089,-3.914,-3.9309,-3.9825,-3.9893,-4.0113,-4.0113,-4.0113,-4.0079,-3.9893,-3.9571,-3.9123,-3.8674,-3.7709,-3.6846,-3.6349,-3.596,-3.5735,-3.56,-3.56,-3.56,-3.56,-3.5616,-3.5616,-3.5616,-3.5616,-3.5616,-3.5616,-3.5616,-3.5616,-3.5616,-3.5616,-3.5616,-3.5616,-3.5616,-3.56,-3.538,-3.5047,-3.4895,-3.5165,-3.4117,-3.3761,-3.459,-3.4928,-3.5329,-3.543,-3.56,-3.5616,-3.5616,-3.5616,-3.5616,-3.5616,-3.5616,-3.5667,-3.5791,-3.5926,-3.6231,-3.6535,-3.6643,-3.6502,-3.6163,-3.5893,-3.5616,-3.5616,-3.5616,-3.5616,-3.5616,-3.5616,-3.5684,-3.5735,-3.5752,-3.5667,-3.5616,-3.5616,-3.5616,-3.5616,-3.5616,-3.5616,-3.5616,-3.5616,-3.5616,-3.5616,-3.5616,-3.5622,-3.5616,-3.5616,-3.5616]},{"header":{"parameterUnit":"m.s-1","parameterCategory":1,"la1":31.0,"la2":29.5877,"lo1":-88.7671,"lo2":-86.6584,"dy":0.0162,"dx":0.0185,"nx":115,"ny":88,"refTime":"2024-03-29T12:00:00:Z","depth":0,"parameterNumber":3,"parameterNumberName":"V-component_of_WINDS"},"data":[0.0,0.0,0.0,0.0,0.0,0.0,0.0,0.0,0.0,0.0,0.0,0.0,0.0,0.0,0.0,0.0,0.0,0.0,0.0,0.0,0.0,0.0,0.0,0.0,0.0,0.0,0.0,0.0,0.0,0.0,0.0,0.0,0.0,0.0,0.0,0.0,0.0,0.0,0.0,0.0,0.0,0.0,0.0,0.0,0.0,0.0,0.0,0.0,0.0,0.0,0.0,0.0,0.0,0.0,0.0,0.0,0.0,0.0,0.0,0.0,0.0,0.0,0.0,0.0,0.0,0.0,0.0,0.0,0.0,0.0,0.0,0.0,0.0,0.0,0.0,0.0,0.0,0.0,0.0,0.0,0.0,0.0,0.0,0.0,0.0,0.0,0.0,0.0,0.0,0.0,0.0,0.0,0.0,0.0,0.0,0.0,0.0,0.0,0.0,0.0,0.0,0.0,0.0,0.0,0.0,0.0,0.0,0.0,0.0,0.0,0.0,0.0,0.0,0.0,0.0,0.0,0.0,0.0,0.0,0.0,0.0,0.0,0.0,0.0,0.0,0.0,0.0,0.0,0.0,0.0,0.0,0.0,0.0,0.0,0.0,0.0,0.0,0.0,0.0,0.0,0.0,0.0,0.0,0.0,0.0,0.0,0.0,0.0,0.0,0.0,0.0,0.0,0.0,0.0,0.0,0.0,0.0,0.0,0.0,0.0,0.0,0.0,0.0,0.0,0.0,0.0,0.0,0.0,0.0,0.0,0.0,0.0,0.0,0.0,0.0,0.0,0.0,0.0,0.0,0.0,0.0,0.0,0.0,0.0,0.0,0.0,0.0,0.0,0.0,0.0,0.0,0.0,0.0,0.0,0.0,0.0,0.0,0.0,0.0,0.0,0.0,0.0,0.0,0.0,0.0,0.0,0.0,0.0,0.0,0.0,0.0,0.0,0.0,0.0,0.0,0.0,0.0,0.0,0.0,0.0,0.0,0.0,0.0,0.0,0.0,0.0,0.0,0.0,0.0,0.0,0.0,0.0,0.0,0.0,0.0,0.0,0.0,0.0,0.0,0.0,0.0,0.0,0.0,0.0,0.0,0.0,0.0,0.0,0.0,0.0,0.0,0.0,0.0,0.0,0.0,0.0,0.0,0.0,0.0,0.0,0.0,0.0,0.0,0.0,0.0,0.0,0.0,0.0,0.0,0.0,0.0,0.0,0.0,0.0,0.0,0.0,0.0,0.0,0.0,0.0,0.0,0.0,0.0,0.0,0.0,0.0,0.0,0.0,0.0,0.0,0.0,0.0,0.0,0.0,0.0,0.0,0.0,0.0,0.0,0.0,0.0,0.0,0.0,0.0,0.0,0.0,0.0,0.0,0.0,0.0,0.0,0.0,0.0,0.0,0.0,0.0,0.0,0.0,0.0,0.0,0.0,0.0,0.0,0.0,0.0,0.0,0.0,0.0,0.0,0.0,0.0,0.0,0.0,0.0,0.0,0.0,0.0,0.0,0.0,0.0,0.0,0.0,0.0,0.0,0.0,0.0,0.0,0.0,0.0,0.0,0.0,0.0,0.0,0.0,0.0,0.0,0.0,0.0,0.0,0.0,0.0,0.0,0.0,0.0,0.0,0.0,0.0,0.0,0.0,0.0,0.0,0.0,0.0,0.0,0.0,0.0,0.0,0.0,0.0,0.0,0.0,0.0,0.0,0.0,0.0,0.0,0.0,0.0,0.0,0.0,0.0,0.0,0.0,0.0,0.0,0.0,0.0,0.0,0.0,0.0,0.0,0.0,0.0,0.0,0.0,0.0,0.0,0.0,0.0,0.0,0.0,0.0,0.0,0.0,0.0,0.0,0.0,0.0,0.0,0.0,0.0,0.0,0.0,0.0,0.0,0.0,0.0,0.0,0.0,0.0,0.0,0.0,0.0,0.0,0.0,0.0,0.0,0.0,0.0,0.0,0.0,0.0,0.0,0.0,0.0,0.0,0.0,0.0,0.0,0.0,0.0,0.0,0.0,0.0,0.0,0.0,0.0,0.0,0.0,0.0,0.0,0.0,0.0,0.0,0.0,0.0,0.0,0.0,0.0,0.0,0.0,0.0,0.0,0.0,0.0,0.0,0.0,0.0,0.0,0.0,0.0,0.0,0.0,0.0,0.0,0.0,0.0,0.0,0.0,0.0,0.0,0.0,0.0,0.0,0.0,0.0,0.0,0.0,0.0,0.0,0.0,0.0,0.0,0.0,0.0,0.0,0.0,0.0,0.0,0.0,0.0,0.0,0.0,0.0,0.0,0.0,0.0,0.0,0.0,0.0,0.0,0.0,0.0,0.0,0.0,0.0,0.0,0.0,0.0,0.0,0.0,0.0,0.0,0.0,0.0,0.0,0.0,0.0,0.0,0.0,0.0,0.0,0.0,0.0,0.0,0.0,0.0,0.0,0.0,0.0,0.0,0.0,0.0,0.0,0.0,0.0,0.0,0.0,0.0,0.0,0.0,0.0,0.0,0.0,0.0,0.0,0.0,0.0,0.0,0.0,0.0,0.0,0.0,0.0,0.0,0.0,0.0,0.0,0.0,0.0,0.0,0.0,0.0,0.0,0.0,0.0,0.0,0.0,0.0,0.0,0.0,0.0,0.0,0.0,0.0,0.0,0.0,0.0,0.0,0.0,0.0,0.0,0.0,0.0,0.0,0.0,0.0,0.0,0.0,0.0,0.0,0.0,0.0,0.0,0.0,0.0,0.0,0.0,0.0,0.0,0.0,0.0,0.0,0.0,0.0,0.0,0.0,0.0,0.0,0.0,0.0,0.0,0.0,0.0,0.0,0.0,0.0,0.0,0.0,0.0,0.0,0.0,0.0,0.0,0.0,0.0,0.0,0.0,0.0,0.0,0.0,0.0,0.0,0.0,0.0,0.0,0.0,0.0,0.0,0.0,0.0,0.0,0.0,0.0,0.0,0.0,0.0,0.0,0.0,0.0,0.0,0.0,0.0,0.0,0.0,0.0,0.0,0.0,0.0,0.0,0.0,0.0,0.0,0.0,0.0,0.0,0.0,0.0,0.0,0.0,0.0,0.0,0.0,0.0,0.0,0.0,0.0,0.0,0.0,0.0,0.0,0.0,0.0,0.0,0.0,0.0,0.0,0.0,0.0,0.0,0.0,0.0,0.0,0.0,0.0,0.0,0.0,0.0,0.0,0.0,0.0,0.0,0.0,0.0,0.0,0.0,0.0,0.0,0.0,0.0,0.0,0.0,0.0,0.0,0.0,0.0,0.0,0.0,0.0,0.0,0.0,0.0,0.0,0.0,0.0,0.0,0.0,0.0,0.0,0.0,0.0,0.0,0.0,0.0,0.0,0.0,0.0,0.0,0.0,0.0,0.0,0.0,0.0,0.0,0.0,0.0,0.0,0.0,0.0,0.0,0.0,0.0,0.0,0.0,0.0,0.0,0.0,0.0,0.0,0.0,0.0,0.0,0.0,0.0,0.0,0.0,0.0,0.0,0.0,0.0,0.0,0.0,0.0,0.0,0.0,0.0,0.0,0.0,0.0,0.0,0.0,0.0,0.0,0.0,0.0,0.0,0.0,0.0,0.0,0.0,0.0,0.0,0.0,0.0,0.0,0.0,0.0,0.0,0.0,0.0,0.0,0.0,0.0,0.0,0.0,0.0,0.0,0.0,0.0,0.0,0.0,0.0,0.0,0.0,0.0,0.0,0.0,0.0,0.0,0.0,0.0,0.0,0.0,0.0,0.0,0.0,0.0,0.0,0.0,0.0,0.0,0.0,0.0,0.0,0.0,0.0,0.0,0.0,0.0,0.0,0.0,0.0,0.0,0.0,0.0,0.0,0.0,0.0,0.0,0.0,0.0,0.0,0.0,0.0,0.0,0.0,0.0,0.0,0.0,0.0,0.0,0.0,0.0,0.0,0.0,0.0,0.0,0.0,0.0,0.0,0.0,0.0,0.0,0.0,0.0,0.0,0.0,0.0,0.0,0.0,0.0,0.0,0.0,0.0,0.0,0.0,0.0,0.0,0.0,0.0,0.0,0.0,0.0,0.0,0.0,0.0,0.0,0.0,0.0,0.0,0.0,0.0,0.0,0.0,0.0,0.0,0.0,0.0,0.0,0.0,0.0,0.0,0.0,0.0,0.0,0.0,0.0,0.0,0.0,0.0,0.0,0.0,0.0,0.0,0.0,0.0,0.0,0.0,0.0,0.0,0.0,0.0,0.0,0.0,0.0,0.0,0.0,0.0,0.0,0.0,0.0,0.0,0.0,0.0,0.0,0.0,-1.292,0.0,0.0,0.0,0.0,0.0,0.0,0.0,0.0,0.0,0.0,0.0,0.0,0.0,0.0,0.0,0.0,0.0,0.0,0.0,0.0,0.0,0.0,0.0,0.0,0.0,0.0,0.0,0.0,0.0,0.0,0.0,0.0,0.0,0.0,0.0,0.0,0.0,0.0,0.0,0.0,0.0,0.0,0.0,0.0,0.0,0.0,0.0,0.0,0.0,0.0,0.0,0.0,0.0,0.0,0.0,0.0,0.0,0.0,0.0,0.0,0.0,0.0,0.0,0.0,0.0,0.0,0.0,0.0,0.0,0.0,0.0,0.0,0.0,0.0,0.0,0.0,0.0,0.0,0.0,0.0,0.0,0.0,0.0,0.0,0.0,0.0,0.0,0.0,0.0,0.0,0.0,0.0,0.0,0.0,0.0,0.0,0.0,0.0,0.0,0.0,0.0,0.0,0.0,0.0,0.0,0.0,0.0,0.0,0.0,0.0,-0.4943,-0.4746,-0.8015,-1.084,-1.293,0.0,0.0,0.0,0.0,0.0,0.0,0.0,0.0,0.0,0.0,0.0,0.0,0.0,0.0,0.0,0.0,0.0,0.0,0.0,0.0,0.0,0.0,0.0,0.0,0.0,0.0,0.0,0.0,0.0,0.0,0.0,0.0,0.0,0.0,0.0,0.0,0.0,0.0,0.0,0.0,0.0,0.0,0.0,0.0,0.0,0.0,0.0,0.0,0.0,0.0,0.0,0.0,0.0,0.0,0.0,0.0,0.0,0.0,0.0,0.0,0.0,0.0,0.0,0.0,0.0,0.0,0.0,0.0,0.0,0.0,0.0,0.0,0.0,0.0,0.0,0.0,0.0,0.0,0.0,0.0,0.0,0.0,0.0,0.0,0.0,0.0,0.0,0.0,0.0,0.0,0.0,0.0,0.0,0.0,0.0,0.0,0.0,0.0,0.0,0.0,0.0,0.0,0.0,0.0,0.0,0.0,0.0,0.0,0.0,0.0,0.0,0.0,-0.8108,-1.0919,-1.3009,0.0,0.0,0.0,0.0,0.0,0.0,0.0,0.0,0.0,0.0,0.0,0.0,0.0,0.0,0.0,0.0,0.0,0.0,0.0,0.0,0.0,0.0,0.0,0.0,0.0,0.0,0.0,0.0,0.0,0.0,0.0,0.0,0.0,0.0,0.0,0.0,0.0,0.0,0.0,0.0,0.0,0.0,0.0,0.0,0.0,0.0,0.0,0.0,0.0,0.0,0.0,0.0,0.0,0.0,0.0,0.0,0.0,0.0,0.0,0.0,0.0,0.0,0.0,0.0,0.0,0.0,0.0,0.0,0.0,0.0,0.0,0.0,0.0,0.0,0.0,0.0,0.0,0.0,0.0,0.0,0.0,0.0,0.0,0.0,0.0,0.0,0.0,0.0,0.0,0.0,0.0,0.0,0.0,0.0,0.0,0.0,0.0,0.0,0.0,0.0,0.0,0.0,0.0,0.0,0.0,0.0,0.0,0.0,0.0,0.0,-0.4731,-0.4739,-0.8033,0.0,-1.3109,0.0,0.0,0.0,0.0,0.0,0.0,0.0,0.0,0.0,0.0,0.0,0.0,0.0,0.0,0.0,0.0,0.0,0.0,0.0,0.0,0.0,0.0,0.0,0.0,0.0,0.0,0.0,0.0,0.0,0.0,0.0,0.0,0.0,0.0,0.0,0.0,0.0,0.0,0.0,0.0,0.0,0.0,0.0,0.0,0.0,0.0,0.0,0.0,0.0,0.0,0.0,0.0,0.0,0.0,0.0,0.0,0.0,0.0,0.0,0.0,0.0,0.0,0.0,0.0,0.0,0.0,0.0,0.0,0.0,0.0,0.0,0.0,0.0,0.0,0.0,0.0,0.0,0.0,0.0,0.0,0.0,0.0,0.0,0.0,0.0,0.0,0.0,0.0,0.0,0.0,0.0,0.0,0.0,0.0,0.0,0.0,0.0,0.0,0.0,0.0,0.0,0.0,0.0,0.0,0.0,0.0,0.0,0.0,0.0,0.0,-0.3917,-0.5079,-0.9663,-1.2311,0.0,0.0,0.0,0.0,0.0,0.0,0.0,0.0,0.0,0.0,0.0,0.0,0.0,0.0,0.0,0.0,0.0,0.0,0.0,0.0,0.0,0.0,0.0,0.0,0.0,0.0,0.0,0.0,0.0,0.0,0.0,0.0,0.0,0.0,0.0,0.0,0.0,0.0,0.0,0.0,0.0,0.0,0.0,0.0,0.0,0.0,0.0,0.0,0.0,0.0,0.0,0.0,0.0,0.0,0.0,0.0,0.0,0.0,0.0,0.0,0.0,0.0,0.0,0.0,0.0,0.0,0.0,0.0,0.0,0.0,0.0,0.0,0.0,0.0,0.0,0.0,0.0,0.0,0.0,0.0,0.0,0.0,0.0,0.0,0.0,0.0,0.0,0.0,0.0,0.0,0.0,0.0,0.0,0.0,0.0,0.0,0.0,0.0,0.0,0.0,0.0,0.0,0.0,0.0,0.0,0.0,0.0,0.0,0.0,0.0,-0.1583,-0.3515,-0.5932,-1.0852,-1.322,-1.2549,0.0,0.0,0.0,0.0,0.0,0.0,0.0,0.0,0.0,0.0,0.0,0.0,0.0,0.0,0.0,0.0,0.0,0.0,0.0,0.0,0.0,0.0,0.0,0.0,0.0,0.0,0.0,0.0,0.0,0.0,0.0,0.0,0.0,0.0,0.0,0.0,0.0,0.0,0.0,0.0,0.0,0.0,0.0,0.0,0.0,0.0,0.0,0.0,0.0,0.0,0.0,0.0,0.0,0.0,0.0,0.0,0.0,0.0,0.0,0.0,0.0,0.0,0.0,0.0,0.0,0.0,0.0,0.0,0.0,0.0,0.0,0.0,0.0,0.0,0.0,0.0,0.0,0.0,0.0,0.0,0.0,0.0,0.0,0.0,0.0,0.0,0.0,0.0,0.0,0.0,0.0,0.0,0.0,0.0,0.0,0.0,0.0,0.0,0.0,0.0,0.0,0.0,0.0,0.0,0.0,0.0,0.0,0.0,0.0,-0.1453,-0.3753,-0.6921,-1.1094,-1.3176,0.0,0.0,0.0,0.0,0.0,0.0,0.0,0.0,0.0,0.0,0.0,0.0,0.0,0.0,0.0,0.0,0.0,0.0,0.0,0.0,0.0,0.0,0.0,0.0,0.0,0.0,0.0,0.0,0.0,0.0,0.0,0.0,0.0,0.0,0.0,0.0,0.0,0.0,0.0,0.0,0.0,0.0,0.0,0.0,0.0,0.0,0.0,0.0,0.0,0.0,0.0,0.0,0.0,0.0,0.0,0.0,0.0,0.0,0.0,0.0,0.0,0.0,0.0,0.0,0.0,0.0,0.0,0.0,0.0,0.0,0.0,0.0,0.0,0.0,0.0,0.0,0.0,0.0,0.0,0.0,0.0,0.0,0.0,0.0,0.0,0.0,0.0,0.0,0.0,0.0,0.0,0.0,0.0,0.0,0.0,0.0,0.0,0.0,0.0,0.0,0.0,0.0,0.0,0.0,0.0,0.0,0.0,0.0,0.0,0.1161,-0.2183,-0.455,-0.5798,-1.0542,-1.2965,0.0,0.0,0.0,0.0,0.0,0.0,0.0,0.0,0.0,0.0,0.0,0.0,0.0,0.0,0.0,0.0,0.0,0.0,0.0,0.0,0.0,0.0,0.0,0.0,0.0,0.0,0.0,0.0,0.0,0.0,0.0,0.0,0.0,0.0,0.0,0.0,0.0,0.0,0.0,0.0,0.0,0.0,0.0,0.0,0.0,0.0,0.0,0.0,0.0,0.0,0.0,0.0,0.0,0.0,0.0,0.0,0.0,0.0,0.0,0.0,0.0,0.0,0.0,0.0,0.0,0.0,0.0,0.0,0.0,0.0,0.0,0.0,0.0,0.0,0.0,0.0,0.0,0.0,0.0,0.0,0.0,0.0,0.0,0.0,0.0,0.0,0.0,0.0,0.0,0.0,0.0,0.0,0.0,0.0,0.0,0.0,0.0,0.0,0.0,0.0,0.0,0.0,0.0,0.0,0.0,0.0,0.0,0.0,0.0,0.1973,0.0,-0.3726,-0.4709,-0.9165,-1.1774,0.0,0.0,0.0,0.0,0.0,0.0,0.0,0.0,0.0,0.0,0.0,0.0,0.0,0.0,0.0,0.0,0.0,0.0,0.0,0.0,0.0,0.0,0.0,0.0,0.0,0.0,0.0,0.0,0.0,0.0,0.0,0.0,0.0,0.0,0.0,0.0,0.0,0.0,0.0,0.0,0.0,0.0,0.0,0.0,0.0,0.0,0.0,0.0,0.0,0.0,0.0,0.0,0.0,0.0,0.0,0.0,0.0,0.0,0.0,0.0,0.0,0.0,0.0,0.0,0.0,0.0,0.0,0.0,0.0,0.0,0.0,0.0,0.0,0.0,0.0,0.0,0.0,0.0,0.0,0.0,0.0,0.0,0.0,0.0,0.0,0.0,0.0,0.0,0.0,0.0,0.0,0.0,0.0,0.0,0.0,0.0,0.0,0.0,0.0,0.0,0.0,0.0,0.0,0.0,0.0,0.0,0.0,0.0,0.3428,0.2093,0.0886,-0.1195,-0.3946,-0.7117,-0.9583,0.0,0.0,0.0,0.0,0.0,0.0,0.0,0.0,0.0,0.0,0.0,0.0,0.0,0.0,0.0,0.0,0.0,0.0,0.0,0.0,0.0,0.0,0.0,0.0,0.0,0.0,0.0,0.0,0.0,0.0,0.0,0.0,0.0,0.0,0.0,0.0,0.0,0.0,0.0,0.0,0.0,0.0,0.0,0.0,0.0,0.0,0.0,0.0,0.0,0.0,0.0,0.0,0.0,0.0,0.0,0.0,0.0,0.0,0.0,0.0,0.0,0.0,0.0,0.0,0.0,0.0,0.0,0.0,0.0,0.0,0.0,0.0,0.0,0.0,0.0,0.0,0.0,0.0,0.0,0.0,0.0,0.0,0.0,0.0,0.0,0.0,0.0,0.0,0.0,0.0,0.0,0.0,0.0,0.0,0.0,0.0,0.0,0.0,0.0,0.0,0.0,0.0,0.0,0.0,0.0,0.0,0.0,0.0,0.0,0.3428,0.1351,-0.1393,-0.4833,-0.7164,-0.9615,0.0,0.0,0.0,0.0,0.0,0.0,0.0,0.0,0.0,0.0,0.0,0.0,0.0,0.0,0.0,0.0,0.0,0.0,0.0,0.0,0.0,0.0,0.0,0.0,0.0,0.0,0.0,0.0,0.0,0.0,0.0,0.0,0.0,0.0,0.0,0.0,0.0,0.0,0.0,0.0,0.0,0.0,0.0,0.0,0.0,0.0,0.0,0.0,0.0,0.0,0.0,0.0,0.0,0.0,0.0,0.0,0.0,0.0,0.0,0.0,0.0,0.0,0.0,0.0,0.0,0.0,0.0,0.0,0.0,0.0,0.0,0.0,0.0,0.0,0.0,0.0,0.0,0.0,0.0,0.0,0.0,0.0,0.0,0.0,0.0,0.0,0.0,0.0,0.0,0.0,0.0,0.0,0.0,0.0,0.0,0.0,0.0,0.0,0.0,0.0,0.0,0.0,0.0,0.0,0.0,0.0,0.0,0.0,0.0,0.4224,0.2766,-0.0244,-0.4972,-0.606,-0.8462,-1.2272,0.0,0.0,0.0,0.0,0.0,0.0,0.0,0.0,0.0,0.0,0.0,0.0,0.0,0.0,0.0,0.0,0.0,0.0,0.0,0.0,0.0,0.0,0.0,0.0,0.0,0.0,0.0,0.0,0.0,0.0,0.0,0.0,0.0,0.0,0.0,0.0,0.0,0.0,0.0,0.0,0.0,0.0,0.0,0.0,0.0,0.0,0.0,0.0,0.0,0.0,0.0,0.0,0.0,0.0,0.0,0.0,0.0,0.0,0.0,0.0,0.0,0.0,0.0,0.0,0.0,0.0,0.0,0.0,0.0,0.0,0.0,0.0,0.0,0.0,0.0,0.0,0.0,0.0,0.0,0.0,0.0,0.0,0.0,0.0,0.0,0.0,0.0,0.0,0.0,0.0,0.0,0.0,0.0,0.0,0.0,0.0,0.0,0.0,0.0,0.0,0.0,0.0,0.0,0.0,0.0,0.0,0.0,0.0,0.4416,0.4832,0.2054,-0.4195,-0.4173,-0.6468,0.0,0.0,0.0,0.0,0.0,0.0,0.0,0.0,0.0,0.0,0.0,0.0,0.0,0.0,0.0,0.0,0.0,0.0,0.0,0.0,0.0,0.0,0.0,0.0,0.0,0.0,0.0,0.0,0.0,0.0,0.0,0.0,0.0,0.0,0.0,0.0,0.0,0.0,0.0,0.0,0.0,0.0,0.0,0.0,0.0,0.0,0.0,0.0,0.0,0.0,0.0,0.0,0.0,0.0,0.0,0.0,0.0,0.0,0.0,0.0,0.0,0.0,0.0,0.0,0.0,0.0,0.0,0.0,0.0,0.0,0.0,0.0,0.0,0.0,0.0,0.0,0.0,0.0,0.0,0.0,0.0,0.0,0.0,0.0,0.0,0.0,0.0,0.0,0.0,0.0,0.0,0.0,0.0,0.0,0.0,0.0,0.0,0.0,0.0,0.0,0.0,0.0,0.0,0.0,0.0,0.0,0.0,0.0,0.0,0.6127,0.5423,0.2465,-0.292,-0.3702,-0.6168,0.0,0.0,0.0,0.0,0.0,0.0,0.0,0.0,0.0,0.0,0.0,0.0,0.0,0.0,0.0,0.0,0.0,0.0,0.0,0.0,0.0,0.0,0.0,0.0,0.0,0.0,0.0,0.0,0.0,0.0,0.0,0.0,0.0,0.0,0.0,0.0,0.0,0.0,0.0,0.0,0.0,0.0,0.0,0.0,0.0,0.0,0.0,0.0,0.0,0.0,0.0,0.0,0.0,0.0,0.0,0.0,0.0,0.0,0.0,0.0,0.0,0.0,0.0,0.0,0.0,0.0,0.0,0.0,0.0,0.0,0.0,0.0,0.0,0.0,0.0,0.0,0.0,0.0,0.0,0.0,0.0,0.0,0.0,0.0,0.0,0.0,0.0,0.0,0.0,0.0,0.0,0.0,0.0,0.0,0.0,0.0,0.0,0.0,0.0,0.0,0.0,0.0,0.0,0.0,0.0,0.0,0.0,0.0,0.8444,0.6806,0.5669,0.3311,-0.0389,-0.2949,-0.6235,0.0,0.0,0.0,0.0,0.0,0.0,0.0,0.0,0.0,0.0,0.0,0.0,0.0,0.0,0.0,0.0,0.0,0.0,0.0,0.0,0.0,0.0,0.0,0.0,0.0,0.0,0.0,0.0,0.0,0.0,0.0,0.0,0.0,0.0,0.0,0.0,0.0,0.0,0.0,0.0,0.0,0.0,0.0,0.0,0.0,0.0,0.0,0.0,0.0,0.0,0.0,0.0,0.0,0.0,0.0,0.0,0.0,0.0,0.0,0.0,0.0,0.0,0.0,0.0,0.0,0.0,0.0,0.0,0.0,0.0,0.0,0.0,0.0,0.0,0.0,0.0,0.0,0.0,0.0,0.0,0.0,0.0,0.0,0.0,0.0,0.0,0.0,0.0,0.0,0.0,0.0,0.0,0.0,0.0,0.0,0.0,0.0,0.0,0.0,0.0,0.0,0.0,0.0,0.0,0.0,0.0,0.0,0.0,0.8705,0.7179,0.6016,0.4519,0.2676,-0.2092,-0.6357,0.0,0.0,0.0,0.0,0.0,0.0,0.0,0.0,0.0,0.0,0.0,0.0,0.0,0.0,0.0,0.0,0.0,0.0,0.0,0.0,0.0,0.0,0.0,0.0,0.0,0.0,0.0,0.0,0.0,0.0,0.0,0.0,0.0,0.0,0.0,0.0,0.0,0.0,0.0,0.0,0.0,0.0,0.0,0.0,0.0,0.0,0.0,0.0,0.0,0.0,0.0,0.0,0.0,0.0,0.0,0.0,0.0,0.0,0.0,0.0,0.0,0.0,0.0,0.0,0.0,0.0,0.0,0.0,0.0,0.0,0.0,0.0,0.0,0.0,0.0,0.0,0.0,0.0,0.0,0.0,0.0,0.0,0.0,0.0,0.0,0.0,0.0,0.0,0.0,0.0,0.0,0.0,0.0,0.0,0.0,0.0,0.0,0.0,0.0,0.0,0.0,0.0,0.0,0.0,0.0,0.0,0.0,0.0,1.014,0.89,0.7666,0.6199,0.4374,-0.1276,-0.5592,0.0,0.0,0.0,0.0,0.0,0.0,0.0,0.0,0.0,0.0,0.0,0.0,0.0,0.0,0.0,0.0,0.0,0.0,0.0,0.0,0.0,0.0,0.0,0.0,0.0,0.0,0.0,0.0,0.0,0.0,0.0,0.0,0.0,0.0,0.0,0.0,0.0,0.0,0.0,0.0,0.0,0.0,0.0,0.0,0.0,0.0,0.0,0.0,-0.5227,0.0,0.0,0.0,0.0,0.0,0.0,0.0,0.0,0.0,0.0,0.0,0.0,0.0,0.0,0.0,0.0,0.0,0.0,0.0,0.0,0.0,0.0,0.0,0.0,0.0,0.0,0.0,0.0,0.0,0.0,0.0,0.0,0.0,0.0,0.0,0.0,0.0,0.0,0.0,0.0,0.0,0.0,0.0,0.0,0.0,0.0,0.0,0.0,0.0,0.0,0.0,0.0,0.0,0.0,0.0,0.0,0.0,0.0,0.0,1.0884,1.0466,0.8402,0.646,0.4727,0.0236,-0.3748,0.0,0.0,0.0,0.0,0.0,0.0,0.0,0.0,0.0,0.0,0.0,0.0,0.0,0.0,0.0,0.0,0.0,0.0,0.0,0.0,0.0,0.0,0.0,0.0,0.0,0.0,0.0,0.0,0.0,0.0,0.0,0.0,0.0,0.0,0.0,0.0,0.0,0.0,0.0,0.0,0.0,0.0,0.0,0.0,0.0,0.0,0.0,0.0,0.0,0.0,0.0,0.0,0.0,0.0,0.0,0.0,0.0,0.0,0.0,0.0,0.0,0.0,0.0,0.0,0.0,0.0,0.0,0.0,0.0,0.0,0.0,0.0,0.0,0.0,0.0,0.0,0.0,0.0,0.0,0.0,0.0,0.0,0.0,0.0,0.0,0.0,0.0,0.0,0.0,0.0,0.0,0.0,0.0,0.0,0.0,0.0,0.0,0.0,0.0,0.0,0.0,0.0,0.0,0.0,0.0,0.0,0.0,1.159,1.1687,1.1604,0.9041,0.6776,0.5018,0.2024,-0.1416,-0.5246,0.0,0.0,0.0,0.0,0.0,0.0,0.0,0.0,0.0,0.0,0.0,0.0,0.0,0.0,0.0,0.0,0.0,0.0,0.0,0.0,0.0,0.0,0.0,0.0,0.0,0.0,0.0,0.0,0.0,0.0,0.0,0.0,0.0,0.0,0.0,0.0,0.0,0.0,0.9146,0.967,0.0,0.0,0.0,0.0,0.0,0.0,0.0,0.0,-0.3411,0.0,0.0,0.0,0.0,0.0,0.0,0.0,0.0,0.0,0.0,0.0,0.0,0.0,0.0,0.0,0.0,0.0,0.0,0.0,0.0,0.0,0.0,0.0,0.0,0.0,0.0,0.0,0.0,0.0,0.0,0.0,0.0,0.0,0.0,0.0,0.0,0.0,0.0,0.0,0.0,0.0,0.0,0.0,0.0,0.0,0.0,0.0,0.0,0.0,0.0,0.0,0.0,0.0,0.0,0.0,0.0,1.2715,1.3657,1.3263,1.141,1.1,0.9408,0.6577,0.3634,0.0664,-0.2455,0.0,0.0,0.0,0.0,0.0,0.0,0.0,0.0,0.0,0.0,0.0,0.0,0.0,0.0,0.0,0.0,0.0,0.0,0.0,0.0,0.0,0.0,0.0,0.0,0.0,0.0,0.0,0.0,0.0,0.0,0.0,0.0,0.0,0.0,0.0,0.0,0.0,0.0,0.0,0.8989,0.7684,0.0,0.0,0.0,0.0,0.0,0.0,0.0,0.0,-0.3848,0.0,0.0,0.0,0.0,0.0,0.0,0.0,0.0,0.0,0.0,0.0,0.0,0.0,0.0,0.0,0.0,0.0,0.0,0.0,0.0,0.0,0.0,0.0,0.0,0.0,0.0,0.0,0.0,0.0,0.0,0.0,0.0,0.0,0.0,0.0,0.0,0.0,0.0,0.0,0.0,0.0,0.0,0.0,0.0,0.0,0.0,0.0,0.0,0.0,0.0,0.0,0.0,0.0,0.0,0.0,1.2817,1.4007,1.4184,1.3229,1.1729,0.9862,0.7599,0.4818,0.2022,0.0,0.0,0.0,0.0,0.0,0.0,0.0,0.0,0.0,0.0,0.0,0.0,0.0,0.0,0.0,0.0,0.0,0.0,0.0,0.0,0.0,0.0,0.0,0.0,0.0,0.0,0.0,0.0,0.0,0.0,0.0,0.0,0.0,0.0,0.0,0.0,0.0,0.0,0.0,0.0,1.0401,0.9729,0.7424,0.0,0.0,0.0,0.0,0.0,0.0,-0.0061,-0.1753,0.0,0.0,0.0,0.0,0.0,0.0,0.0,0.0,0.0,0.0,0.0,0.0,0.0,0.0,0.0,0.0,0.0,0.0,0.0,0.0,0.0,0.0,0.0,0.0,0.0,0.0,0.0,0.0,0.0,0.0,0.0,0.0,0.0,0.0,0.0,0.0,0.0,0.0,0.0,0.0,0.0,0.0,0.0,0.0,0.0,0.0,0.0,0.0,0.0,0.0,0.0,0.0,0.0,0.0,0.0,1.2946,1.4192,1.4904,1.4832,1.2538,1.0422,0.8685,0.6282,0.3597,0.0,0.0,0.0,0.0,0.0,0.0,0.0,0.0,0.0,0.0,0.0,0.0,0.0,0.0,0.0,0.0,0.0,0.0,0.0,0.0,0.0,0.0,0.0,0.0,0.0,0.0,0.0,0.0,0.0,0.0,0.0,0.0,0.0,0.0,0.0,0.0,0.0,0.0,0.0,0.0,0.0,1.1478,0.872,0.8405,0.0,0.0,0.0,0.0,0.3471,0.1962,0.0,0.0,0.0,0.0,0.0,0.0,0.0,0.0,0.0,0.0,0.0,0.0,0.0,0.0,0.0,0.0,0.0,0.0,0.0,0.0,0.0,0.0,0.0,0.0,0.0,0.0,0.0,0.0,0.0,0.0,0.0,0.0,0.0,0.0,0.0,0.0,0.0,0.0,0.0,0.0,0.0,0.0,0.0,0.0,0.0,0.0,0.0,0.0,0.0,0.0,0.0,0.0,0.0,0.0,0.0,0.0,1.3919,1.5327,1.5606,1.4683,1.4315,1.2853,1.0223,0.8596,0.5901,0.0,0.0,0.0,0.0,0.0,0.0,0.0,0.0,0.0,0.0,0.0,0.0,0.0,0.0,0.0,0.0,0.0,0.0,0.0,0.0,0.0,0.0,0.0,0.0,0.0,0.0,0.0,0.0,0.0,0.0,0.0,0.0,0.0,0.0,0.0,0.0,0.0,0.0,0.0,0.0,0.0,1.0156,0.8028,0.9102,0.9468,0.0,0.0,0.7197,0.6814,0.4475,0.0,0.0,0.0,0.0,0.0,0.0,0.0,0.0,0.0,0.0,0.0,0.0,0.0,0.0,0.0,0.0,0.0,0.0,0.0,0.0,0.0,0.0,0.0,0.0,0.0,0.0,0.0,0.0,0.0,0.0,0.0,0.0,0.0,0.0,0.0,0.0,0.0,0.0,0.0,0.0,0.0,0.0,0.0,0.0,0.0,0.0,0.0,0.0,0.0,0.0,0.0,0.0,0.0,0.0,0.0,1.1877,1.2651,1.4858,1.5783,1.531,1.4563,1.3616,1.2417,0.9616,0.6926,0.0,0.0,0.0,0.0,0.0,0.0,0.0,0.0,0.0,0.0,0.0,0.0,0.0,0.0,0.0,0.0,0.0,0.0,0.0,0.0,0.0,0.0,0.0,0.0,0.0,0.0,0.0,0.0,0.0,0.0,0.0,0.0,0.0,0.0,0.0,0.0,0.0,0.0,0.0,0.0,0.0,0.0,0.9343,1.0026,0.0,0.0,0.0,0.8768,0.7678,0.0,0.0,0.0,0.0,0.0,0.0,0.0,0.0,0.0,0.0,0.0,0.0,0.0,0.0,0.0,0.0,0.0,0.0,0.0,0.0,0.0,0.0,0.0,0.0,0.0,0.0,0.0,0.0,0.0,0.0,0.0,0.0,0.0,0.0,0.0,0.0,0.0,0.0,0.0,0.0,0.0,0.0,0.0,0.0,0.0,0.0,0.0,0.0,0.0,0.0,0.0,0.0,0.0,0.0,0.0,0.0,0.0,1.1553,1.4331,1.5825,1.5778,1.4895,1.4214,1.3872,1.0637,0.0,0.0,0.0,0.0,0.0,0.0,0.0,0.0,0.0,0.0,0.0,0.0,0.0,0.0,0.0,0.0,0.0,0.0,0.0,0.0,0.0,0.0,0.0,0.0,0.0,0.0,0.0,0.0,0.0,0.0,0.0,0.0,0.0,0.0,0.0,0.0,0.0,0.0,0.0,0.0,0.0,0.0,1.0202,1.031,1.0551,1.0626,0.0,0.0,0.9947,0.8526,0.8173,0.7456,0.0,0.0,0.0,0.0,0.0,0.0,0.0,0.0,0.0,0.0,0.0,0.0,0.0,0.0,0.0,0.0,0.0,0.0,0.0,0.0,0.0,0.0,0.0,0.0,0.0,0.0,0.0,0.0,0.0,0.0,0.0,0.0,0.0,0.0,0.0,0.0,0.0,0.0,0.0,0.0,0.0,0.0,0.0,0.0,0.0,0.0,0.0,0.0,0.0,0.0,0.0,0.0,0.0,0.0,1.1497,1.1609,1.4331,1.5825,1.5825,1.573,1.5099,1.3914,1.2294,1.0265,0.0,0.0,0.0,0.0,0.0,0.0,0.0,0.0,0.0,0.0,0.0,0.0,0.0,0.0,0.0,0.0,0.0,0.0,0.0,0.0,0.0,0.0,0.0,0.0,0.0,0.0,0.0,0.0,0.0,0.0,0.0,0.0,0.0,0.0,0.0,0.0,0.0,0.0,0.0,0.0,0.0,0.9859,0.9863,1.0354,1.0663,0.0,1.0599,1.0573,1.035,0.9157,0.802,0.7311,0.0,0.0,0.0,0.0,0.0,0.0,0.0,0.0,0.0,0.0,0.0,0.0,0.0,0.0,0.0,0.0,0.0,0.0,0.0,0.0,0.0,0.0,0.0,0.0,0.0,0.0,0.0,0.0,0.0,0.0,0.0,0.0,0.0,0.0,0.0,0.0,0.0,0.0,0.0,0.0,0.0,0.0,0.0,0.0,0.0,0.0,0.0,0.0,0.0,0.0,0.0,0.0,0.0,1.1679,1.2558,1.4382,1.5471,1.5751,1.5658,1.541,1.5092,1.3737,1.202,0.0,0.0,0.0,0.0,0.0,0.0,0.0,0.0,0.0,0.0,0.0,0.0,0.0,0.0,0.0,0.0,0.0,0.0,0.0,0.0,0.0,0.0,0.0,0.0,0.0,0.0,0.0,0.0,0.0479,0.0337,0.1161,0.0,0.0,0.0,0.0,0.0,0.0,0.0,0.0,0.0,0.0,1.1751,1.2992,1.3464,0.0,0.0,1.2627,1.1879,1.1876,1.0453,0.917,0.8616,0.7812,0.0,0.0,0.0,0.0,0.0,0.0,0.0,0.0,0.0,0.0,0.0,0.0,0.0,0.0,0.0,0.0,0.0,0.0,0.0,0.0,0.0,0.0,0.0,0.0,0.0,0.0,0.0,0.0,0.0,0.0,0.0,0.0,0.0,0.0,0.0,0.0,0.0,0.0,0.0,0.0,0.0,0.0,0.0,0.0,0.0,0.0,0.0,0.0,0.0,0.0,0.0,0.0,1.2209,1.3166,1.4527,1.5378,1.5644,1.5585,1.5585,1.5644,1.4492,1.3123,0.0,0.0,0.0,0.0,0.0,0.0,0.0,0.0,0.0,0.0,0.0,0.0,0.0,0.0,0.0,0.0,0.0,0.0,0.0,0.0,0.0,0.0,0.0,0.0,0.0,0.0,0.0,0.0,0.1754,0.1709,0.3054,0.0,0.0,0.0,0.0,0.0,0.0,0.0,0.0,0.0,0.0,1.329,1.4936,1.528,1.5342,1.5272,1.414,1.3216,1.3164,1.2176,1.1163,1.0599,0.0,0.0,0.0,0.0,0.0,0.0,0.0,0.0,0.0,0.0,0.0,0.0,0.0,0.0,0.0,0.0,0.0,0.0,0.0,0.0,0.0,0.0,0.0,0.0,0.0,0.0,0.0,0.7671,0.0,0.0,0.7859,0.0,0.0,0.0,0.0,0.0,0.0,0.0,0.0,0.0,0.0,0.0,0.0,0.0,0.0,0.0,0.0,0.0,0.0,0.0,0.0,0.0,0.0,1.3148,1.3223,1.4907,1.5651,1.5424,1.5624,1.5671,1.5411,1.4319,1.353,1.3103,0.0,0.0,0.0,0.0,0.0,0.0,0.0,0.0,0.0,0.0,0.0,0.0,0.0,0.0,0.0,0.0,0.0,0.0,0.0,0.0,0.0,0.0,0.0,0.0,0.0,0.0,0.3904,0.3902,0.4415,0.0,0.0,0.0,0.0,0.0,0.0,0.0,0.0,0.0,1.3179,1.3598,1.4117,1.4761,1.4991,1.5047,1.479,1.4628,1.4494,1.4227,1.4299,1.4272,0.0,0.0,0.0,0.0,0.0,0.0,0.0,0.0,0.0,0.0,0.0,0.0,0.0,0.0,0.0,0.0,0.0,0.0,0.0,0.0,0.0,0.0,0.0,0.0,0.0,0.0,0.0,1.0739,1.0501,0.0,0.0,0.0,0.0,0.0,0.0,0.0,0.0,0.0,0.0,0.0,1.9052,1.8805,0.0,0.0,0.0,0.0,0.0,0.0,0.0,0.0,0.0,0.0,0.0,0.0,1.3215,1.434,1.4732,1.5104,1.5384,1.5304,1.5554,1.6156,1.5316,1.4278,1.3096,0.0,0.0,0.0,0.0,0.0,0.0,0.0,0.0,0.0,0.0,0.0,0.0,0.0,0.0,0.0,0.0,0.0,0.0,0.0,0.0,0.0,0.0,0.0,0.0,0.0,0.4947,0.0,0.0,0.0,0.0,0.0,0.0,0.0,0.0,0.0,0.0,0.0,1.2985,1.4632,1.5123,1.5883,1.7295,1.7575,1.7541,0.0,0.0,0.0,0.0,0.0,0.0,0.0,0.0,0.0,0.0,0.0,0.0,0.0,0.0,0.9744,0.8034,0.7616,0.7541,0.7529,0.0,0.0,0.0,0.0,0.0,0.0,0.0,0.0,0.0,0.0,0.0,0.0,0.0,0.0,1.4117,0.0,1.285,0.0,0.0,0.0,0.0,0.0,0.0,0.0,0.0,2.1022,2.1311,2.1133,2.1225,2.0723,0.0,1.9402,1.7557,0.0,0.0,0.0,0.0,0.0,0.0,0.0,0.0,1.4528,1.551,1.5582,1.5555,1.5417,1.5263,1.5628,1.6558,1.6102,1.5205,1.3991,1.2905,1.1103,0.0,0.0,0.0,0.0,0.0,0.0,0.0,0.0,0.0,0.0,0.0,0.0,0.0,0.0,0.0,0.0,0.0,0.0,0.0,0.0,0.0,0.0,0.0,0.6654,0.0,0.0,0.0,0.0,0.0,0.0,0.0,0.0,0.0,1.3144,1.3546,1.4542,1.6223,1.6596,1.7298,1.8725,0.0,0.0,0.0,0.0,0.0,0.0,0.0,1.5564,1.5377,1.5448,1.5404,1.4889,1.5599,1.5858,1.4631,0.0,0.0,1.0584,0.9617,0.9114,0.9117,0.8993,0.8937,0.8937,0.8977,0.9015,0.0,0.0,0.0,0.0,0.0,0.0,0.0,0.0,1.8087,1.7696,0.0,1.4995,0.0,0.0,0.0,0.0,1.9596,2.116,0.0,0.0,2.2974,2.353,2.314,2.3106,2.2504,2.1472,2.1928,2.1261,1.936,1.5667,0.0,0.0,0.0,0.0,0.0,0.0,1.7026,1.6712,1.7356,1.7004,1.5529,1.5463,1.5809,1.6536,1.666,1.6412,1.5729,1.3952,1.2421,1.1294,0.8745,0.0,0.0,0.0,0.0,0.0,0.0,0.0,0.0,0.0,0.0,0.0,0.0,0.0,0.0,0.0,0.0,0.0,0.0,0.0,0.0,1.0162,0.0,0.0,0.0,0.0,0.0,0.0,0.0,0.0,0.0,0.0,1.4323,1.57,1.7027,1.7856,0.0,0.0,0.0,0.0,1.8464,1.845,1.847,1.8477,1.847,1.8648,1.8728,1.8468,0.0,0.0,1.6855,1.8078,1.8192,1.4866,1.4528,1.4235,1.3053,1.0986,0.9605,0.9581,0.9259,0.8929,0.8908,0.9079,0.9217,2.2892,0.0,0.0,0.0,0.0,1.9497,1.9591,1.9783,1.937,1.9178,1.8991,1.8186,0.0,0.0,0.0,0.0,0.0,0.0,2.1876,2.2608,2.344,2.3721,2.3613,2.3906,2.3861,2.3522,2.3383,2.263,2.1278,1.9819,1.8343,1.6929,0.0,0.0,0.0,0.0,1.783,1.7913,1.8435,1.7963,1.6432,1.6388,1.636,1.6245,1.7758,1.8171,1.7231,1.5867,1.4542,1.3244,1.1494,0.0,0.0,0.0,0.0,0.0,0.0,0.0,0.0,0.0,0.0,0.0,0.0,0.0,0.0,0.0,0.0,0.0,0.0,0.0,1.134,1.0823,1.0462,0.0,0.0,0.0,0.0,0.0,0.0,0.0,0.0,0.0,1.5677,1.6272,1.6954,0.0,0.0,1.7776,1.7949,1.7889,1.7842,1.7842,1.8029,0.0,1.8122,1.823,1.8323,1.8464,1.8637,1.8565,1.8004,1.8401,1.8453,1.7365,1.6378,1.5554,1.5035,1.2192,0.989,0.9625,0.95,0.9378,0.9283,0.9289,0.931,2.4694,2.2066,2.1859,2.1575,2.1237,2.1183,2.1173,2.1162,2.1153,2.1409,2.1761,2.0682,2.0305,2.0424,2.0009,0.0,0.0,0.0,2.2394,2.3101,2.3364,2.3535,2.3555,2.3789,2.3861,2.3906,2.3652,2.3169,2.2423,2.2162,2.1557,2.0642,0.0,0.0,1.9084,1.9221,1.9325,1.9333,1.9591,1.9021,1.7614,1.7738,1.7639,1.7291,1.8657,1.9053,1.8299,1.7295,1.6293,1.5186,1.3589,1.1881,0.0,0.0,0.0,0.0,0.0,0.0,0.0,0.0,0.0,0.0,0.0,0.7088,0.7816,0.0,0.0,0.0,1.1641,1.2082,1.2038,1.1812,0.0,0.0,0.0,0.0,0.0,0.0,0.0,1.4657,1.5337,1.5939,1.6233,1.642,1.6754,1.7328,1.7308,1.7315,1.7549,0.0,1.7548,1.7729,1.7876,1.8035,1.8203,1.821,1.827,1.8457,1.8497,1.8497,1.8497,1.8497,1.8497,1.8317,1.7167,1.6051,1.5952,1.3332,1.0981,1.036,0.9726,0.9296,0.9144,0.9113,0.913,2.5957,2.5218,2.4675,2.4163,2.3799,2.376,2.3461,2.3101,2.3101,2.3954,2.5145,2.2694,2.2274,2.3358,2.1973,0.0,2.3353,2.3266,2.3266,2.3212,2.3144,2.3101,2.3101,2.3101,2.3101,2.3101,2.3101,2.3101,2.3101,2.3101,2.3101,2.3047,2.0872,2.0081,2.075,2.1154,2.1145,2.0755,2.0782,2.0175,1.8889,1.9207,1.9246,1.8984,1.93,1.9367,1.9112,1.8323,1.7647,1.7069,1.5224,1.3851,1.3099,0.0,0.0,0.0,0.0,0.0,0.0,0.0,0.0,0.0,0.0,0.0,0.0,0.0,0.0,0.0,1.3007,0.0,1.3011,1.3034,0.0,0.0,0.0,1.4028,1.3895,1.5046,1.5825,1.5825,0.0,0.0,1.6199,1.6288,1.6433,1.7025,1.6854,1.6901,1.7435,1.7326,1.7315,1.7742,1.7869,1.7982,1.821,1.8277,1.8257,1.8237,1.8343,1.8283,1.8277,1.8283,1.8323,1.827,1.714,1.6097,1.5818,1.444,1.3016,1.1791,1.0271,0.8992,0.8804,0.8716,0.8757,2.6433,2.6378,2.5364,2.4519,2.3769,2.3428,2.3188,2.3101,2.3101,2.3817,2.4902,2.4264,2.4639,2.5692,2.5322,2.5344,2.5652,2.4798,2.4414,2.4339,2.3507,2.3101,2.3101,2.3101,2.3101,2.3101,2.3101,2.3101,2.3101,2.3101,2.3101,2.3028,2.2187,2.1741,2.1614,2.1742,2.1537,2.1075,2.1432,2.0913,1.9439,1.9223,1.9056,1.9006,1.985,2.0302,2.0206,1.9246,1.8643,1.8448,1.6684,1.5495,1.511,1.2854,0.0,0.0,0.0,0.0,0.0,0.0,0.0,0.0,0.0,1.074,1.1102,0.0,1.2756,0.0,1.343,1.3842,1.4408,1.4261,0.0,0.0,1.5117,1.5365,1.53,1.5596,1.5825,1.5825,1.5825,1.5811,1.5925,1.5932,1.5979,1.6126,1.6473,1.6754,1.6894,1.686,1.6854,1.7007,1.7054,1.7128,1.7474,1.7521,1.746,1.7161,1.7141,1.7128,1.7134,1.7134,1.7134,1.7128,1.6864,1.6517,1.6471,1.5239,1.4199,1.368,1.187,0.9888,0.8832,0.8586,0.8547,2.7325,2.7173,2.634,2.5392,2.4454,2.3703,2.3564,2.3833,2.3833,2.4755,2.6273,2.6284,2.6367,2.6483,2.6483,2.6483,2.6431,2.5839,2.5557,2.5504,2.4882,2.4606,2.4595,2.4092,2.3833,2.3844,2.3343,2.2994,2.2828,2.2852,2.2764,2.2578,2.2353,2.2021,2.1631,2.1787,2.1855,2.1756,2.166,2.1074,2.0104,1.9839,1.9726,1.9717,2.0284,2.0517,2.0283,1.9716,1.9406,1.9358,1.7947,1.7003,1.6707,1.4872,1.3606,0.0,0.0,0.0,0.0,0.0,0.0,0.0,0.0,0.0,0.0,0.0,1.4581,1.5632,1.549,1.5577,1.6154,1.5918,1.5718,1.5805,1.5825,1.5825,1.5825,1.5825,1.5825,1.5825,1.5825,1.5825,1.5825,1.5825,1.5825,1.5825,1.6112,1.6359,1.6486,1.6506,1.6553,1.668,1.6707,1.676,1.6927,1.7005,1.6901,1.6747,1.6707,1.6707,1.6707,1.6707,1.6707,1.6707,1.6707,1.666,1.6497,1.5905,1.5109,1.4249,1.3105,1.1759,1.0425,1.0055,0.9912,2.8287,2.7826,2.7325,2.6528,2.546,2.4561,2.4415,2.4798,2.4798,2.6025,2.8084,2.8255,2.7787,2.6935,2.6935,2.6935,2.6946,2.676,2.6719,2.6678,2.6565,2.6483,2.6431,2.5462,2.4957,2.4872,2.3872,2.3209,2.2792,2.2792,2.2562,2.2081,2.2032,2.1753,2.1298,2.1592,2.1904,2.2246,2.1541,2.1045,2.0703,2.0693,2.0683,2.0683,2.0586,2.0341,1.9932,1.9912,1.9912,1.9874,1.9022,1.8381,1.8063,1.6757,1.5825,0.0,1.5376,0.0,0.0,0.0,0.0,0.0,0.0,0.0,0.0,1.4474,1.63,1.8181,1.7863,1.7592,1.7713,1.7304,1.6768,1.5993,1.5765,1.5671,1.5718,1.5718,1.5718,1.5718,1.5671,1.5718,1.5698,1.5752,1.5724,1.5718,1.5778,1.5965,1.6159,1.6219,1.6299,1.6567,1.6593,1.6533,1.656,1.658,1.6573,1.6573,1.6547,1.6593,1.6553,1.6567,1.658,1.658,1.6553,1.6486,1.6259,1.6213,1.5732,1.4539,1.413,1.3608,1.2366,1.1811,1.1575,2.8633,2.8597,2.753,2.6808,2.6274,2.6076,2.5506,2.4798,2.4798,2.6025,2.8124,2.9067,2.9378,2.9157,2.917,2.9157,2.9131,2.8227,2.7815,2.7763,2.6883,2.6483,2.6472,2.6265,2.5931,2.5462,2.5248,2.4886,2.4378,2.4378,2.3897,2.305,2.2699,2.229,2.175,0.0,0.0,0.0,2.1133,2.1151,2.1123,2.1113,2.1064,2.1094,2.042,0.0,1.9912,1.9912,1.9912,1.9874,1.9714,0.0,0.0,0.0,0.0,0.0,0.0,0.0,0.0,0.0,0.0,0.0,1.6453,1.596,1.6016,1.6565,1.7196,1.7836,1.782,1.777,1.7776,1.688,1.6329,1.6425,1.5691,1.5169,1.5169,1.5182,1.513,1.513,1.513,1.5182,1.5164,1.5331,1.5478,1.5504,1.5678,1.5845,1.5899,1.5919,1.5945,1.5944,1.5991,1.6012,1.5999,1.6019,1.6046,1.5944,1.5999,1.6005,1.6025,1.6019,1.6005,1.6019,1.5999,1.5999,1.5884,1.5912,1.5817,1.5493,1.5439,1.4723,1.2483,1.1932,1.1809,2.9498,2.9272,2.8686,2.7981,0.0,2.729,2.6953,2.6438,2.6438,2.736,2.8976,2.9534,2.9779,2.9779,2.9779,2.9779,2.9792,2.9197,2.8937,2.8897,2.8371,2.8131,2.8119,2.7289,2.6731,2.6386,2.5582,2.4988,2.453,2.4508,2.4117,2.3416,2.3178,2.2702,2.1967,2.1531,2.1148,2.0898,2.1343,2.1696,2.1939,2.1724,2.1565,2.1555,2.0729,0.0,0.0,0.0,0.0,0.0,0.0,0.0,0.0,1.8288,0.0,1.7298,1.702,1.6919,1.709,1.7458,1.7801,1.7932,1.8017,1.7984,1.77,1.7964,1.8507,1.9393,1.9479,1.9303,1.8919,1.8346,1.7645,1.6748,1.6124,1.5606,1.5091,1.5015,1.5015,1.5015,1.5015,1.5015,1.5015,1.5122,1.5244,1.5378,1.5518,1.5618,1.5631,1.5698,1.5825,1.5825,1.5825,1.5825,1.5825,1.5825,1.5825,1.5825,1.5825,1.5825,1.5825,1.5825,1.5825,1.5825,1.5825,1.5825,1.5825,1.5825,1.5825,1.5825,1.5825,1.5486,1.4034,1.3836,1.3596,3.0294,2.9792,2.9779,2.9236,2.8386,2.8426,2.8386,2.8386,0.0,0.0,0.0,2.9779,2.9779,2.9779,2.9779,2.9779,2.9779,2.9779,2.9779,2.9779,2.9779,2.9741,2.9577,2.8261,2.7498,2.7256,2.59,2.5032,2.4602,2.4617,2.43,2.3815,2.3781,2.3184,2.2065,2.2,2.1844,2.1497,2.1918,2.2259,2.2548,2.22,2.2065,2.2215,2.1326,2.0677,2.0279,2.0376,2.0226,1.9805,1.9845,1.9573,1.8873,1.8834,1.8577,1.8066,1.8295,1.8373,1.812,1.8779,1.9053,1.8734,1.9082,1.9129,1.8664,1.8918,1.9573,2.078,2.0849,2.0568,1.9925,1.9769,1.8935,1.6982,1.6678,1.6197,1.5193,1.5031,1.496,1.4878,1.4827,1.4854,1.4834,1.4894,1.497,1.5177,1.5271,1.5324,1.5357,1.5551,1.5704,1.5812,1.5825,1.5825,1.5825,1.5825,1.5825,1.5825,1.5825,1.5825,1.5825,1.5825,1.5825,1.5825,1.5825,1.5825,1.5825,1.5825,1.5825,1.5825,1.5825,1.5825,1.5825,1.5778,1.5384,3.0294,2.9779,2.9779,2.9702,2.9573,2.9573,2.9585,2.9573,2.9573,2.9663,2.9779,2.9779,2.9779,2.9779,2.9779,2.9779,2.9779,2.9779,2.9779,2.9779,2.9779,2.9528,2.9026,2.88,2.8188,2.7329,2.7061,2.6691,2.622,2.6171,2.5725,2.4898,2.4791,2.3854,2.214,2.2,2.2168,2.2499,2.2574,2.2443,2.2093,2.1968,2.2301,2.3029,2.227,2.1774,2.1743,2.2174,2.2209,2.1677,2.1993,2.1455,1.9827,1.9686,1.9212,1.8125,1.8066,1.8188,1.8471,1.8627,1.8867,1.917,1.9258,1.928,1.9219,1.924,1.9345,1.957,1.9619,1.9533,1.9351,1.8962,1.8339,1.7621,1.7044,1.6252,1.526,1.5126,1.4946,1.4408,1.4258,1.4271,1.4325,1.4442,1.4603,1.4683,1.4897,1.5075,1.5135,1.5316,1.5551,1.5758,1.5825,1.5825,1.5798,1.5825,1.5825,1.5825,1.5825,1.5825,1.5825,1.5825,1.5825,1.5825,1.5825,1.5825,1.5825,1.5825,1.5825,1.5825,1.5825,1.5825,1.5825,1.5825,1.573,3.0018,2.9792,2.9779,2.9779,2.9779,2.9779,2.9779,2.9779,2.9779,2.9779,2.9779,2.9779,2.9779,2.9779,2.9779,2.9779,2.9779,2.9779,2.9779,2.9767,2.9465,2.9189,2.885,2.8323,2.7783,2.7316,2.7014,2.6738,2.6512,2.6487,2.628,2.5804,2.5264,2.4528,2.3649,2.3365,2.2911,2.2347,2.2871,2.342,2.3932,2.3707,2.3657,2.3766,2.2874,2.2246,2.1955,2.2201,2.209,2.1587,2.1788,2.1059,1.9332,1.9444,1.9024,1.7772,1.7666,1.7754,1.7939,1.7959,1.8047,1.8242,1.8467,1.8594,1.8594,1.9033,1.9277,1.9277,1.9277,1.9277,1.9287,1.901,1.8555,1.7765,1.741,1.68,1.5849,1.5819,1.5591,1.4837,1.4836,1.4734,1.4166,1.4202,1.4362,1.4489,1.4656,1.4776,1.4961,1.493,1.503,1.5317,1.5618,1.5738,1.5645,1.5738,1.5812,1.5825,1.5825,1.5825,1.5825,1.5825,1.5825,1.5825,1.5825,1.5825,1.5825,1.5825,1.5825,1.5825,1.5825,1.5825,1.5825,1.5825,1.5825,2.9779,2.9779,2.9779,2.9779,2.9779,2.9779,2.9779,2.9779,2.9779,2.9779,2.9779,2.9779,2.9779,2.9779,2.9779,2.9779,2.9779,2.9779,2.9716,2.9553,2.9101,2.8762,2.8499,2.7657,2.7231,2.7102,2.6688,2.6487,2.6487,2.6487,2.6487,2.6418,2.5734,2.5229,2.5004,2.4565,2.3757,2.2651,2.3251,2.4061,2.4884,2.4623,2.436,2.4126,2.343,2.2811,2.2399,2.2468,2.233,2.1848,2.1699,2.0865,1.9304,1.9371,1.8891,1.7678,1.7476,1.7421,1.7269,1.7236,1.7275,1.7383,1.7588,1.7793,1.8027,1.8516,1.8906,1.8984,1.8955,1.8965,1.8975,1.9092,1.8776,1.7917,1.7862,1.7446,1.6484,1.6626,1.6384,1.5334,1.5349,1.5187,1.4309,1.3988,1.4102,1.4335,1.4422,1.4522,1.4689,1.4596,1.4629,1.4816,1.5311,1.5618,1.5451,1.5645,1.5805,1.5825,1.5825,1.5825,1.5825,1.5825,1.5825,1.5825,1.5825,1.5825,1.5825,1.5825,1.5825,1.5825,1.5825,1.5825,1.5825,1.5752,1.5765,2.9779,2.9779,2.9779,2.9779,2.9779,2.9779,2.9779,2.9779,2.9779,2.9779,2.9779,2.9779,2.9779,2.9779,2.9779,2.9779,2.9779,2.9779,2.9515,2.9026,2.8925,2.8398,2.7532,2.7318,2.7052,2.6637,2.6512,2.6487,2.6487,2.6487,2.6487,2.6487,2.6418,2.5861,2.5087,2.4968,2.4578,2.4023,2.4071,2.3748,2.2994,2.2796,2.3144,2.3985,2.3922,2.3853,2.3721,2.4275,2.4243,2.3753,2.3133,2.2226,2.09,2.034,1.9403,1.7894,1.774,1.747,1.6841,1.6755,1.6941,1.7337,1.708,1.7213,1.791,1.7744,1.7744,1.8076,1.8154,1.8193,1.8154,1.8442,1.8484,1.8049,1.8216,1.8114,1.7207,1.7328,1.6834,1.4847,1.5298,1.4955,1.4117,1.3865,1.3862,1.4128,1.4175,1.4195,1.4298,1.4396,1.4402,1.4396,1.4877,1.5344,1.5371,1.5631,1.5738,1.5785,1.5805,1.5778,1.5758,1.5772,1.5818,1.5738,1.5792,1.5785,1.5825,1.5825,1.5825,1.5825,1.5825,1.5825,1.5751,1.5658,1.5598,2.9779,2.9779,2.9779,2.9779,2.9779,2.9779,2.9779,2.9779,2.9779,2.9779,2.9779,2.9779,2.9779,2.9779,2.9779,2.9779,2.9779,2.9779,2.9478,2.8888,2.8599,2.8021,2.7354,2.6964,2.67,2.6512,2.6487,2.6487,2.6487,2.6487,2.6487,2.6487,2.6487,2.6118,2.5394,2.5053,2.4636,2.4075,2.3732,2.334,2.3077,2.3536,2.3912,2.3967,2.3991,2.3828,2.3514,2.3384,2.3226,2.2987,2.246,2.1539,2.0246,2.0179,1.9552,1.8221,1.7694,1.699,1.6007,1.6395,1.6775,1.696,1.708,1.7373,1.791,1.7617,1.7559,1.792,1.8008,1.8008,1.8027,1.8139,1.8193,1.8057,1.8139,1.8054,1.7697,1.7996,1.7606,1.6291,1.6405,1.6274,1.5255,1.4707,1.4391,1.4218,1.4082,1.4068,1.4102,1.4195,1.4202,1.4182,1.4556,1.483,1.4923,1.5124,1.5364,1.5498,1.5424,1.5344,1.5524,1.5398,1.5357,1.5538,1.5585,1.5671,1.5764,1.5825,1.5825,1.5805,1.5805,1.5785,1.5611,1.5618,1.5604,2.9779,2.9779,2.9779,2.9779,2.9779,2.9779,2.9779,2.9779,2.9779,2.9779,2.9779,2.9779,2.9779,2.9779,2.9779,2.9779,2.9779,2.9779,2.9224,2.8325,2.7879,2.7309,2.6701,2.6305,2.6233,2.6452,2.6487,2.6487,2.6487,2.6487,2.6411,2.6285,2.626,2.6013,2.5586,2.5084,2.46,2.423,2.3665,2.3208,2.3045,2.3684,2.4017,2.3778,2.3615,2.3401,2.3108,2.2431,2.2159,2.2255,2.1644,2.0874,1.997,2.0029,1.9509,1.8227,1.7409,1.6528,1.5488,1.5976,1.6395,1.6543,1.6758,1.708,1.7461,1.7266,1.7236,1.7588,1.7764,1.7852,1.7998,1.8008,1.8008,1.8008,1.8008,1.8008,1.8003,1.8354,1.8126,1.7144,1.7105,1.7011,1.5805,1.5093,1.4673,1.4075,1.3955,1.4015,1.4068,1.413,1.4173,1.4454,1.4532,1.4469,1.4609,1.4856,1.5129,1.5224,1.5197,1.5135,1.5237,1.5109,1.5028,1.5271,1.5317,1.5424,1.5591,1.5671,1.5638,1.5618,1.5625,1.5585,1.5337,1.5518,1.5531,2.9779,2.9779,2.9779,2.9779,2.9779,2.9779,2.9779,2.9779,2.9779,2.9779,2.9779,2.9779,2.9779,2.9779,2.9779,2.9779,2.9779,2.9779,2.8719,2.6983,2.6813,2.6151,2.5159,2.5087,2.5594,2.6452,2.6487,2.6487,2.6487,2.6487,2.621,2.5686,2.5686,2.5636,2.5448,2.4996,2.4763,2.4556,2.4092,2.3414,2.2493,2.2447,2.2719,2.302,2.2673,2.2594,2.2869,2.2083,2.1744,2.2272,2.1295,2.0677,2.0575,2.0109,1.918,1.7838,1.7004,1.6239,1.5594,1.5518,1.5723,1.6026,1.5879,1.5898,1.6746,1.6545,1.6496,1.6755,1.7246,1.7598,1.791,1.7988,1.8008,1.8008,1.8008,1.8008,1.8018,1.834,1.797,1.709,1.7115,1.6591,1.4726,1.4499,1.4331,1.3885,1.362,1.3706,1.3981,1.4062,1.4461,1.5054,1.4881,1.4345,1.4834,1.4841,1.5022,1.511,1.499,1.4975,1.5008,1.5015,1.5008,1.5055,1.5137,1.5251,1.5364,1.5357,1.5264,1.5257,1.5331,1.5257,1.5037,1.5244,1.5257,2.9779,2.9779,2.9779,2.9779,2.9779,2.9779,2.9779,2.9779,2.9779,2.9779,2.9779,2.9779,2.9779,2.9779,2.9779,2.9779,2.9779,2.9779,2.8643,2.6836,2.7274,2.6651,2.5194,2.5629,2.6129,2.6418,2.6487,2.6487,2.6487,2.6487,2.6197,2.5686,2.5586,2.5285,2.4657,2.4393,2.4086,2.3735,2.3496,2.3045,2.2343,2.2322,2.2259,2.2071,2.1895,2.187,2.2071,2.137,2.1094,2.1282,2.0514,2.0138,2.01,1.9924,1.9359,1.8382,1.7605,1.6894,1.621,1.594,1.5919,1.6056,1.5958,1.6035,1.6482,1.6348,1.6281,1.667,1.7119,1.7494,1.7607,1.7842,1.8008,1.8008,1.7998,1.7988,1.8027,1.811,1.7992,1.7627,1.7628,1.6989,1.565,1.5184,1.4721,1.3612,1.3373,1.3507,1.368,1.3801,1.4227,1.5279,1.5394,1.5239,1.5641,1.4859,1.4506,1.4609,1.4623,1.4583,1.4589,1.4559,1.4519,1.4663,1.4843,1.4977,1.505,1.5157,1.503,1.483,1.4917,1.503,1.4743,1.4983,1.495,2.9779,2.9779,2.9779,2.9779,2.9779,2.9779,2.9779,2.9779,2.9779,2.9779,2.9779,2.9779,2.9779,2.9779,2.9779,2.9779,2.9779,2.9767,2.8643,2.6774,2.7311,2.6676,2.5361,2.5699,2.6211,2.6452,2.6487,2.6487,2.6487,2.6487,2.6109,2.5385,2.5347,2.4908,2.4117,2.3828,2.3534,2.3346,2.3045,2.2569,2.2108,2.187,2.1518,2.1041,2.0953,2.1142,2.1443,2.0817,2.0528,2.0591,2.0112,1.9798,1.9798,1.9798,1.9475,1.8768,1.8232,1.7523,1.6655,1.6321,1.6108,1.588,1.5889,1.6006,1.6219,1.6025,1.6035,1.6338,1.6855,1.7168,1.7256,1.7549,1.7803,1.7803,1.7803,1.7812,1.7812,1.793,1.8008,1.7974,1.7949,1.7332,1.6216,1.5683,1.4895,1.3666,1.3294,1.32,1.35,1.3654,1.4104,1.5389,1.5655,1.591,1.6316,1.5962,1.49,1.4831,1.4683,1.453,1.4489,1.4325,1.424,1.4372,1.4482,1.4616,1.475,1.4877,1.475,1.4496,1.4689,1.4961,1.4783,1.4787,1.4683,2.9779,2.9779,2.9779,2.9779,2.9779,2.9779,2.9779,2.9779,2.9779,2.9779,2.9779,2.9779,2.9779,2.9779,2.9779,2.9779,2.9779,2.9779,2.8643,2.6737,2.6752,2.6212,2.504,2.5229,2.5769,2.6487,2.6487,2.6487,2.6487,2.6461,2.5984,2.5039,2.4921,2.4607,2.3991,2.3496,2.3409,2.354,2.2887,2.2108,2.1506,2.1094,2.0578,1.9987,1.9924,2.0376,2.133,2.0401,2.01,2.0515,2.01,1.9811,1.9798,1.9798,1.9475,1.8939,1.8688,1.7961,1.6782,1.6524,1.6136,1.5624,1.5449,1.5508,1.5557,1.5518,1.5498,1.5664,1.6258,1.6736,1.6814,1.7139,1.7422,1.7445,1.749,1.7471,1.7539,1.7773,1.8008,1.8008,1.8008,1.7613,1.6689,1.5921,1.5089,1.4149,1.3431,1.3081,1.3387,1.3487,1.4179,1.5248,1.5928,1.6368,1.6845,1.7164,1.6088,1.522,1.4986,1.4797,1.4902,1.4873,1.4664,1.4683,1.4401,1.4486,1.4476,1.4576,1.4529,1.4396,1.4649,1.476,1.462,1.4499,1.4499,2.9779,2.9779,2.9779,2.9779,2.9779,2.9779,2.9779,2.9779,2.9779,2.9779,2.9779,2.9779,2.9779,2.9779,2.9779,2.9779,2.9779,2.9715,2.8643,2.7021,2.7311,2.6676,2.5397,2.5687,2.6198,2.6452,2.6487,2.6487,2.6487,2.6487,2.6097,2.5423,2.4983,2.4544,2.4004,2.3421,2.3233,2.3258,2.2686,2.2046,2.1493,2.0968,2.0415,1.9886,1.9798,1.9999,2.0275,1.9987,1.9899,2.0087,1.9899,1.9798,1.9798,1.9798,1.9695,1.9449,1.8953,1.8301,1.7396,1.6793,1.6197,1.5575,1.541,1.542,1.542,1.542,1.542,1.5498,1.6171,1.6697,1.6726,1.6804,1.7187,1.7744,1.7568,1.7461,1.7695,1.79,1.7988,1.8008,1.8008,1.7569,1.6853,1.621,1.5559,1.4273,1.3623,1.3417,1.3185,1.3306,1.3876,1.5098,1.5871,1.6715,1.7131,1.7779,1.7726,1.6731,1.6167,1.5677,1.5636,1.5511,1.5304,1.4887,1.457,1.4334,1.4318,1.4275,1.4255,1.4222,1.4315,1.4275,1.4155,1.4197,1.4264,2.9779,2.9779,2.9779,2.9779,2.9779,2.9779,2.9779,2.9779,2.9779,2.9779,2.9779,2.9779,2.9779,2.9779,2.9779,2.9779,2.9779,2.9779,2.8859,2.7433,2.7742,2.7123,2.5773,2.6164,2.6487,2.6487,2.6487,2.6487,2.6487,2.6474,2.6163,2.5598,2.5071,2.4512,2.3991,2.3409,2.3095,2.3007,2.2355,2.1832,2.1405,2.0767,2.0201,1.9861,1.9798,1.9798,1.9798,1.9798,1.9798,1.9798,1.9798,1.9798,1.9798,1.9798,1.9798,1.9721,1.9359,1.8782,1.807,1.7357,1.6585,1.5968,1.5555,1.542,1.542,1.542,1.542,1.5527,1.6171,1.6638,1.6543,1.6836,1.7217,1.7686,1.7207,1.7207,1.7607,1.7773,1.7871,1.7939,1.8008,1.7681,1.7285,1.6671,1.621,1.4977,1.4135,1.3719,1.3351,1.326,1.3922,1.486,1.6096,1.6782,1.7326,1.8181,1.9155,1.8496,1.7683,1.709,1.6731,1.6486,1.6232,1.5345,1.4839,1.4276,1.4175,1.4155,1.4135,1.4088,1.4088,1.4088,1.4095,1.4095,1.4142,2.9779,2.9779,2.9779,2.9779,2.9779,2.9779,2.9779,2.9779,2.9779,2.9779,2.9779,2.9779,2.9779,2.9779,2.9779,2.9779,2.9779,2.9779,2.9214,2.8337,2.816,2.7548,2.6521,2.6452,2.6487,2.6487,2.6487,2.6487,2.6487,2.6487,2.6223,2.5711,2.5209,2.4575,2.4117,2.3471,2.3183,2.2982,2.2133,2.1631,2.1483,2.0501,1.9874,1.9811,1.9798,1.9798,1.9798,1.9798,1.9798,1.9798,1.9798,1.9798,1.9798,1.9798,1.9798,1.9798,1.9773,1.9333,1.8715,1.8031,1.7285,1.6454,1.5864,1.541,1.5439,1.5488,1.5537,1.5576,1.6287,1.666,1.6535,1.6897,1.7324,1.7246,1.6868,1.6838,1.7337,1.7494,1.7617,1.791,1.8008,1.7974,1.7862,1.7207,1.6706,1.5965,1.4807,1.4179,1.3611,1.3358,1.3366,1.4356,1.5711,1.6407,1.6805,1.7779,1.8709,1.8997,1.8461,1.8221,1.7706,1.7415,1.6683,1.5786,1.4901,1.437,1.4088,1.4088,1.4088,1.4088,1.4088,1.4088,1.4088,1.4088,1.4088,2.9779,2.9779,2.9779,2.9779,2.9779,2.9779,2.9779,2.9779,2.9779,2.9779,2.9779,2.9779,2.9767,2.9779,2.9754,2.9779,2.9754,2.9754,2.944,2.8812,2.8675,2.7833,2.6751,2.6487,2.6487,2.6487,2.6524,2.6487,2.6487,2.6524,2.6424,2.626,2.5624,2.5109,2.4607,2.4029,2.3521,2.3083,2.2443,2.187,2.1455,2.0842,2.0251,1.9823,1.9811,1.9798,1.9798,1.9798,1.9798,1.9798,1.9798,1.9798,1.9798,1.9798,1.9798,1.9798,1.9773,1.9501,1.8847,1.8501,1.7813,1.668,1.6322,1.5979,1.5449,1.5713,1.588,1.6075,1.668,1.7129,1.7093,1.7249,1.7246,1.6982,1.6875,1.7148,1.7588,1.7578,1.7539,1.792,1.7998,1.8008,1.793,1.7716,1.7113,1.6044,1.5128,1.4361,1.3792,1.3299,1.33,1.3755,1.4779,1.558,1.6355,1.7293,1.8181,1.8908,1.8988,1.9107,1.863,1.823,1.709,1.591,1.4817,1.4166,1.4088,1.4088,1.4088,1.4088,1.4088,1.4088,1.4088,1.4088,1.4088,2.9779,2.9779,2.9779,2.9779,2.9779,2.9779,2.9779,2.9779,2.9779,2.9641,2.9528,2.9704,2.9528,2.9139,2.9315,2.9389,2.9428,2.944,2.9227,2.8913,2.8612,2.7883,2.7014,2.665,2.6487,2.6524,2.6738,2.6688,2.6587,2.6713,2.6713,2.6399,2.5875,2.5347,2.4763,2.428,2.3715,2.312,2.2569,2.2133,2.182,2.1081,2.0591,2.0176,1.9974,1.9798,1.9798,1.9798,1.9798,1.9798,1.9798,1.9798,1.9798,1.9798,1.9798,1.9798,1.9798,1.9605,1.9202,1.89,1.8328,1.7495,1.6978,1.635,1.5933,1.59,1.5821,1.587,1.6621,1.6924,1.6966,1.7171,1.7139,1.6865,1.6963,1.7295,1.7705,1.7334,1.7441,1.7793,1.8008,1.8008,1.8008,1.8008,1.7476,1.6585,1.5702,1.4912,1.4154,1.3614,1.3306,1.3695,1.4346,1.5286,1.5906,1.6716,1.7309,1.8043,1.859,1.8908,1.8709,1.827,1.7204,1.5827,1.4817,1.4088,1.4088,1.4088,1.4088,1.4088,1.4088,1.4088,1.4088,1.4088,1.4088,2.9779,2.9779,2.9779,2.9779,2.9779,2.9779,2.9779,2.9779,2.9779,2.9478,2.9126,2.949,2.9164,2.8222,2.8875,2.895,2.9038,2.9214,2.9126,2.885,2.84,2.7667,2.7221,2.6857,2.6589,2.6582,2.7037,2.7014,2.6851,2.709,2.6964,2.6524,2.5984,2.5448,2.4983,2.4406,2.3816,2.3271,2.2744,2.238,2.2133,2.1471,2.0943,2.0541,2.0037,1.9823,1.9798,1.9798,1.9798,1.9798,1.9798,1.9798,1.9798,1.9798,1.9798,1.9798,1.9798,1.9773,1.9683,1.9176,1.8688,1.8221,1.7219,1.6534,1.6331,1.5909,1.5674,1.5801,1.6338,1.6728,1.676,1.7093,1.7227,1.6989,1.6882,1.6921,1.7227,1.7021,1.7028,1.7852,1.7998,1.8008,1.8008,1.8008,1.7906,1.6828,1.5974,1.506,1.4311,1.3694,1.3445,1.3481,1.4273,1.5199,1.5655,1.6098,1.6545,1.7058,1.7528,1.7859,1.7819,1.7374,1.6715,1.5786,1.4776,1.425,1.4088,1.4088,1.4088,1.4088,1.4088,1.4088,1.4088,1.4088,1.4088,2.9779,2.9779,2.9779,2.9779,2.9779,2.9779,2.9779,2.9779,2.9779,2.9465,2.9026,2.9089,2.895,2.8675,2.8825,2.9126,2.949,2.9528,2.9603,2.94,2.8037,2.749,2.7242,2.7028,2.6855,2.6724,2.7047,2.7243,2.7193,2.7145,2.704,2.6549,2.6233,2.5988,2.5398,2.4883,2.4368,2.3772,2.3208,2.2706,2.2397,2.2058,2.1483,2.0767,2.01,1.9836,1.9798,1.9798,1.9798,1.9798,1.9798,1.9798,1.9798,1.9798,1.9798,1.9798,1.9798,1.9798,1.9773,1.9579,1.9044,1.8043,1.7645,1.7016,1.6257,1.6098,1.6094,1.6416,1.6934,1.7178,1.7324,1.7406,1.7402,1.7344,1.7058,1.7009,1.7539,1.7155,1.7135,1.7744,1.8008,1.8008,1.8008,1.8008,1.7681,1.6966,1.6175,1.5181,1.4507,1.3913,1.3629,1.3534,1.373,1.4492,1.4629,1.5012,1.5438,1.589,1.6396,1.6609,1.6609,1.6486,1.5827,1.5338,1.4817,1.4412,1.413,1.4088,1.4088,1.4088,1.4088,1.4088,1.4088,1.4088,1.4088,2.9779,2.9779,2.9779,2.9779,2.9779,2.9779,2.9779,2.9779,2.9779,2.9465,2.9038,2.9176,2.9038,2.8562,2.8775,2.9088,2.939,2.9679,2.9482,2.8954,2.7944,2.7154,2.6245,2.6407,2.6422,2.6546,2.7037,2.7397,2.7503,2.7222,2.6952,2.6759,2.6183,2.5726,2.564,2.5264,2.4745,2.4092,2.3703,2.3233,2.2757,2.238,2.1782,2.0817,2.0125,1.9798,1.9798,1.9798,1.9798,1.9798,1.9798,1.9798,1.9798,1.9798,1.9798,1.9798,1.9798,1.9798,1.9798,1.9747,1.9319,1.819,1.8001,1.7449,1.6807,1.6465,1.6338,1.6504,1.6777,1.7145,1.735,1.749,1.7412,1.7132,1.7109,1.7168,1.7252,1.697,1.7028,1.7754,1.8008,1.8008,1.8008,1.8008,1.794,1.7432,1.7007,1.6093,1.5343,1.4726,1.3947,1.3701,1.3487,1.3528,1.3554,1.3838,1.4276,1.4725,1.5137,1.5228,1.5186,1.5103,1.4943,1.4657,1.4454,1.4328,1.4088,1.4088,1.4088,1.4088,1.4088,1.4088,1.4088,1.4088,1.4088,2.9779,2.9779,2.9779,2.9779,2.9779,2.9779,2.9779,2.9779,2.9779,2.9465,2.9038,2.9465,2.9051,2.8487,2.87,2.8913,2.9138,2.9144,2.8949,2.8283,2.7463,2.6401,2.5352,2.5172,2.57,2.6449,2.7038,2.75,2.7434,2.7101,2.6651,2.6621,2.5493,2.492,2.5157,2.534,2.4855,2.4117,2.3973,2.374,2.3233,2.2732,2.1995,2.1192,2.0539,2.015,2.0075,1.9999,1.9936,1.9811,1.9798,1.9798,1.9773,1.9669,1.9643,1.9618,1.9527,1.9527,1.9489,1.9489,1.9228,1.8605,1.825,1.7799,1.7151,1.6796,1.6625,1.6533,1.6689,1.6824,1.6824,1.7041,1.6934,1.6701,1.7014,1.709,1.698,1.6863,1.7266,1.7793,1.8008,1.8008,1.8008,1.8008,1.8008,1.7939,1.7497,1.6989,1.6259,1.5606,1.4917,1.4304,1.4198,1.3649,1.3548,1.348,1.3817,1.4108,1.437,1.437,1.4292,1.437,1.4496,1.4334,1.4166,1.4088,1.4088,1.4088,1.4088,1.4088,1.4088,1.4088,1.4088,1.4088,1.4088,2.9779,2.9779,2.9779,2.9779,2.9779,2.9779,2.9779,2.9779,2.9779,2.9465,2.8976,2.9001,2.9051,2.8813,2.8825,2.9189,2.9374,2.8991,2.8359,2.7643,2.6521,2.5115,2.4703,2.4088,2.4735,2.6188,2.6969,2.7159,2.7069,2.6603,2.6308,2.5409,2.4394,2.3957,2.4094,2.4213,2.4538,2.4247,2.4166,2.4023,2.3703,2.3108,2.2556,2.187,2.1305,2.0863,2.0562,2.0489,2.0327,1.9861,1.9811,1.9823,1.9719,1.9289,1.8987,1.8992,1.8992,1.9018,1.89,1.8898,1.8501,1.7927,1.7679,1.7323,1.6918,1.6813,1.6894,1.6963,1.6846,1.6824,1.7236,1.7109,1.7041,1.7002,1.7031,1.7158,1.749,1.751,1.7441,1.792,1.7998,1.8008,1.8008,1.8008,1.8008,1.8027,1.7873,1.7497,1.6942,1.6505,1.6094,1.5541,1.5068,1.4398,1.377,1.3641,1.3701,1.3996,1.4208,1.4208,1.4166,1.4124,1.4088,1.4088,1.4088,1.4088,1.4088,1.4088,1.4088,1.4088,1.4088,1.4088,1.4088,1.4088,1.4088,2.9779,2.9779,2.9779,2.9779,2.9779,2.9779,2.9779,2.9779,2.9779,2.9641,2.944,2.9377,2.9377,2.9377,2.9377,2.9553,2.942,2.8648,2.7855,2.7035,2.563,2.4414,2.4049,2.3299,2.4178,2.545,2.6425,2.7262,2.76,2.6922,2.616,2.5334,2.4148,2.3526,2.3711,2.4295,2.433,2.4321,2.4534,2.4506,2.3966,2.3183,2.2556,2.2243,2.1775,2.116,2.0655,2.0969,2.0735,2.0253,2.0449,2.0461,2.0021,1.9297,1.862,1.8676,1.8658,1.8486,1.8275,1.8269,1.8052,1.7259,1.7465,1.7431,1.7078,1.71,1.7353,1.7266,1.7021,1.6904,1.7314,1.7158,1.7207,1.7324,1.7334,1.7461,1.7627,1.7686,1.7832,1.7978,1.7998,1.8008,1.8008,1.8008,1.8008,1.807,1.8154,1.7932,1.7587,1.7497,1.723,1.5878,1.5164,1.4281,1.3674,1.3541,1.3586,1.3895,1.4088,1.4088,1.4088,1.4088,1.4088,1.4088,1.4088,1.4088,1.4088,1.4088,1.4088,1.4088,1.4088,1.4088,1.4088,1.4088,1.4088,2.9779,2.9779,2.9779,2.9779,2.9779,2.9779,2.9779,2.9779,2.9779,2.9779,2.9779,2.9754,2.9691,2.9616,2.9591,2.9602,2.9625,2.845,2.729,2.6431,2.5052,2.3887,2.3343,2.3222,2.3757,2.4935,2.5856,2.7046,2.7595,2.7095,2.6193,2.4955,2.3773,2.3184,2.3297,2.399,2.426,2.4748,2.5084,2.5013,2.3804,2.296,2.2225,2.2036,2.1687,2.1124,2.0276,2.0596,2.0488,2.0196,2.0325,2.0611,2.0125,1.9157,1.855,1.8444,1.841,1.8054,1.7824,1.7798,1.7575,1.6747,1.7543,1.7415,1.7266,1.7311,1.7832,1.7519,1.7285,1.709,1.7363,1.7363,1.7363,1.7422,1.7627,1.7822,1.7734,1.7764,1.791,1.7998,1.8008,1.8008,1.8008,1.8047,1.8057,1.8418,1.853,1.8596,1.8358,1.8658,1.8096,1.6154,1.4924,1.4019,1.3496,1.3326,1.3494,1.3766,1.4001,1.4088,1.4088,1.4088,1.4088,1.4088,1.4088,1.4088,1.4088,1.4088,1.4088,1.4088,1.4088,1.4088,1.4088,1.4088,1.4088,2.9779,2.9779,2.9779,2.9779,2.9779,2.9779,2.9779,2.9779,2.9779,2.9779,2.9779,2.9729,2.9478,2.9151,2.8962,2.9263,2.8995,2.7626,2.655,2.5939,2.432,2.3288,2.3076,2.3101,2.3657,2.4598,2.5349,2.6029,2.6773,2.6711,2.5583,2.409,2.3167,2.2226,2.2515,2.3404,2.4085,2.4826,2.5339,2.4719,2.3264,2.2911,2.2121,2.1409,2.1295,2.1103,2.001,2.0064,1.9848,1.9325,1.9246,1.9052,1.8685,1.8839,1.821,1.7707,1.7352,1.7323,1.7256,1.7322,1.7238,1.6698,1.6991,1.6857,1.707,1.7467,1.7978,1.7969,1.7812,1.7646,1.7523,1.7455,1.7425,1.7432,1.7568,1.7773,1.7822,1.7832,1.7988,1.8008,1.8008,1.8008,1.8008,1.8057,1.8154,1.8555,1.8861,1.8899,1.8877,1.8942,1.8667,1.6704,1.5293,1.4343,1.3663,1.3457,1.3561,1.3781,1.397,1.413,1.4088,1.4088,1.4088,1.4088,1.4088,1.4088,1.4088,1.4088,1.4088,1.4088,1.4088,1.4088,1.4088,1.4088,1.4088,2.9779,2.9779,2.9779,2.9779,2.9779,2.9779,2.9779,2.9779,2.9779,2.9779,2.9704,2.9415,2.9151,2.8825,2.8321,2.8307,2.8263,2.6562,2.5426,2.5078,2.3671,2.2695,2.2451,2.2484,2.3104,2.42,2.4714,2.5069,2.5773,2.653,2.62,2.3767,2.3304,2.2837,2.2247,2.2999,2.4,2.4719,2.5007,2.4444,2.3389,2.263,2.1846,2.0687,2.0985,2.0445,1.9833,1.999,1.9797,1.9409,1.9503,1.9624,1.9169,1.8916,1.8424,1.804,1.7257,1.6971,1.693,1.692,1.6799,1.6879,1.7034,1.7504,1.7516,1.7744,1.8008,1.7998,1.8008,1.79,1.7773,1.7744,1.7734,1.7725,1.7666,1.7764,1.793,1.7959,1.8008,1.8008,1.8008,1.8008,1.8008,1.8037,1.8105,1.8315,1.8568,1.864,1.8508,1.8375,1.7947,1.7104,1.5889,1.49,1.4256,1.3812,1.3858,1.4075,1.4135,1.4208,1.413,1.4088,1.4208,1.4166,1.4088,1.4088,1.4088,1.4088,1.4088,1.4088,1.4088,1.4088,1.4088,1.4088,1.4088,2.9779,2.9779,2.9779,2.9779,2.9779,2.9779,2.9779,2.9779,2.9779,2.9716,2.9402,2.8875,2.8637,2.8537,2.7695,2.7368,2.7928,2.5697,2.4766,2.4012,2.3277,2.2591,2.2432,2.235,2.2675,2.3784,2.3948,2.4202,2.5032,2.5942,2.5857,2.3604,2.3888,2.3495,2.2847,2.285,2.3588,2.4898,2.4789,2.412,2.3103,2.2177,2.1105,2.0356,2.0042,1.9857,1.9243,1.9442,1.9388,1.9203,1.9336,1.9308,1.8892,1.8563,1.8274,1.7926,1.7312,1.7111,1.7039,1.699,1.6736,1.6931,1.7311,1.7725,1.793,1.8008,1.8008,1.8008,1.8008,1.8008,1.7998,1.7988,1.7949,1.7939,1.7949,1.7988,1.8008,1.8008,1.8008,1.8008,1.8008,1.8008,1.8008,1.8008,1.8076,1.8169,1.8276,1.8403,1.8325,1.8223,1.7804,1.7307,1.6917,1.5951,1.528,1.4756,1.4641,1.458,1.4643,1.4657,1.4734,1.4615,1.4573,1.4454,1.4292,1.4088,1.4088,1.4088,1.4088,1.4088,1.4088,1.4088,1.4088,1.4088,1.4088,2.9779,2.9779,2.9779,2.9779,2.9779,2.9779,2.9779,2.9779,2.9779,2.9503,2.8925,2.8021,2.8072,2.8139,2.7025,2.6662,2.7865,2.5409,2.4513,2.408,2.3644,2.2885,2.2565,2.2383,2.2389,2.2732,2.2981,2.3253,2.3788,2.5079,2.4779,2.378,2.406,2.3835,2.3449,2.3176,2.3915,2.4933,2.4943,2.382,2.2741,2.1621,2.0432,1.9001,1.8952,1.8988,1.8178,1.8371,1.8462,1.8259,1.8462,1.8432,1.8183,1.8068,1.7906,1.7731,1.7389,1.7314,1.749,1.7135,1.6794,1.6863,1.7227,1.7725,1.7978,1.8008,1.8008,1.8008,1.8008,1.8008,1.8008,1.8008,1.8008,1.8008,1.8008,1.8008,1.8008,1.8008,1.8008,1.8008,1.8008,1.8008,1.8096,1.8115,1.8262,1.8364,1.8568,1.8695,1.8607,1.8465,1.809,1.7769,1.7751,1.7208,1.6527,1.6155,1.5947,1.5947,1.6073,1.588,1.5745,1.5504,1.5345,1.4943,1.4824,1.4454,1.413,1.4166,1.4166,1.413,1.4088,1.4088,1.4088,1.4088,1.4088,2.9779,2.9779,2.9779,2.9779,2.9779,2.9779,2.9779,2.9779,2.9779,2.9465,2.8813,2.7858,2.7695,2.7606,2.6016,2.5448,2.6148,2.422,2.354,2.3153,2.2699,2.2402,2.2158,2.1914,2.1564,2.2007,2.2149,2.22,2.2615,2.4018,2.4076,2.3777,2.3924,2.3777,2.3545,2.3962,2.5119,2.5601,2.5603,2.4654,2.2832,2.1945,2.0617,1.8681,1.8562,1.8566,1.81,1.8018,1.8008,1.8008,1.8008,1.7881,1.7725,1.7744,1.7715,1.7656,1.7373,1.7441,1.7822,1.7477,1.7223,1.7477,1.7695,1.7832,1.8008,1.8008,1.8008,1.8008,1.8008,1.8008,1.8008,1.8008,1.8008,1.8008,1.8008,1.8008,1.8008,1.8008,1.8008,1.8008,1.8008,1.8008,1.8135,1.8227,1.8393,1.8578,1.8828,1.8975,1.8851,1.888,1.8625,1.8467,1.8453,1.8403,1.7755,1.7466,1.7214,1.7361,1.7468,1.7155,1.6879,1.6723,1.6494,1.5966,1.5387,1.5103,1.4776,1.4412,1.425,1.413,1.4088,1.4088,1.4088,1.4088,1.4088,2.9779,2.9779,2.9779,2.9779,2.9779,2.9779,2.9779,2.9779,2.9779,2.934,2.8612,2.7582,2.7379,2.7004,2.5273,2.4713,2.4883,2.3608,2.2797,2.251,2.2445,2.2178,2.1875,2.1543,2.1328,2.165,2.1523,2.1496,2.205,2.3153,2.3401,2.3453,2.3597,2.3515,2.3743,2.4543,2.5599,2.5693,2.5278,2.4449,2.243,2.1603,2.0748,1.8968,1.8899,1.8639,1.8359,1.8217,1.8135,1.8066,1.8008,1.8008,1.79,1.7812,1.7773,1.7695,1.7588,1.7399,1.7725,1.7822,1.7705,1.7861,1.793,1.7978,1.8008,1.8008,1.8008,1.8008,1.8008,1.8008,1.8008,1.8008,1.8008,1.8008,1.8008,1.8008,1.8008,1.8008,1.8008,1.8008,1.8018,1.8076,1.8461,1.8656,1.8896,1.8926,1.8724,1.8965,1.9102,1.9199,1.937,1.9265,1.9269,1.9173,1.8987,1.8861,1.8773,1.8879,1.8854,1.8355,1.8109,1.7908,1.7464,1.6731,1.6239,1.5861,1.5338,1.4734,1.437,1.413,1.4124,1.4208,1.4088,1.4088,1.4088,2.9779,2.9779,2.9779,2.9779,2.9779,2.9779,2.9779,2.9754,2.9641,2.9139,2.8197,2.714,2.6889,2.6692,2.4769,2.4422,2.4741,2.3115,2.2324,2.275,2.25,2.2656,2.234,2.1875,2.125,2.1631,2.1523,2.1434,2.1953,2.2567,2.2821,2.3097,2.3236,2.336,2.3304,2.2993,2.2889,2.2861,2.2794,2.2413,2.1792,2.0997,2.0203,1.9475,1.9268,1.9053,1.873,1.849,1.8344,1.8184,1.8037,1.8018,1.7978,1.79,1.7891,1.7939,1.791,1.79,1.7998,1.7988,1.8027,1.8008,1.8008,1.8008,1.8008,1.8008,1.8008,1.8008,1.8008,1.8008,1.8008,1.8008,1.8008,1.8008,1.8008,1.8008,1.8008,1.8008,1.8008,1.8066,1.8086,1.8203,1.8724,1.9143,1.9394,1.9316,1.8906,1.8936,1.9258,1.957,1.9863,1.9905,1.987,1.9899,1.984,2.0217,2.0304,2.0401,2.0118,1.952,1.9164,1.8997,1.839,1.7626,1.7131,1.6838,1.5944,1.4977,1.5019,1.511,1.4496,1.437,1.4208,1.4208,1.4328,2.9779,2.9779,2.9779,2.9779,2.9779,2.9779,2.9779,2.9641,2.9063,2.8649,2.8348,2.7143,2.6801,2.6365,2.4963,2.4089,2.4528,2.3043,2.2344,2.2935,2.2471,2.2432,2.2194,2.1689,2.123,2.1582,2.1523,2.158,2.2314,2.2412,2.2682,2.2994,2.3139,2.3403,2.3732,2.3775,2.386,2.4115,2.3842,2.3205,2.2275,2.1501,2.0712,1.9774,1.9697,1.9492,1.9092,1.8851,1.8588,1.8344,1.8178,1.8047,1.7959,1.7861,1.7773,1.7852,1.7842,1.7744,1.7998,1.8184,1.8237,1.8144,1.8086,1.8096,1.8027,1.8008,1.8008,1.8018,1.8018,1.8018,1.8008,1.8018,1.8018,1.8008,1.8008,1.8008,1.8008,1.8008,1.8027,1.8091,1.8149,1.8724,1.928,1.9531,1.9746,1.999,1.9687,1.9531,1.9746,2.0059,2.038,2.0352,2.0372,2.0469,2.0615,2.0615,2.0615,2.0527,2.0489,2.0284,2.0089,1.9883,1.9766,1.9155,1.8501,1.7811,1.6968,1.6322,1.6363,1.6206,1.5752,1.5179,1.4977,1.4894,1.4894,2.9779,2.9779,2.9779,2.9779,2.9779,2.9779,2.9779,2.9578,2.8637,2.8323,2.8285,2.7316,2.6964,2.6487,2.4903,2.4145,2.4735,2.289,2.2344,2.2886,2.2285,2.2275,2.2041,2.1435,2.126,2.1484,2.1444,2.1522,2.1943,2.2197,2.2555,2.2955,2.3081,2.3196,2.3437,2.3484,2.3474,2.3484,2.3077,2.2749,2.2132,2.1632,2.1126,2.0445,2.0088,1.9941,1.9561,1.9228,1.888,1.8627,1.8364,1.811,1.7978,1.7842,1.7744,1.7822,1.7832,1.7773,1.8027,1.8354,1.8393,1.8276,1.835,1.8447,1.8398,1.8379,1.8291,1.8223,1.8105,1.8057,1.8057,1.8066,1.8169,1.8213,1.8232,1.8252,1.8223,1.8242,1.8105,1.8169,1.8461,1.9104,1.9718,1.9902,2.0087,2.0341,2.0546,2.0342,2.0166,2.0381,2.0615,2.0605,2.0595,2.0605,2.0615,2.0615,2.0615,2.0615,2.0615,2.0615,2.0566,2.0294,2.0489,2.0489,1.9392,1.851,1.8101,1.7747,1.7464,1.7415,1.7374,1.6723,1.5944,1.5621,1.5455,2.9779,2.9779,2.9779,2.9779,2.9779,2.9666,2.9679,2.9679,2.8586,2.8134,2.8122,2.757,2.7306,2.6825,2.4653,2.4294,2.4803,2.2941,2.2614,2.2613,2.2217,2.2285,2.2041,2.1543,2.1309,2.122,2.1298,2.1414,2.1356,2.1924,2.251,2.2886,2.3052,2.2991,2.285,2.2836,2.2765,2.2693,2.2462,2.212,2.1699,2.1351,2.1017,2.0586,2.0458,2.0264,1.9971,1.9707,1.9287,1.8945,1.8588,1.8344,1.8184,1.8022,1.8057,1.8037,1.8047,1.8144,1.8139,1.85,1.8763,1.8822,1.9131,1.9258,1.9072,1.876,1.8559,1.8412,1.832,1.8213,1.8144,1.8369,1.8549,1.8578,1.8617,1.8598,1.8568,1.8496,1.8291,1.8379,1.8637,1.9182,1.9902,2.0214,2.0302,2.0449,2.0615,2.0576,2.0439,2.0458,2.0615,2.0615,2.0605,2.0605,2.0615,2.0615,2.0615,2.0615,2.0615,2.0615,2.0615,2.0615,2.0615,2.0372,1.9687,1.9155,1.8957,1.863,1.831,1.835,1.8669,1.7698,1.6756,1.6191,1.5861,2.9779,2.9779,2.9779,2.9779,2.9666,2.8938,2.9026,2.9578,2.8612,2.8285,2.8599,2.7695,2.7557,2.7565,2.4852,2.466,2.4194,2.3422,2.2601,2.2275,2.2139,2.2041,2.1748,2.1338,2.125,2.1484,2.1641,2.1602,2.1748,2.208,2.2305,2.2623,2.2964,2.2799,2.273,2.275,2.2598,2.2363,2.21,2.1836,2.1602,2.1337,2.1025,2.0693,2.0615,2.043,2.0322,1.9824,1.9404,1.9189,1.8763,1.851,1.8471,1.8711,1.8867,1.8535,1.8662,1.8838,1.8617,1.9095,1.9446,1.9521,1.9873,1.9707,1.9414,1.9033,1.8822,1.873,1.8418,1.8203,1.8398,1.8672,1.888,1.9007,1.9072,1.9082,1.9033,1.8906,1.873,1.8877,1.9124,1.9475,2.0176,2.04,2.0488,2.0566,2.0615,2.0615,2.0615,2.0615,2.0615,2.0615,2.0615,2.0615,2.0615,2.0615,2.0615,2.0615,2.0615,2.0644,2.0674,2.0674,2.0635,2.0411,2.0001,1.9962,1.9962,1.9638,1.9234,1.9638,1.9883,1.8709,1.7658,1.7123,1.6191,2.9779,2.9779,2.9779,2.9779,2.9628,2.8837,2.8863,2.9227,2.8486,2.8323,2.8536,2.8147,2.7996,2.7605,2.5287,2.4413,2.5256,2.2971,2.1992,2.2535,2.1973,2.1865,2.1533,2.1221,2.1094,2.1456,2.1681,2.1621,2.1709,2.2012,2.2295,2.2526,2.2886,2.2896,2.2857,2.2925,2.2925,2.2695,2.2402,2.209,2.1777,2.1455,2.1016,2.0664,2.0615,2.0615,2.0566,1.9912,1.9746,1.957,1.9182,1.9017,1.8948,1.9141,1.9228,1.8945,1.9043,1.9092,1.9033,1.9446,1.9795,2.0019,2.0312,2.0282,1.9862,1.9394,1.9238,1.9062,1.8535,1.8213,1.8613,1.8994,1.9238,1.9482,1.9502,1.9531,1.9453,1.9365,1.9414,1.9531,1.9766,2.0049,2.0332,2.0527,2.0615,2.0615,2.0615,2.0615,2.0615,2.0615,2.0615,2.0615,2.0615,2.0615,2.0615,2.0635,2.0693,2.0703,2.0664,2.0693,2.0703,2.0664,2.0625,2.0615,2.0527,2.045,2.0362,2.045,2.0323,2.0615,2.0489,1.9511,1.863,1.8181,1.7009,2.9779,2.9779,2.9779,2.9741,2.9641,2.9038,2.875,2.8725,2.8273,2.8147,2.8273,2.865,2.8512,2.7692,2.5544,2.4776,2.4537,2.2778,2.1934,2.2906,2.1804,2.1494,2.1572,2.1435,2.1133,2.1084,2.1319,2.166,2.1251,2.1603,2.2197,2.2519,2.2886,2.3023,2.3033,2.3052,2.3033,2.2916,2.2539,2.2139,2.1826,2.1455,2.1025,2.0654,2.0615,2.0605,2.0586,2.0478,2.0332,2.0049,1.9834,1.9629,1.958,1.9482,1.9463,1.9424,1.9502,1.9453,1.9492,1.9814,1.9961,2.0137,2.0322,2.0468,2.0175,1.9551,1.9316,1.9258,1.8809,1.8691,1.8994,1.9307,1.9561,1.9824,1.9961,1.9971,1.9932,1.9891,1.9844,1.9951,2.0059,2.0332,2.043,2.0615,2.0615,2.0615,2.0615,2.0615,2.0625,2.0625,2.0615,2.0615,2.0615,2.0615,2.0615,2.0664,2.0762,2.0771,2.0732,2.0732,2.0732,2.0703,2.0615,2.0615,2.0615,2.0615,2.0566,2.0615,2.0615,2.0615,2.0411,2.004,1.9511,1.9036,1.798,2.9779,2.9779,2.9779,2.9553,2.9089,2.8549,2.8084,2.772,2.8009,2.8298,2.8662,2.8787,2.8583,2.7714,2.5839,2.5001,2.4323,2.2858,2.2138,2.208,2.1543,2.1317,2.1366,2.1307,2.1093,2.1249,2.1514,2.1779,2.1701,2.1877,2.2109,2.2519,2.2877,2.3091,2.3101,2.3101,2.3081,2.3052,2.2529,2.2158,2.1934,2.1484,2.0995,2.0723,2.0615,2.0615,2.0527,2.0254,2.0107,1.9884,1.9912,2.001,2.0273,2.0273,2.0068,1.9893,2.0048,1.9961,1.9941,2.0098,2.0283,2.0361,2.0537,2.0576,2.0331,1.9705,1.9336,1.9336,1.9238,1.9143,1.9316,1.959,1.9863,2.0165,2.041,2.041,2.041,2.0361,2.0302,2.0341,2.0371,2.0449,2.0576,2.0615,2.0615,2.0615,2.0615,2.0615,2.0644,2.0644,2.0615,2.0615,2.0615,2.0615,2.0615,2.0654,2.0742,2.0752,2.0703,2.0732,2.0791,2.0703,2.0615,2.0615,2.0615,2.0615,2.0615,2.0615,2.0615,2.0615,2.0527,2.0196,1.9962,1.9559,1.863,2.9641,2.9453,2.9691,2.9453,2.8938,2.885,2.8285,2.7544,2.8122,2.8461,2.8674,2.8975,2.8751,2.7759,2.6045,2.4829,2.4252,2.269,2.2411,2.2197,2.167,2.1434,2.1346,2.1317,2.0995,2.1133,2.1435,2.168,2.2051,2.2187,2.2363,2.2535,2.2877,2.3101,2.3101,2.3101,2.3101,2.3062,2.2441,2.2187,2.2012,2.1445,2.0918,2.0635,2.0615,2.0615,2.0546,2.0312,2.0273,2.0215,2.0234,2.0283,2.0498,2.0527,2.0449,2.0361,2.04,2.0459,2.0342,2.0391,2.0615,2.0615,2.0615,2.0615,2.0527,1.9969,1.9687,1.958,1.8721,1.8555,1.9307,1.9707,1.999,2.0302,2.0458,2.0527,2.0527,2.0507,2.0478,2.0498,2.0527,2.0546,2.0615,2.0615,2.0654,2.085,2.081,2.0742,2.0781,2.0654,2.0625,2.0615,2.0615,2.0615,2.0615,2.0664,2.0713,2.0684,2.0683,2.0683,2.0693,2.0654,2.0615,2.0615,2.0615,2.0615,2.0615,2.0615,2.0615,2.0615,2.0527,2.0401,2.0245,2.0089,1.952,2.9428,2.9126,2.949,2.9402,2.9038,2.944,2.88,2.7733,2.8461,2.8537,2.8151,2.9072,2.8531,2.7325,2.6041,2.4938,2.3784,2.2506,2.2445,2.2461,2.1775,2.167,2.1631,2.1551,2.1406,2.1269,2.1406,2.1914,2.2412,2.2441,2.248,2.2594,2.2828,2.3101,2.3101,2.3101,2.3091,2.2994,2.2705,2.251,2.1992,2.1348,2.0908,2.0723,2.0635,2.0615,2.0605,2.0595,2.0595,2.0576,2.0537,2.0556,2.0576,2.0615,2.0605,2.0546,2.0546,2.0586,2.0566,2.0556,2.0615,2.0615,2.0615,2.0576,2.0498,2.0292,2.001,1.9619,1.8769,1.8643,1.9394,1.9873,2.0194,2.039,2.0517,2.0615,2.0615,2.0615,2.0615,2.0615,2.0615,2.0615,2.0635,2.0625,2.0762,2.0996,2.1034,2.1025,2.0937,2.0752,2.0615,2.0615,2.0615,2.0615,2.0615,2.0644,2.0674,2.0684,2.0693,2.0644,2.0615,2.0615,2.0615,2.0615,2.0615,2.0615,2.0615,2.0615,2.0615,2.0615,2.0566,2.0527,2.0489,2.0411,2.0489,2.9302,2.9603,2.9264,2.8988,2.8913,2.9038,2.8637,2.8134,2.8574,2.836,2.7813,2.7963,2.7721,2.6538,2.5107,2.4054,2.3315,2.2298,2.2278,2.2383,2.2041,2.1914,2.1894,2.1943,2.2158,2.207,2.1904,2.207,2.2568,2.2598,2.2695,2.2935,2.2974,2.3101,2.3101,2.3101,2.3081,2.2974,2.2789,2.2588,2.2272,2.1717,2.122,2.0986,2.0762,2.0683,2.0605,2.0605,2.0605,2.0605,2.0615,2.0615,2.0615,2.0615,2.0615,2.0615,2.0615,2.0615,2.0615,2.0615,2.0615,2.0615,2.0615,2.0605,2.0478,2.0234,2.0146,2.0303,1.9697,1.9492,1.9971,2.0166,2.0449,2.0507,2.0605,2.0615,2.0615,2.0615,2.0615,2.0615,2.0615,2.0644,2.0664,2.0742,2.0918,2.1094,2.1103,2.1074,2.0879,2.0723,2.0615,2.0615,2.0615,2.0615,2.0615,2.0615,2.0654,2.0683,2.0693,2.0644,2.0615,2.0615,2.0615,2.0615,2.0615,2.0615,2.0615,2.0615,2.0615,2.0615,2.0615,2.0566,2.0615,2.0615,2.0615]}]]